[[{"header":{"parameterUnit":"m.s-1","parameterCategory":1,"la1":30.6,"la2":29.2853,"lo1":-89.7004,"lo2":-87.6739,"dy":0.0162,"dx":0.0183,"nx":112,"ny":82,"refTime":"2023-06-08T12:00:00:Z","depth":0,"parameterNumber":2,"parameterNumberName":"U-component_of_WINDS"},"data":[0.0,0.0,0.0,0.0,0.0,0.0,0.0,0.0,0.0,0.0,0.0,0.0,0.0,0.0,0.0,0.0,0.0,0.0,0.0,0.0,0.0,0.0,0.0,0.0,0.0,0.0,0.0,0.0,0.0,0.0,0.0,0.0,0.0,0.0,0.0,0.0,0.0,0.0,0.0,0.0,0.0,0.0,0.0,0.0,0.0,0.0,0.0,0.0,0.0,0.0,0.0,0.0,0.0,0.0,0.0,0.0,0.0,0.0,0.0,0.0,0.0,0.0,0.0,0.0,0.0,0.0,0.0,0.0,0.0,0.0,0.0,0.0,0.0,0.0,0.0,0.0,0.0,0.0,0.0,0.0,0.0,0.0,0.0,0.0,0.0,0.0,0.0,0.0,0.0,0.0,2.1914,2.2757,2.4105,2.4648,2.3943,2.2737,2.2307,2.2966,0.0,0.0,0.0,0.0,0.0,0.0,0.0,0.0,0.0,0.0,0.0,0.0,0.0,0.0,0.0,0.0,0.0,0.0,0.0,0.0,0.0,0.0,0.0,0.0,0.0,0.0,0.0,0.0,0.0,0.0,0.0,0.0,0.0,0.0,0.0,0.0,0.0,0.0,0.0,0.0,0.0,0.0,0.0,0.0,0.0,0.0,0.0,0.0,0.0,0.0,0.0,0.0,0.0,0.0,0.0,0.0,0.0,0.0,0.0,0.0,0.0,0.0,0.0,0.0,0.0,0.0,0.0,0.0,0.0,0.0,0.0,0.0,0.0,0.0,0.0,0.0,0.0,0.0,0.0,0.0,0.0,0.0,0.0,0.0,0.0,0.0,0.0,0.0,0.0,0.0,0.0,0.0,0.0,0.0,0.0,0.0,0.0,0.0,0.0,0.0,0.0,0.0,0.0,0.0,2.2713,2.3467,2.3927,2.4066,2.3843,2.113,2.0738,2.3708,0.0,0.0,0.0,0.0,0.0,0.0,0.0,0.0,0.0,0.0,0.0,0.0,0.0,0.0,0.0,0.0,0.0,0.0,0.0,0.0,0.0,0.0,0.0,0.0,0.0,0.0,0.0,0.0,0.0,0.0,0.0,0.0,0.0,0.0,0.0,0.0,0.0,0.0,0.0,0.0,0.0,0.0,0.0,0.0,0.0,0.0,0.0,0.0,0.0,0.0,0.0,0.0,0.0,0.0,0.0,0.0,0.0,0.0,0.0,0.0,0.0,0.0,0.0,0.0,0.0,0.0,0.0,0.0,0.0,0.0,0.0,0.0,0.0,0.0,0.0,0.0,0.0,0.0,0.0,0.0,0.0,0.0,0.0,0.0,0.0,0.0,0.0,0.0,0.0,0.0,0.0,0.0,0.0,0.0,0.0,0.0,0.0,0.0,0.0,0.0,0.0,0.0,0.0,2.227,2.2754,2.3561,2.4125,2.4252,2.3796,2.1124,2.0805,2.3851,2.1255,0.0,0.0,0.0,0.0,0.0,0.0,0.0,0.0,0.0,0.0,0.0,0.0,0.0,0.0,0.0,0.0,0.0,0.0,0.0,0.0,0.0,0.0,0.0,0.0,0.0,0.0,0.0,0.0,0.0,0.0,0.0,0.0,0.0,0.0,0.0,0.0,0.0,0.0,0.0,0.0,0.0,0.0,0.0,0.0,0.0,0.0,0.0,0.0,0.0,0.0,0.0,0.0,0.0,0.0,0.0,0.0,0.0,0.0,0.0,0.0,0.0,0.0,0.0,0.0,0.0,0.0,0.0,0.0,0.0,0.0,0.0,0.0,0.0,0.0,0.0,0.0,0.0,0.0,0.0,0.0,0.0,0.0,0.0,0.0,0.0,0.0,0.0,0.0,0.0,0.0,0.0,0.0,0.0,0.0,0.0,0.0,0.0,0.0,0.0,0.0,0.0,0.0,2.235,2.1896,2.3159,2.37,2.3742,2.3158,2.1233,2.11,2.3554,2.1325,0.0,0.0,0.0,0.0,0.0,0.0,0.0,0.0,0.0,0.0,0.0,0.0,0.0,0.0,0.0,0.0,0.0,0.0,0.0,0.0,0.0,0.0,0.0,0.0,0.0,0.0,0.0,0.0,0.0,0.0,0.0,0.0,0.0,0.0,0.0,0.0,0.0,0.0,0.0,0.0,0.0,0.0,0.0,0.0,0.0,0.0,0.0,0.0,0.0,0.0,0.0,0.0,0.0,0.0,0.0,0.0,0.0,0.0,0.0,0.0,0.0,0.0,0.0,0.0,0.0,0.0,0.0,0.0,0.0,0.0,0.0,0.0,0.0,0.0,0.0,0.0,0.0,0.0,0.0,0.0,0.0,0.0,0.0,0.0,0.0,0.0,0.0,0.0,0.0,0.0,0.0,0.0,0.0,0.0,0.0,0.0,0.0,0.0,0.0,0.0,0.0,0.0,2.0803,1.9707,2.2128,2.1888,2.151,2.1396,2.0633,2.0968,2.2761,2.2724,0.0,0.0,0.0,0.0,0.0,0.0,0.0,0.0,0.0,0.0,0.0,0.0,0.0,0.0,0.0,0.0,0.0,0.0,0.0,0.0,0.0,0.0,0.0,0.0,0.0,0.0,0.0,0.0,0.0,0.0,0.0,0.0,0.0,0.0,0.0,0.0,0.0,0.0,0.0,0.0,0.0,0.0,0.0,0.0,0.0,0.0,0.0,0.0,0.0,0.0,0.0,0.0,0.0,0.0,0.0,0.0,0.0,0.0,0.0,0.0,0.0,0.0,0.0,0.0,0.0,0.0,0.0,0.0,0.0,0.0,0.0,0.0,0.0,0.0,0.0,0.0,0.0,0.0,0.0,0.0,0.0,0.0,0.0,0.0,0.0,0.0,0.0,0.0,0.0,0.0,0.0,0.0,0.0,0.0,0.0,0.0,0.0,0.0,0.0,0.0,0.0,0.0,2.1114,2.0289,0.0,2.1559,2.1339,2.0352,2.0028,2.0467,2.1842,0.0,0.0,0.0,0.0,0.0,0.0,0.0,0.0,0.0,0.0,0.0,0.0,0.0,0.0,0.0,0.0,0.0,0.0,0.0,0.0,0.0,0.0,0.0,0.0,0.0,0.0,0.0,0.0,0.0,0.0,0.0,0.0,0.0,0.0,0.0,0.0,0.0,0.0,0.0,0.0,0.0,0.0,0.0,0.0,0.0,0.0,0.0,0.0,0.0,0.0,0.0,0.0,0.0,0.0,0.0,0.0,0.0,0.0,0.0,0.0,0.0,0.0,0.0,0.0,0.0,0.0,0.0,0.0,0.0,0.0,0.0,0.0,0.0,0.0,0.0,0.0,0.0,0.0,0.0,0.0,0.0,0.0,0.0,0.0,0.0,0.0,0.0,0.0,0.0,0.0,0.0,0.0,0.0,0.0,0.0,0.0,0.0,0.0,0.0,0.0,0.0,0.0,2.2152,2.0704,1.9797,0.0,2.0641,2.0439,1.9382,1.9563,2.0206,2.1336,0.0,0.0,0.0,0.0,0.0,0.0,0.0,0.0,0.0,0.0,0.0,0.0,0.0,0.0,0.0,0.0,0.0,0.0,0.0,0.0,0.0,0.0,0.0,0.0,0.0,0.0,0.0,0.0,0.0,0.0,0.0,0.0,0.0,0.0,0.0,0.0,0.0,0.0,0.0,0.0,0.0,0.0,0.0,0.0,0.0,0.0,0.0,0.0,0.0,0.0,0.0,0.0,0.0,0.0,0.0,0.0,0.0,0.0,0.0,0.0,0.0,0.0,0.0,0.0,0.0,0.0,0.0,0.0,0.0,0.0,0.0,0.0,0.0,0.0,0.0,0.0,0.0,0.0,0.0,0.0,0.0,0.0,0.0,0.0,0.0,0.0,0.0,0.0,0.0,0.0,0.0,0.0,0.0,0.0,0.0,0.0,0.0,0.0,0.0,0.0,0.0,0.0,2.2002,1.9201,1.7714,1.9332,1.8838,1.8398,1.8398,1.9258,2.0238,0.0,0.0,0.0,0.0,0.0,0.0,0.0,0.0,0.0,0.0,0.0,0.0,0.0,0.0,0.0,0.0,0.0,0.0,0.0,0.0,0.0,0.0,0.0,0.0,0.0,0.0,0.0,0.0,0.0,0.0,0.0,0.0,0.0,0.0,0.0,0.0,0.0,0.0,0.0,0.0,0.0,0.0,0.0,0.0,0.0,0.0,0.0,0.0,0.0,0.0,0.0,0.0,0.0,0.0,0.0,0.0,0.0,0.0,0.0,0.0,0.0,0.0,0.0,0.0,0.0,0.0,0.0,0.0,0.0,0.0,0.0,0.0,0.0,0.0,0.0,0.0,0.0,0.0,0.0,0.0,0.0,0.0,0.0,0.0,0.0,0.0,0.0,0.0,0.0,0.0,0.0,0.0,0.0,0.0,0.0,0.0,0.0,0.0,0.0,0.0,0.0,0.0,0.0,2.2002,1.9136,1.7582,1.9184,1.9158,1.8804,1.8232,1.8953,1.995,2.1116,0.0,0.0,0.0,0.0,0.0,0.0,0.0,0.0,0.0,0.0,0.0,0.0,0.0,0.0,0.0,0.0,0.0,0.0,0.0,0.0,0.0,0.0,0.0,0.0,0.0,0.0,0.0,0.0,0.0,0.0,0.0,0.0,0.0,0.0,0.0,0.0,0.0,0.0,0.0,0.0,0.0,0.0,0.0,0.0,0.0,0.0,0.0,0.0,0.0,0.0,0.0,0.0,0.0,0.0,0.0,0.0,0.0,0.0,0.0,0.0,0.0,0.0,0.0,0.0,0.0,0.0,0.0,0.0,0.0,0.0,0.0,0.0,0.0,0.0,0.0,0.0,0.0,0.0,0.0,0.0,0.0,0.0,0.0,0.0,0.0,0.0,0.0,0.0,0.0,0.0,0.0,0.0,0.0,0.0,0.0,0.0,0.0,0.0,0.0,0.0,0.0,0.0,2.2002,1.9095,1.7513,1.9124,1.9014,1.8629,1.8151,1.8507,1.9267,2.0443,0.0,0.0,0.0,0.0,0.0,0.0,0.0,0.0,0.0,0.0,0.0,0.0,0.0,0.0,0.0,0.0,0.0,0.0,0.0,0.0,0.0,0.0,0.0,0.0,0.0,0.0,0.0,0.0,0.0,0.0,0.0,0.0,0.0,0.0,0.0,0.0,0.0,0.0,0.0,0.0,0.0,0.0,0.0,0.0,0.0,0.0,0.0,0.0,0.0,0.0,0.0,0.0,0.0,0.0,0.0,0.0,0.0,0.0,0.0,0.0,0.0,0.0,0.0,0.0,0.0,0.0,0.0,0.0,0.0,0.0,0.0,0.0,0.0,0.0,0.0,0.0,0.0,0.0,0.0,0.0,0.0,0.0,0.0,0.0,0.0,0.0,0.0,0.0,0.0,0.0,0.0,0.0,0.0,0.0,0.0,0.0,0.0,0.0,0.0,0.0,0.0,0.0,2.1988,1.9156,1.7591,1.9124,1.8632,1.8196,1.821,1.8136,1.8548,1.9612,0.0,0.0,0.0,0.0,0.0,0.0,0.0,0.0,0.0,0.0,0.0,0.0,0.0,0.0,0.0,0.0,0.0,0.0,0.0,0.0,0.0,0.0,0.0,0.0,0.0,0.0,0.0,0.0,0.0,0.0,0.0,0.0,0.0,0.0,0.0,0.0,0.0,0.0,0.0,0.0,0.0,0.0,0.0,0.0,0.0,0.0,0.0,0.0,0.0,0.0,0.0,0.0,0.0,0.0,0.0,0.0,0.0,0.0,0.0,0.0,2.0556,2.0964,0.0,0.0,0.0,0.0,0.0,0.0,0.0,0.0,0.0,0.0,0.0,0.0,0.0,0.0,0.0,0.0,0.0,0.0,0.0,0.0,0.0,0.0,0.0,0.0,0.0,0.0,0.0,0.0,0.0,0.0,0.0,0.0,0.0,0.0,0.0,0.0,0.0,0.0,0.0,0.0,2.205,1.9571,1.8112,1.9164,1.9052,1.8915,1.8961,1.8897,1.9289,2.0243,2.0643,0.0,0.0,0.0,0.0,0.0,0.0,0.0,0.0,0.0,0.0,0.0,0.0,0.0,0.0,0.0,0.0,0.0,0.0,0.0,0.0,0.0,0.0,0.0,0.0,0.0,0.0,0.0,0.0,0.0,0.0,0.0,0.0,0.0,0.0,0.0,0.0,0.0,0.0,0.0,0.0,0.0,0.0,0.0,0.0,0.0,0.0,0.0,0.0,0.0,0.0,0.0,0.0,0.0,0.0,0.0,0.0,0.0,0.0,0.0,2.1253,2.13,0.0,0.0,0.0,0.0,0.0,0.0,0.0,0.0,0.0,0.0,0.0,0.0,0.0,0.0,0.0,0.0,0.0,0.0,0.0,0.0,0.0,0.0,0.0,0.0,0.0,0.0,0.0,0.0,0.0,0.0,0.0,0.0,0.0,0.0,0.0,0.0,0.0,0.0,0.0,0.0,2.1909,1.9614,1.8279,1.9109,1.9168,1.9153,1.9153,1.9052,1.9214,1.9696,2.0545,0.0,0.0,0.0,0.0,0.0,0.0,0.0,0.0,0.0,0.0,0.0,0.0,0.0,0.0,0.0,0.0,0.0,0.0,0.0,0.0,0.0,0.0,0.0,0.0,0.0,0.0,0.0,0.0,0.0,0.0,0.0,0.0,0.0,0.0,0.0,0.0,0.0,0.0,0.0,0.0,0.0,0.0,0.0,0.0,0.0,0.0,0.0,0.0,0.0,0.0,0.0,0.0,0.0,2.3087,2.3125,2.3675,2.3704,2.3377,2.2685,2.2076,2.1857,2.1934,2.2836,0.0,0.0,0.0,0.0,0.0,0.0,0.0,0.0,0.0,0.0,0.0,0.0,0.0,0.0,0.0,0.0,0.0,0.0,0.0,0.0,0.0,0.0,2.3943,2.353,2.3422,2.3486,2.3873,0.0,0.0,0.0,0.0,0.0,0.0,0.0,0.0,0.0,0.0,0.0,2.1507,1.9508,1.8361,1.9014,1.912,1.9175,1.9269,1.9164,1.9147,1.9291,2.0662,2.1516,0.0,0.0,0.0,0.0,0.0,0.0,0.0,0.0,0.0,0.0,0.0,0.0,0.0,0.0,0.0,0.0,0.0,0.0,0.0,0.0,0.0,0.0,0.0,0.0,0.0,0.0,0.0,0.0,0.0,0.0,0.0,0.0,1.6853,1.7134,0.0,0.0,0.0,0.0,0.0,0.0,0.0,0.0,0.0,0.0,0.0,0.0,0.0,2.2156,2.2086,2.2064,2.2117,2.2255,2.2171,2.1904,2.1532,2.2329,2.2262,2.1526,2.1551,0.0,2.2592,2.2776,0.0,0.0,0.0,0.0,0.0,0.0,0.0,0.0,0.0,0.0,0.0,0.0,0.0,0.0,0.0,0.0,0.0,0.0,0.0,0.0,0.0,0.0,2.4017,2.2979,2.3258,2.3534,2.2816,2.2982,2.3257,2.3279,2.3279,2.3653,0.0,0.0,0.0,0.0,0.0,0.0,2.0668,1.9416,1.8681,1.907,1.8949,1.9165,1.9902,1.9899,2.0128,2.0771,2.0862,2.1288,2.2171,2.2455,0.0,0.0,0.0,0.0,0.0,0.0,0.0,0.0,0.0,0.0,0.0,0.0,0.0,0.0,0.0,0.0,0.0,0.0,0.0,0.0,0.0,0.0,0.0,0.0,0.0,0.0,0.0,0.0,0.0,1.7346,1.7517,1.7876,1.799,1.8421,0.0,0.0,0.0,0.0,0.0,0.0,0.0,0.0,0.0,2.1683,2.2277,2.25,2.2352,2.2036,2.2125,2.267,2.223,2.2162,2.2464,2.2883,2.2912,2.2653,2.2697,2.2937,2.3231,2.2895,2.3127,2.3768,0.0,0.0,0.0,0.0,2.4057,2.4037,2.4037,2.3958,2.3858,2.3941,0.0,0.0,0.0,0.0,0.0,0.0,0.0,2.3852,2.4069,2.414,2.4043,2.3755,2.3493,2.3253,2.3157,2.2584,2.2241,2.2708,2.2825,2.3144,2.4224,0.0,0.0,0.0,0.0,2.1703,2.1143,2.0413,1.999,2.0052,2.0148,2.0347,2.065,2.0527,2.0587,2.0905,2.1108,2.1424,2.1937,2.2452,2.3048,0.0,0.0,0.0,0.0,0.0,0.0,0.0,0.0,0.0,0.0,0.0,0.0,0.0,0.0,0.0,0.0,0.0,0.0,0.0,0.0,0.0,0.0,0.0,0.0,0.0,0.0,0.0,0.0,1.7646,1.7864,1.8405,1.8287,1.8667,0.0,0.0,0.0,0.0,0.0,0.0,2.0473,2.136,2.2136,2.2676,2.2771,2.2794,2.2685,2.2073,2.2167,2.2943,2.2433,2.2588,2.3336,2.3336,2.343,2.3567,2.3804,2.3916,2.3889,2.3247,2.3392,2.4046,2.4121,2.4248,2.4371,2.4275,2.4184,2.4106,2.3886,2.3771,2.3707,2.3678,2.3682,2.371,2.3649,0.0,0.0,0.0,0.0,2.382,2.437,2.4453,2.4406,2.4371,2.3875,2.3423,2.3587,2.272,2.2,2.2468,2.2405,2.2573,2.3638,0.0,0.0,0.0,0.0,2.1996,2.1232,2.0912,2.0767,2.0749,2.1004,2.1215,2.1313,2.1202,2.118,2.1329,2.1562,2.1772,2.1923,2.2486,2.2958,2.33,0.0,0.0,0.0,0.0,0.0,0.0,0.0,0.0,0.0,0.0,0.0,0.0,0.0,0.0,0.0,0.0,0.0,0.0,0.0,0.0,0.0,0.0,0.0,0.0,0.0,0.0,0.0,0.0,0.0,1.8023,1.844,0.0,0.0,0.0,0.0,1.9142,2.0025,2.0837,2.1493,2.2405,2.32,2.3802,2.322,2.2886,2.2886,2.2287,2.2119,2.2358,2.251,2.2703,2.2944,2.2944,2.3045,2.3276,2.4017,2.4477,2.4611,2.3925,2.4046,2.4665,2.4792,2.5311,2.5888,2.5131,2.4843,2.4712,2.3835,2.3517,2.3499,2.3517,2.3383,2.3247,2.3248,2.3236,0.0,0.0,2.4397,2.438,2.4925,2.5304,2.5285,2.4264,2.4346,2.4486,2.3677,2.3448,2.3205,2.2541,2.1826,2.1767,2.303,0.0,2.1691,2.2529,2.1446,2.0444,2.0213,2.0161,2.025,2.0592,2.0749,2.1137,2.1877,2.1948,2.2171,2.2745,2.2468,2.2344,2.2539,2.2405,2.2368,2.2476,2.282,0.0,0.0,0.0,0.0,0.0,0.0,0.0,0.0,0.0,0.0,0.0,0.0,0.0,0.0,0.0,0.0,0.0,0.0,0.0,0.0,0.0,0.0,0.0,0.0,0.0,0.0,0.0,0.0,1.8895,1.9171,0.0,2.0477,2.0457,2.0469,2.0637,2.1219,2.1531,2.1478,2.2229,2.2879,2.3307,2.3187,2.321,2.3424,2.3289,2.3312,2.351,2.3248,2.3226,2.3411,2.305,2.2944,2.3055,2.3824,2.4286,2.4541,2.4761,2.5084,2.5408,2.5464,2.5667,2.5857,2.5285,2.5171,2.5204,2.4567,2.4095,2.3726,2.3277,2.307,2.3065,2.3432,2.3501,2.3657,2.433,2.4385,2.4415,2.5214,2.5243,2.5144,2.5376,2.5001,2.4671,2.4806,2.4126,2.3562,2.3705,2.2815,2.1988,2.1979,2.1611,2.1417,2.1731,2.1431,2.1157,2.1081,2.1256,2.1484,2.1661,2.2007,2.2317,2.2566,2.2457,2.2435,2.252,2.2113,2.1911,2.2068,2.2068,2.2096,2.2192,2.2241,2.2583,0.0,0.0,0.0,0.0,0.0,0.0,0.0,0.0,0.0,0.0,0.0,0.0,0.0,0.0,0.0,0.0,0.0,0.0,0.0,0.0,0.0,0.0,0.0,0.0,0.0,0.0,1.9061,2.0035,2.0271,2.0754,2.1734,2.1515,2.1545,2.2049,2.2301,2.2401,2.2324,2.3072,2.3507,2.3554,2.3708,2.3799,2.3821,2.3817,2.3902,2.4031,2.3723,2.3624,2.3757,2.3409,2.3271,2.3378,2.4144,2.4642,2.5005,2.5701,2.6083,2.6259,2.6136,2.6312,2.6534,2.593,2.5842,2.5915,2.5262,2.4733,2.4274,2.3717,2.3534,2.3594,2.3887,2.3984,2.4108,2.4706,2.477,2.4874,2.5745,2.5613,2.5415,2.6054,2.5504,2.5001,2.5503,2.4871,2.4256,2.445,2.3349,2.2362,2.234,2.2125,2.2087,2.2532,2.2731,2.2807,2.2807,2.2659,2.2632,2.2798,2.2754,2.2669,2.2624,2.2902,2.2814,2.2237,2.2216,2.2119,2.1797,2.2204,2.2449,2.2461,2.2829,2.3251,2.3706,0.0,0.0,0.0,0.0,0.0,0.0,0.0,0.0,0.0,0.0,0.0,0.0,0.0,0.0,0.0,0.0,0.0,0.0,0.0,0.0,0.0,0.0,0.0,1.9996,1.9782,2.0034,2.1311,2.177,2.1946,2.1946,2.2149,2.2527,2.3187,2.3185,2.3442,2.4109,2.5006,2.5237,2.4667,2.4902,2.4712,2.4068,2.3851,2.3768,2.3768,2.3885,2.3951,2.3951,2.3918,2.4032,2.4225,2.5044,2.5639,2.6065,2.6681,2.7087,2.7244,2.6842,2.7303,2.8037,2.7053,2.6808,2.6828,2.5835,2.531,2.5068,2.4849,2.479,2.4761,2.4601,2.4543,2.4712,2.5456,2.5693,2.5879,2.6573,2.6485,2.6239,2.6239,2.5914,2.5616,2.5578,2.5578,2.5405,2.4661,2.3414,2.2818,2.4034,2.365,2.3585,2.4868,2.509,0.0,2.5073,2.4143,2.3545,2.3777,2.2801,2.213,2.2158,2.3261,2.3419,2.2061,2.2909,2.2936,2.1814,2.284,2.3351,2.3144,2.4424,2.4804,2.4225,0.0,0.0,0.0,0.0,0.0,0.0,0.0,0.0,0.0,0.0,0.0,0.0,0.0,0.0,0.0,0.0,0.0,0.0,0.0,0.0,0.0,0.0,1.9642,1.9988,2.0673,2.1541,2.2509,2.3141,2.349,2.349,2.3669,2.3966,2.4345,2.4528,2.479,2.5183,2.5409,2.5606,2.5676,2.5528,2.5475,2.5528,2.5244,2.509,2.5074,2.4713,2.4572,2.4556,2.4099,2.3935,2.4066,2.5361,2.6066,2.6454,2.7687,2.8439,2.8663,2.7353,2.702,2.7158,2.6568,2.6269,2.6118,2.541,2.5173,2.512,2.4376,2.4334,2.4638,2.4974,2.5562,2.6251,2.6996,2.7516,2.7916,2.8262,2.7568,2.6801,2.6965,2.6274,2.5524,2.5278,2.5448,2.5476,2.5006,2.4201,2.3414,2.3014,2.2325,2.196,2.2325,2.2822,0.0,2.2455,2.258,2.2917,2.3517,2.303,2.2841,2.3243,2.3214,2.2781,2.1757,2.1842,2.1751,2.145,2.1751,2.1864,2.1833,2.2325,2.2492,0.0,0.0,0.0,0.0,0.0,0.0,0.0,0.0,0.0,0.0,0.0,0.0,0.0,0.0,0.0,0.0,0.0,0.0,0.0,0.0,0.0,0.0,2.0483,2.0969,2.1346,2.1962,2.2615,2.3442,2.4118,2.4498,2.4498,2.4674,2.5027,2.5553,2.5599,2.5745,2.6019,2.6288,2.6264,2.5879,2.6121,2.629,2.6335,2.6302,2.6349,2.649,2.6146,2.6026,2.601,2.5644,2.5484,2.5533,2.6405,2.69,2.7171,2.7976,2.8498,2.8733,0.0,0.0,0.0,0.0,2.6852,2.6156,2.6112,2.6165,2.6149,2.5491,2.573,2.6269,2.648,2.7004,2.7582,2.802,2.8474,2.8864,2.8975,2.8072,2.7151,2.7263,2.6421,2.5486,2.5185,2.5262,2.5278,2.495,2.4342,0.0,2.3028,2.2728,2.2769,2.3308,2.3867,2.4097,2.3664,2.3653,2.3716,2.3837,2.3145,2.2677,2.2677,2.2912,0.0,0.0,0.0,2.2057,2.1917,2.2057,0.0,0.0,0.0,2.2748,2.2401,2.2488,0.0,0.0,2.2862,2.2682,0.0,0.0,0.0,0.0,0.0,0.0,0.0,0.0,0.0,0.0,0.0,0.0,0.0,0.0,0.0,0.0,2.1551,2.2749,2.3573,2.3622,2.3722,2.4221,2.4812,2.5177,2.5177,2.5445,2.5964,2.6857,2.6652,2.6648,2.6931,0.0,0.0,0.0,0.0,2.7011,2.6814,2.7056,2.7364,2.7705,2.7705,2.7705,2.7705,2.7705,2.7705,2.7705,2.7802,2.794,2.8101,2.8078,2.8184,2.8354,2.8538,2.8834,2.9177,2.8948,2.7872,2.6637,2.7339,0.0,0.0,2.7309,2.7848,2.8548,2.8318,2.8483,2.8703,2.8703,2.8921,2.9154,2.9154,2.8323,2.7512,2.7512,2.6667,2.5696,2.5274,2.5243,2.5195,2.4755,2.4238,2.3864,2.3864,2.4026,2.4566,2.5698,2.6218,2.6417,2.6364,2.5729,2.5044,2.4481,0.0,0.0,2.1695,2.2618,2.2742,2.1591,2.2402,2.2775,2.2545,2.2775,2.3224,2.396,2.4159,2.3877,2.3111,2.3028,2.2751,2.2321,2.2017,2.1924,0.0,0.0,0.0,0.0,0.0,0.0,0.0,0.0,0.0,0.0,0.0,0.0,0.0,0.0,0.0,2.2297,2.3085,2.3987,2.5293,2.5958,2.6061,2.5586,2.6076,2.6455,2.6455,2.699,2.7613,2.8233,2.8242,2.8458,2.8996,2.8622,2.8293,2.8023,2.744,2.7241,2.7515,2.7292,2.7364,2.7705,2.7705,0.0,2.7705,2.7705,2.7705,2.7737,2.832,2.8621,2.8744,2.9826,3.0295,3.0178,2.8534,2.7931,2.8033,2.7954,2.7392,2.6749,2.7434,2.7421,2.7104,2.746,2.7951,2.8318,2.8145,2.8619,0.0,2.9258,2.9712,3.0218,3.0218,2.9468,2.8763,2.8763,2.8021,2.6977,2.5831,2.6204,2.6441,2.5253,2.5354,2.563,2.563,2.4089,2.2944,2.3185,2.3803,2.409,2.3797,2.4032,2.4512,2.5126,2.4527,2.3996,2.3739,2.3555,2.2769,2.1151,2.1037,2.1003,2.0952,2.1003,2.1083,2.126,2.1094,2.0926,2.0752,2.0542,2.0487,2.0604,2.1494,2.1905,0.0,0.0,0.0,0.0,0.0,0.0,0.0,0.0,0.0,0.0,0.0,1.9634,0.0,0.0,2.2333,2.3851,2.4647,2.5435,2.6444,2.7331,2.7454,2.6442,2.6905,2.7298,2.7298,2.7579,2.7995,2.844,2.8624,2.8905,2.9347,2.9212,2.9086,2.9086,2.8598,2.8525,2.8891,2.8967,2.9167,2.9499,2.9754,2.9858,2.9858,2.9858,2.9858,2.9874,3.0247,3.0393,3.0457,3.117,3.1507,3.1548,3.0456,2.9323,2.8304,2.8644,2.8109,2.73,2.8012,2.8119,2.8036,2.8208,2.869,2.919,2.9025,2.9353,2.9881,3.026,3.0707,3.1031,3.1031,3.0359,2.955,2.919,2.8388,2.7485,2.6646,2.6698,2.6682,2.5828,2.5773,2.5863,2.5863,2.4847,2.3945,2.3594,2.428,2.4673,2.4113,2.465,2.5086,2.5167,2.4785,2.4332,2.3935,2.3191,2.2208,2.099,2.0646,2.0426,2.0323,2.0426,2.0392,2.01,2.01,2.003,1.9889,1.9889,1.996,2.0115,2.0855,2.1198,0.0,0.0,0.0,0.0,0.0,0.0,0.0,0.0,1.8831,1.8904,2.0343,2.1691,2.2138,2.3339,2.4518,2.5289,2.6264,2.6969,2.7215,2.7991,2.8148,2.713,2.7565,2.7945,2.7945,2.8057,2.8245,2.8568,2.8872,2.9214,2.9481,2.9654,2.9759,2.9759,2.9639,2.9765,3.0075,3.0572,3.0977,3.1291,3.179,3.2012,3.2012,3.2012,3.2012,3.2012,3.2012,3.2093,3.2206,3.206,3.2234,3.2534,3.2449,3.1169,2.9486,3.0157,2.954,2.8517,2.9205,2.9436,2.9466,2.9459,2.9924,3.0528,3.0368,3.0412,3.0658,3.1291,3.1544,3.166,3.166,3.0986,3.0168,2.958,2.877,2.7994,2.754,2.7233,2.6943,2.6488,2.6166,2.5989,2.5989,2.5989,2.5719,2.4881,2.547,2.5834,2.5345,2.5831,2.5955,2.5282,2.5056,2.458,2.3668,2.2521,2.1568,2.0966,2.0556,2.0254,2.003,2.0254,2.0135,1.9726,1.9925,1.994,1.969,2.004,2.0132,2.0045,2.0516,2.0717,1.8709,1.8468,1.8455,1.9828,1.9489,1.9035,0.0,0.0,2.0628,2.0502,2.1771,2.306,2.3644,2.5485,2.6895,2.696,2.7934,2.8477,2.7892,2.792,2.7911,2.7689,2.8212,2.8591,2.8591,2.9083,2.9529,2.9836,3.0185,3.0528,3.0749,3.0547,3.0402,3.0402,2.9864,2.9765,3.0075,3.0572,3.0977,3.1291,3.179,3.2012,3.2012,3.2012,3.2012,3.2012,3.2012,3.2368,3.2919,3.2271,3.2384,3.2999,3.2537,3.2082,3.1656,3.2014,3.1597,3.0991,3.1472,3.1235,3.0781,3.1445,3.1704,3.1816,3.1769,3.1769,3.1832,3.1913,3.1929,3.1976,3.1976,3.1394,3.0781,3.07,3.0134,2.9366,2.8403,2.832,2.8202,2.7271,2.724,2.74,2.74,2.74,2.6931,2.5689,2.5555,2.5756,2.597,2.6388,2.6471,2.6012,2.6262,2.576,2.4079,2.2274,2.1188,2.1059,2.0258,1.9797,1.9762,1.9747,1.9747,1.969,1.9726,1.9726,1.969,2.034,2.0325,1.9777,2.0993,2.1523,1.8424,1.898,1.9677,0.0,2.0571,2.1074,2.1637,2.2161,2.2618,2.2955,2.4099,2.5188,2.5775,2.6856,2.7829,0.0,2.8554,2.8893,2.8907,2.858,2.821,2.7846,2.8001,2.8296,2.8661,2.9251,2.9665,2.9803,3.028,3.0628,3.0747,3.1323,3.1674,3.1674,3.142,3.1327,3.1483,3.1986,3.2206,3.219,3.3061,3.3607,3.3858,3.3858,3.3858,3.3858,3.3858,3.402,3.4279,3.3971,3.4136,3.448,3.3859,3.366,3.3561,3.2741,3.2096,3.173,3.1945,3.1817,3.1607,3.1915,3.2012,3.2012,3.2012,3.2012,3.2093,3.2514,3.2643,3.2643,3.2643,3.2417,3.2077,3.1656,3.1008,3.0364,2.9923,2.9215,2.856,2.8155,2.8145,2.8038,2.7685,2.7904,2.7844,2.6901,2.6752,2.6651,2.6404,2.6687,2.6793,2.6444,2.6188,2.5598,2.439,2.3057,2.2103,2.172,2.1182,2.0857,2.0857,2.0857,2.0857,2.0857,2.0857,2.0857,2.0857,2.1141,2.1141,2.0872,2.144,2.1819,1.8995,1.9978,0.0,2.1202,2.2217,2.3151,2.331,2.3922,2.4524,2.4879,2.5942,2.6969,2.7379,2.8132,2.8797,2.9012,2.9178,2.9273,2.933,2.8675,2.8001,2.7565,2.7355,2.7579,2.8366,2.8998,2.942,2.9602,3.0315,3.0768,3.0904,3.2003,3.2586,3.2512,3.2512,3.2512,3.2512,3.2968,3.326,3.338,3.4162,3.4862,3.5493,3.5493,3.5493,3.5493,3.5493,3.5493,3.5493,3.5493,3.5597,3.5754,3.5249,3.5136,3.5136,3.3988,3.3206,3.2674,3.2579,3.2595,3.2595,3.2595,3.2595,3.2595,3.2595,3.2724,3.2951,3.3275,3.3518,3.3615,3.342,3.3226,3.2951,3.2433,3.1753,3.1218,3.1218,3.0164,2.9262,2.9262,2.9068,2.8652,2.7979,2.8263,2.8368,2.773,2.7625,2.7395,2.6916,2.6998,2.7072,2.6927,2.6215,2.5431,2.4751,2.3769,2.295,2.2321,2.1904,2.1695,2.1695,2.1695,2.1695,2.1695,2.1695,2.1655,2.16,2.1794,2.1779,2.1615,2.1891,2.212,2.1023,0.0,2.2338,2.4055,2.4619,2.4759,2.472,2.5627,2.6244,2.5703,2.6892,2.8045,2.8058,2.9413,3.031,2.9695,3.0086,3.008,2.8886,2.765,2.6863,2.6835,2.6315,2.6441,0.0,2.8352,2.897,2.956,3.0452,3.1171,3.1558,3.2496,3.2818,3.2542,3.2512,3.2512,3.2512,3.2968,3.3737,3.4831,3.4636,3.5134,3.627,3.627,3.627,3.627,3.627,3.627,3.627,3.627,3.627,3.6324,3.6489,3.6437,3.6275,3.6424,3.5611,3.4382,3.4136,3.4036,3.4036,3.4036,3.4036,3.4036,3.4036,3.4538,3.4943,3.4262,3.457,3.4959,3.4262,3.3582,3.308,3.3064,3.2498,3.1979,3.1979,3.1307,3.0729,3.0729,3.009,2.934,2.8682,2.8592,2.8368,2.773,2.7625,2.761,2.7595,2.727,2.7256,2.7641,2.6733,2.5817,2.5144,2.4172,2.3353,2.2724,2.2039,2.1695,2.1695,2.1695,2.1695,2.1695,2.1695,2.156,2.1304,2.1963,2.1963,2.1333,2.2396,2.2659,2.1199,2.2667,2.4203,2.5068,2.5572,2.6135,2.6841,2.6985,2.7007,2.7125,2.7271,2.7547,2.8034,2.8274,2.8557,2.9131,2.9377,2.9448,2.9299,2.8942,2.8212,2.6961,2.7369,0.0,0.0,0.0,0.0,2.9498,3.015,3.0793,3.1587,3.2845,3.3646,3.3814,3.3814,3.3814,3.3814,3.3999,3.4167,3.4398,3.5383,3.6103,3.651,3.6803,3.6967,3.6967,3.6967,3.6967,3.6967,3.6967,3.6967,3.6934,3.6555,3.634,3.6303,3.6393,3.6121,3.5662,3.5558,3.5574,3.5574,3.5574,3.5574,3.5574,3.5574,3.5736,3.5882,3.5639,3.5736,3.5752,3.5007,3.4651,3.436,3.3874,3.3226,3.266,3.2351,3.1473,3.069,3.0402,3.0258,2.9864,2.8786,2.8966,2.8861,2.779,2.7625,2.7625,2.7625,2.753,2.7478,2.7625,2.6529,2.5696,2.547,2.4327,2.3505,2.3295,2.3086,2.2951,2.2951,2.284,2.277,2.277,2.2584,2.2439,2.2353,2.2615,2.26,2.2353,2.2448,2.2503,2.2616,2.4308,2.6035,2.6645,2.7147,2.7476,2.7855,2.7316,2.6828,2.6805,2.6514,2.6477,2.7233,2.7273,2.7437,2.8127,2.8326,2.8382,2.857,2.8422,2.8085,2.7537,2.8001,2.8236,0.0,0.0,0.0,2.9512,3.0443,3.1194,3.17,3.3194,3.4118,3.4267,3.4409,3.4472,3.4472,3.4472,3.4497,3.4469,3.5982,3.6653,3.6603,3.7174,3.7528,3.7695,3.7695,3.7695,3.7695,3.7695,3.7695,3.7663,3.7226,3.7048,3.7048,3.7048,3.7048,3.6983,3.6481,3.6303,3.6303,3.6303,3.6303,3.6303,3.6303,3.6481,3.6627,3.6384,3.6481,3.6497,3.5768,3.559,3.5461,3.5007,3.436,3.3775,3.3457,3.2424,3.1457,3.1111,3.094,3.0537,2.946,2.925,2.8936,2.8068,2.7934,2.7934,2.7934,2.7775,2.7715,2.7919,2.6961,2.6213,2.5974,2.4956,2.4223,2.3984,2.3729,2.3551,2.348,2.3363,2.3275,2.3172,2.2844,2.2663,2.2572,2.242,2.236,2.236,2.1988,2.1955,2.5182,2.6414,2.7777,2.8623,2.8944,2.8684,2.768,2.6737,2.5791,2.4896,2.4748,2.5007,0.0,0.0,2.6976,2.6967,2.7144,2.7193,2.699,2.6554,2.6863,0.0,0.0,0.0,0.0,0.0,0.0,2.9575,0.0,3.2238,3.2054,3.3532,3.4243,3.3927,3.4312,3.4532,3.4532,3.4532,3.4768,3.5125,3.6291,3.6742,3.661,3.7324,3.7934,3.8335,3.8335,3.8391,3.8391,3.8391,3.8391,3.8391,3.8391,3.8391,3.8391,3.8391,3.8391,3.8213,3.6869,3.6416,3.6416,3.6416,3.6416,3.6416,3.6416,3.6853,3.7242,3.6594,3.6886,3.7226,3.6546,3.6367,3.6351,3.6319,3.5768,3.5234,3.5185,3.398,3.2834,3.2803,3.2018,3.127,3.0612,2.9475,2.8652,2.8652,2.8652,2.8637,2.8607,2.8053,2.7919,2.8532,2.7979,2.7355,2.6647,2.5989,2.5345,2.4672,2.4014,2.3569,2.3364,2.3319,2.3171,2.2886,2.252,2.224,2.2033,2.163,2.141,2.141,2.1104,2.114,2.5549,2.676,2.8176,2.8492,2.8021,2.7267,2.659,2.5629,2.4745,2.4116,2.4113,2.4475,0.0,0.0,0.0,2.7573,2.7928,0.0,2.9397,3.0249,0.0,3.0108,0.0,3.0333,2.9668,3.0174,0.0,0.0,3.0446,3.1171,3.2587,3.3493,3.4041,3.4301,3.4618,3.4815,3.4815,3.5106,3.5299,3.5428,3.6056,3.6338,3.6307,3.6843,3.7358,3.7876,3.7876,3.8049,3.8391,3.8391,3.8391,3.8391,3.8391,3.8391,3.8391,3.8391,3.8391,3.8359,3.7987,3.7857,3.7857,3.7857,3.7857,3.7857,3.7857,3.7987,3.8084,3.7922,3.7987,3.7954,3.7242,3.7064,3.6934,3.6432,3.6157,3.5743,3.4846,3.4092,3.3388,3.249,3.1485,3.0717,3.0537,2.9849,2.934,2.934,2.934,2.9146,2.8667,2.8876,2.8951,2.8637,2.7979,2.7355,2.6647,2.5989,2.554,2.5375,2.4684,2.425,2.4202,2.3491,2.3041,2.299,2.2712,2.2571,2.2533,2.1961,2.1683,2.1683,2.0906,2.0759,2.632,2.7416,2.8594,2.8518,2.7861,2.6974,2.6122,2.4966,2.3857,2.3247,2.3216,0.0,2.3885,0.0,0.0,0.0,0.0,0.0,2.8801,3.0011,3.0793,0.0,3.1034,0.0,3.0497,3.0636,3.0851,0.0,3.1264,3.1792,3.2642,3.3374,3.3908,3.4128,3.4467,3.4735,3.4935,3.5294,3.5504,3.5504,3.5797,3.6022,3.6211,3.6492,3.686,3.7358,3.7358,3.761,3.8107,3.8107,3.8221,3.8391,3.8391,3.8391,3.8391,3.8391,3.8391,3.8391,3.8391,3.8391,3.8391,3.8391,3.8391,3.8391,3.8391,3.8391,3.8391,3.8391,3.8391,3.8311,3.7906,3.7792,3.7695,3.7323,3.6983,3.6573,3.5867,3.4895,3.3756,3.244,3.155,3.0956,3.0956,3.0417,2.9983,2.9983,2.9983,2.9849,2.9475,2.952,2.9445,2.9071,2.8308,2.7637,2.7081,2.6002,2.5423,2.557,2.4576,2.3955,2.3853,2.3289,2.2936,2.2844,2.2564,2.2415,2.2415,2.1654,2.1316,2.1303,2.0528,2.0258,2.718,2.8028,2.8889,2.8359,2.7777,2.7037,2.5615,2.4306,2.3158,2.2469,0.0,2.2607,2.2512,2.3168,2.3733,2.3907,0.0,2.6139,2.721,2.826,2.9576,3.1305,3.0985,3.0811,3.1315,3.049,3.0325,3.1328,3.2417,3.2863,3.2553,3.3279,3.377,3.377,3.4196,3.4549,3.4935,3.5294,3.5504,3.5504,3.5504,3.5748,3.6085,3.6085,3.6383,3.6784,3.6784,3.7118,3.7567,3.7567,3.7801,3.8205,3.8278,3.8278,3.8335,3.8391,3.8391,3.8391,3.8391,3.8391,3.8391,3.8391,3.8391,3.8391,3.8391,3.8391,3.8391,3.8391,3.8391,3.8391,3.8391,3.8391,3.8391,3.8391,3.7922,3.7436,3.7339,3.5915,3.4209,3.2604,3.1989,3.1687,3.1554,3.1046,3.0642,3.0642,3.0642,3.0642,3.0571,3.0163,2.9774,2.954,2.8842,2.8068,2.7533,2.6096,2.5351,2.5543,2.4295,2.3443,2.3178,2.3058,2.291,2.2747,2.2431,2.221,2.221,2.1243,2.0869,2.092,2.0137,1.9849,2.7267,2.7941,2.8362,2.7195,2.634,2.548,2.4156,2.3223,0.0,0.0,2.2878,2.3263,2.3072,2.363,2.4349,2.5071,0.0,0.0,0.0,0.0,3.0619,0.0,0.0,0.0,0.0,0.0,0.0,0.0,3.1429,3.2218,3.3101,3.3325,3.3507,3.377,3.4196,3.4549,3.4935,3.5294,3.5504,3.5504,3.5504,3.5569,3.5619,3.5619,3.5846,3.6321,3.6321,0.0,3.7027,3.7027,3.7087,3.7207,3.7626,3.7817,3.7876,3.8278,3.8391,3.8391,3.8391,3.8391,3.8391,3.8391,3.8391,3.8391,3.8391,3.8391,3.8391,3.8391,3.8391,3.8391,3.8391,3.8391,3.8391,3.8391,3.8311,3.8051,3.7452,3.63,3.4936,3.3336,3.2986,3.2588,3.1672,3.1377,3.136,3.136,3.136,3.123,3.0968,3.1068,3.0663,2.9341,2.9064,2.8395,2.6995,2.6289,2.5966,2.6005,2.4804,2.4089,2.4089,2.3412,2.3073,2.3014,2.2968,2.2908,2.2908,2.1901,2.1581,2.1995,2.0501,2.0062,2.7345,2.7936,2.8363,2.7117,2.6077,2.5095,2.4124,0.0,0.0,0.0,2.2893,2.3307,2.3087,0.0,0.0,0.0,0.0,0.0,0.0,0.0,0.0,0.0,0.0,0.0,0.0,0.0,0.0,3.0607,3.0833,3.1429,3.2345,3.2646,3.3086,3.3507,3.4074,3.4481,3.4668,3.5228,3.5504,3.5504,3.5504,3.5504,3.5504,3.5504,3.5619,3.5861,3.5861,3.6085,3.6554,3.6554,3.6662,3.6906,3.7163,3.7433,3.77,3.7934,3.8164,3.8391,3.8391,3.8391,3.8391,3.8391,3.8391,3.8391,3.8391,3.8391,3.8391,3.8391,3.8391,3.8391,3.8391,3.8391,3.8391,3.8391,3.8391,3.8197,3.7469,3.6518,3.542,3.4275,3.3689,3.32,3.2602,3.2557,3.2557,3.2557,3.208,3.1723,3.153,3.125,3.0631,2.949,2.8911,2.8274,2.7277,2.6034,2.5342,2.5481,2.431,2.3649,2.3649,2.3305,2.3078,2.3078,2.3078,2.3078,2.3078,2.2309,2.2058,2.2284,2.1192,2.0828,2.7495,2.8092,2.8384,2.7462,2.6159,2.4988,2.4413,2.3016,0.0,0.0,2.2983,2.3231,2.3145,0.0,0.0,0.0,0.0,0.0,0.0,0.0,0.0,0.0,0.0,0.0,0.0,0.0,0.0,3.0406,3.0393,3.0771,3.1442,3.2042,3.2646,3.3086,3.3854,3.4346,3.4414,3.503,3.5439,3.5504,3.5504,3.5504,3.5504,3.5504,3.5504,3.5504,3.5504,3.5748,3.6022,3.6022,3.6258,3.66,3.6723,3.6982,3.7389,3.7642,3.7934,3.8278,3.8351,3.8391,3.8391,3.8391,3.8391,3.8391,3.8391,3.8391,3.8391,3.8391,3.8391,3.8391,3.8391,3.8391,3.8391,3.8391,3.8391,3.8246,3.7679,3.6899,3.6025,3.5237,3.4467,3.3772,3.3514,3.3499,3.3499,3.3499,3.2792,3.2149,3.1955,3.1197,3.0404,2.9664,2.8914,2.8097,2.7396,2.5725,2.47,2.4641,2.3695,2.3078,2.3078,2.3078,2.3078,2.3078,2.3078,2.3078,2.3078,2.2585,2.2314,2.2368,2.1681,2.1431,2.7694,2.8353,2.8487,2.7461,2.5791,2.4445,2.4379,0.0,0.0,2.3935,2.367,2.3369,2.38,2.3606,2.3545,0.0,0.0,2.5375,0.0,0.0,0.0,0.0,0.0,0.0,0.0,0.0,0.0,2.9856,2.9856,3.0368,3.1442,3.2042,3.2417,3.2489,3.3353,3.4059,3.4414,3.4735,3.5148,3.5504,3.5504,3.5504,3.5504,3.5504,3.5504,3.5504,3.5504,3.5504,3.5554,3.5554,3.5554,3.5683,3.6085,3.6321,3.6461,3.7389,3.77,3.7817,3.8221,3.8391,3.8391,3.8391,3.8391,3.8391,3.8391,3.8391,3.8391,3.8391,3.8391,3.8391,3.8391,3.8391,3.8391,3.8391,3.8391,3.8375,3.8311,3.7895,3.7191,3.6041,3.5382,3.4744,3.3651,3.3499,3.3499,3.3499,3.3131,3.257,3.1722,3.1267,3.062,2.9713,2.9274,2.8363,2.639,2.5716,2.4978,2.3943,2.3412,2.3078,2.3078,2.3078,2.3078,2.3078,2.3078,2.3078,2.3078,2.2585,2.2409,2.264,2.1522,2.1116,2.6833,2.7741,2.8103,2.7403,2.5384,2.3815,2.4688,0.0,2.1743,2.3199,2.3138,2.3069,2.3811,2.3844,2.403,2.4937,2.4472,2.467,0.0,0.0,0.0,0.0,0.0,0.0,0.0,0.0,2.9792,2.9792,2.9792,3.0011,3.0432,3.1009,3.1516,3.1809,3.2832,3.3409,3.3563,3.4249,3.4802,3.5148,3.5148,3.5294,3.5504,3.5504,3.5504,3.5504,3.5504,3.5504,3.5504,3.5504,3.5504,3.5504,3.5683,3.5973,3.6258,3.6997,3.7433,3.7759,3.8221,3.8391,3.8391,3.8391,3.8391,3.8391,3.8391,3.8391,3.8391,3.8391,3.8391,3.8391,3.8391,3.8391,3.8391,3.8391,3.8391,3.8335,3.8049,3.7551,3.6964,3.6199,3.5689,3.5266,3.4741,3.4696,3.4696,3.4696,3.3908,3.3039,3.2242,3.1317,3.0404,2.9673,2.9177,2.8398,2.722,2.6117,2.5103,2.4261,2.3531,2.3078,2.3078,2.3078,2.3078,2.3078,2.3078,2.3078,2.3078,2.2419,2.2116,2.2199,2.1205,2.0804,2.6171,2.714,2.7673,2.7324,2.5242,2.3603,0.0,0.0,2.147,2.259,2.2639,2.272,2.3293,2.3478,2.3919,2.504,2.4547,2.4678,2.644,0.0,0.0,0.0,0.0,0.0,0.0,3.0012,2.9792,2.9792,2.9792,2.9792,2.9792,3.0126,3.062,3.1206,3.2101,3.269,3.2988,3.3632,3.4317,3.4935,3.4935,3.5082,3.5504,3.5504,3.5504,3.5504,3.5504,3.5504,3.5504,3.5504,3.5504,3.5504,3.5504,3.5668,3.6085,3.6662,3.7163,3.7551,3.8164,3.8391,3.8391,3.8391,3.8391,3.8391,3.8391,3.8391,3.8391,3.8391,3.8391,3.8391,3.8391,3.8391,3.8391,3.8391,3.8391,3.8278,3.7817,3.7298,3.6784,3.6321,3.5797,3.5504,3.5504,3.5504,3.5504,3.5504,3.4501,3.3441,3.2585,3.1518,3.0502,2.9701,2.9223,2.8657,2.7907,2.6557,2.5428,2.4641,2.3633,2.3078,2.3078,2.3078,2.3078,2.3078,2.3078,2.3078,2.2969,2.2261,2.1815,2.1577,2.0794,2.0333,2.5859,2.6761,2.7103,2.7198,2.5493,2.3898,0.0,0.0,2.2353,2.2552,2.2443,2.2324,2.2331,2.2452,2.2889,2.3962,2.4836,2.5887,2.7373,0.0,0.0,0.0,0.0,0.0,0.0,2.9751,2.9792,2.9792,2.9792,0.0,2.9792,2.9792,3.0062,3.0607,3.1206,3.2028,3.2988,3.2988,3.3687,3.4935,3.4935,3.5082,3.5504,3.5504,3.5504,3.5504,3.5504,3.5504,3.5504,3.5504,3.5504,3.5504,3.5504,3.5504,3.5619,3.6554,3.689,3.7027,3.8017,3.8391,3.8391,3.8391,3.8391,3.8391,3.8391,3.8391,3.8391,3.8391,3.8391,3.8391,3.8391,3.8391,3.8391,3.8391,3.8391,3.8278,3.7817,3.7298,3.6784,3.6321,3.5797,3.5504,3.5504,3.5504,3.5504,3.5504,3.4883,3.3935,3.2629,3.1917,3.0993,2.9743,2.9602,2.9149,2.8078,2.6985,2.5906,2.4827,2.373,2.3078,2.3078,2.3078,2.3078,2.3078,2.3078,2.2969,2.269,2.2149,2.1577,2.0903,2.0366,1.9649,2.3592,2.4159,2.4541,2.4775,2.3349,2.2143,2.3176,0.0,2.1666,2.1538,2.1759,2.1865,2.1491,2.1872,2.26,2.3705,2.4553,2.5201,0.0,0.0,0.0,0.0,0.0,0.0,0.0,0.0,2.9792,2.9792,2.9792,2.9792,2.9792,3.0165,3.0228,3.0062,3.0633,3.1057,3.1355,3.2461,3.3325,3.3934,3.4572,3.5082,3.5504,3.5504,3.5504,3.5504,3.5504,3.5504,3.5504,3.5504,3.5504,3.5504,3.5504,3.5683,3.6022,3.6662,3.7103,3.7551,3.8164,3.8391,3.8391,3.8391,3.8391,3.8391,3.8391,3.8391,3.8391,3.8391,3.8391,3.8391,3.8391,3.8391,3.8391,3.8391,3.8391,3.8278,3.7817,3.7298,3.6784,3.6321,3.5797,3.5504,3.5504,3.5504,3.5504,3.5504,3.5082,3.42,3.2693,3.2098,3.1253,2.9743,2.9275,2.876,2.8016,2.7301,2.6343,2.4819,2.4111,2.3552,2.309,2.3078,2.3078,2.3078,2.3078,2.2763,2.2149,2.1365,2.0279,1.8931,1.8731,1.8539,0.0,2.2561,2.2868,2.3129,2.2228,0.0,0.0,0.0,2.1076,2.0595,2.0941,2.1081,2.0482,2.1212,2.2201,2.3056,2.4092,2.4883,0.0,0.0,0.0,0.0,0.0,0.0,0.0,3.0712,3.0369,3.0139,3.0279,3.0369,3.0139,3.0657,3.0807,3.0432,3.0771,3.1057,3.1281,3.239,3.3255,3.3879,3.4572,3.5082,3.5504,3.5504,3.5504,3.5504,3.5504,3.5504,0.0,3.5504,3.5504,3.5504,3.5504,3.5683,3.6037,3.6662,3.7103,3.7492,3.8164,3.8391,3.8391,3.8391,3.8391,3.8391,3.8391,3.8391,3.8391,3.8391,3.8391,3.8391,3.8391,3.8391,3.8391,3.8391,3.8391,3.8221,3.7551,3.7163,3.6723,3.6085,3.5668,3.5504,3.5504,3.5504,3.5504,3.5504,3.5148,3.4486,3.3235,3.2436,3.1539,3.0297,2.9334,2.8607,2.8021,2.7285,2.6461,2.5441,2.4531,2.3841,2.3477,2.3251,2.3078,2.3078,2.2823,2.2322,2.169,2.0537,1.9243,1.8008,1.8008,1.8008,0.0,2.1622,0.0,0.0,0.0,0.0,0.0,0.0,0.0,1.9824,2.0079,2.0194,1.9478,2.0644,2.1783,2.214,2.3504,0.0,0.0,0.0,0.0,0.0,0.0,0.0,3.1746,3.1575,3.1179,3.0633,3.1153,3.1254,3.062,3.1206,3.1576,3.1576,3.1589,3.1882,3.2345,3.2775,3.3409,3.4346,3.4735,3.5082,3.5439,3.5504,3.5504,3.5504,3.5504,3.5504,3.5504,3.5504,3.5504,3.5504,3.5504,3.5569,3.5683,3.6554,3.6966,3.7147,3.8091,3.8391,3.8391,3.8391,3.8391,3.8391,3.8391,3.8391,3.8391,3.8391,3.8391,3.8391,3.8391,3.8391,3.8391,3.8391,3.8391,3.8148,3.7147,3.6906,3.66,3.5748,3.5504,3.5504,3.5504,3.5504,3.5504,3.5504,3.5148,3.4684,3.3991,3.2796,3.173,3.101,2.9591,2.8568,2.8075,2.7061,2.6427,2.6323,2.4874,2.4042,2.4004,2.3378,2.3078,2.3078,2.2199,2.1577,2.1308,1.9637,1.8542,1.8105,1.8066,1.8057,1.915,0.0,1.9696,2.002,1.9792,1.9518,0.0,0.0,0.0,0.0,0.0,2.0342,2.0064,2.0813,2.1658,2.22,2.3128,0.0,0.0,0.0,0.0,0.0,0.0,3.0212,3.0307,3.0603,3.0596,2.9998,3.0898,3.1259,3.0607,3.1589,3.2187,3.2187,3.2646,3.2489,3.1736,3.2547,3.3129,3.3339,3.4385,3.4935,3.5067,3.5359,3.5504,3.5504,3.5504,3.5504,3.5504,3.5504,3.5504,3.5504,3.5504,3.591,3.6616,3.6845,3.7401,3.8091,3.8335,3.8391,3.8391,3.8391,3.8391,3.8391,3.8391,3.8391,3.8391,3.8391,3.8391,3.8391,3.8391,3.8391,3.8391,3.8391,3.8391,3.8221,3.7626,3.7163,3.6723,3.6148,3.5733,3.5504,3.5504,3.5504,3.5504,3.5504,3.5148,3.4376,3.3039,3.2313,3.1338,2.9504,2.8644,2.7961,2.7424,2.7191,2.6642,2.5823,2.5048,2.4443,2.4017,2.3207,2.28,2.28,2.1313,2.0456,2.0285,1.916,1.8803,1.8984,1.8643,1.8486,1.8214,1.8436,1.8707,1.9026,1.8874,1.876,0.0,0.0,0.0,0.0,0.0,0.0,1.9638,0.0,0.0,2.1608,2.2527,0.0,0.0,0.0,0.0,0.0,0.0,2.9933,0.0,3.0677,3.0558,3.0203,3.1272,3.1629,3.1057,3.2187,3.2789,3.2789,3.31,3.3016,3.2345,3.2988,3.3339,3.3409,3.4249,3.4735,3.4935,3.5148,3.5359,3.5504,3.5504,3.5504,3.5504,3.5504,3.5504,3.5504,3.5733,3.6148,3.6616,3.7118,3.761,3.8107,3.8351,3.8391,3.8391,3.8391,3.8391,3.8391,3.8391,3.8391,3.8391,3.8391,3.8391,3.8391,3.8391,3.8391,3.8391,3.8391,3.8221,3.7918,3.7417,3.6921,3.643,3.5973,3.5683,3.5504,3.5504,3.5504,3.5439,3.5228,3.5001,3.4538,3.3507,3.2587,3.1471,3.0049,2.8758,2.7815,2.7276,2.699,2.6642,2.608,2.5473,2.4981,2.4499,2.3325,2.2202,2.1187,2.0215,1.9596,1.9302,1.8834,1.8857,1.9277,1.9043,1.8936,1.7747,1.8044,1.8391,1.8736,1.8644,1.8503,1.8707,0.0,0.0,0.0,0.0,0.0,0.0,0.0,0.0,0.0,0.0,0.0,0.0,0.0,0.0,0.0,0.0,0.0,3.0813,3.0794,3.062,3.0393,3.1522,3.205,3.1516,3.2561,3.3171,3.3326,3.3326,3.3326,3.3326,3.3577,3.3701,3.3716,3.4128,3.4467,3.4721,3.4802,3.5016,3.5294,3.5374,3.5439,3.5439,3.5439,3.5504,3.5569,3.6037,3.6258,3.6445,3.7389,3.7775,3.7876,3.8278,3.8391,3.8391,3.8391,3.8391,3.8391,3.8391,3.8335,3.8278,3.8278,3.8335,3.8391,3.8391,3.8351,3.8278,3.8278,3.7934,3.7433,3.6906,3.6492,3.6085,3.5554,3.5504,3.5504,3.5504,3.5439,3.5294,3.4935,3.4787,3.4624,3.4201,3.2763,3.1583,3.0922,2.908,2.7706,2.7188,2.6728,2.6533,2.6533,2.5925,2.5269,2.4572,2.3132,2.1342,1.9243,1.9306,1.9104,1.874,1.8799,1.9053,1.9482,1.9414,1.9385,1.7282,1.7818,1.8451,1.8719,1.8553,1.8397,1.8592,0.0,0.0,0.0,0.0,0.0,0.0,0.0,0.0,0.0,0.0,0.0,0.0,0.0,0.0,0.0,0.0,2.8536,2.8313,2.9428,2.9922,2.9353,3.0784,3.1603,3.1516,3.2187,3.2789,3.3241,3.3326,3.3326,3.3326,3.3312,3.3382,3.3382,3.3716,3.3908,3.3977,3.4332,3.4481,3.4549,3.4883,3.5001,3.5001,3.5359,3.5504,3.5569,3.6037,3.643,3.6845,3.7508,3.7934,3.8278,3.8408,3.8391,3.8391,3.8391,3.8391,3.8391,3.8391,3.8107,3.7817,3.7817,3.8107,3.8391,3.8391,3.8107,3.7817,3.7817,3.7433,3.6906,3.643,3.6258,3.6085,3.5554,3.5504,3.5504,3.5504,3.5213,3.5001,3.4935,3.4385,3.379,3.3192,3.1811,3.0473,2.9443,2.8157,2.7134,2.6647,2.6584,2.6533,2.6533,2.5667,2.4256,2.2212,2.1093,1.9976,1.8875,1.9233,1.9304,1.9189,1.9541,1.9941,2.0361,1.999,1.9814,1.665,1.706,1.7447,1.7796,1.8262,1.8575,1.8402,0.0,0.0,0.0,0.0,0.0,0.0,0.0,0.0,0.0,0.0,0.0,0.0,0.0,0.0,0.0,0.0,2.7628,2.8071,2.8736,2.9184,2.9131,3.0317,3.0983,3.0983,3.1896,3.2489,3.2789,3.31,3.3326,3.3326,3.3326,3.3326,3.3326,3.3452,3.3646,3.3839,3.3991,3.4196,3.4414,3.4534,3.4601,3.4668,3.4817,3.5016,3.5279,3.5991,3.6523,3.7027,3.7801,3.8221,3.8335,3.8107,3.7992,3.7976,3.7653,3.7594,3.7594,3.7594,3.7417,3.7298,3.7298,3.761,3.7934,3.7653,3.7669,3.7642,3.7373,3.686,3.6492,3.6258,3.6022,3.5668,3.5279,3.5148,3.5148,3.4964,3.475,3.4534,3.4317,3.4045,3.3518,3.2737,3.1474,3.0242,2.9092,2.791,2.704,2.6521,2.6533,2.6396,2.6188,2.5293,2.3886,2.2021,2.1016,2.0027,1.9124,1.9242,1.9407,1.9629,1.9814,2.0137,2.0557,2.0361,2.0264,1.6061,1.6545,1.6898,1.7035,1.7674,1.8211,1.8008,0.0,0.0,0.0,0.0,0.0,0.0,0.0,0.0,0.0,0.0,0.0,0.0,2.5222,2.5678,2.6469,2.6642,2.7035,2.8075,2.8351,2.8669,2.8907,2.9883,3.0417,3.0426,3.1316,3.1857,3.2006,3.2444,3.2807,3.3101,3.3101,3.3185,3.3326,3.3326,3.3452,3.3701,3.3701,3.3854,3.4142,3.421,3.4264,3.4264,3.4481,3.4668,3.4986,3.5961,3.6585,3.6951,3.7711,3.796,3.8033,3.7759,3.7642,3.7492,3.7163,3.7027,3.689,3.689,3.6845,3.6723,3.6723,3.7058,3.7254,3.6966,3.7103,3.7254,3.6845,3.6305,3.5879,3.5879,3.5524,3.5162,3.4868,3.4802,3.4668,3.4414,3.4346,3.4128,3.3839,3.3632,3.3143,3.2297,3.1072,2.9952,2.8911,2.7782,2.6905,2.6521,2.6383,2.6107,2.5606,2.4601,2.3478,2.2176,2.1042,2.0116,1.9297,1.9385,1.959,1.9912,2.0019,2.0244,2.0566,2.0566,2.0566,1.5721,1.6841,1.7809,1.7085,1.6667,0.0,1.7076,1.7543,0.0,0.0,0.0,0.0,0.0,0.0,0.0,0.0,0.0,0.0,2.6795,0.0,2.7082,2.7116,2.7151,2.7185,2.7301,2.803,2.851,2.851,2.939,2.9859,2.9895,2.9943,3.0262,3.0774,3.0829,3.1377,3.2469,3.2469,3.2764,3.3326,3.3326,3.3312,3.3326,3.3326,3.3312,3.3382,3.3716,3.3839,3.3908,3.4587,3.4868,3.5001,3.5879,3.6492,3.689,3.6631,3.6753,3.7087,3.7567,3.7373,3.7027,3.7492,3.7298,3.689,3.689,3.6616,3.6258,3.6258,3.6258,3.6383,3.6784,3.6616,3.6321,3.6258,3.5638,3.4986,3.4986,3.4735,3.4481,3.4414,3.4414,3.4414,3.4414,3.4059,3.3839,3.377,3.3058,3.2283,3.1721,3.0184,2.8898,2.8296,2.722,2.6521,2.6533,2.6188,2.5535,2.4564,2.3541,2.2628,2.1763,2.0265,1.9389,1.9287,1.9668,1.9883,1.9912,2.0322,2.0537,2.0566,2.0566,2.0566,1.5282,1.6342,1.7165,1.6007,0.0,0.0,0.0,0.0,0.0,0.0,0.0,0.0,0.0,0.0,0.0,0.0,0.0,2.5727,2.6622,2.7024,2.7231,2.7231,2.7476,2.7638,2.7638,2.8431,2.8895,2.8895,2.9133,2.924,2.9238,2.9263,2.9399,2.9671,3.0351,3.1062,3.1875,3.2261,3.2707,3.3326,3.3326,3.3326,3.3326,3.3326,3.3326,3.3326,3.3452,3.3521,3.3521,3.3785,3.4196,3.4668,3.5752,3.6492,3.6829,3.6508,3.6508,3.6508,3.6212,3.6087,3.6117,3.6006,3.58,3.5672,3.5672,3.5365,3.5052,3.5052,3.5052,3.5249,3.5831,3.6085,3.607,3.5509,3.5118,3.4868,3.4601,3.4481,3.4346,3.4059,3.377,3.3563,3.373,3.2988,3.2533,3.2832,3.2003,3.1119,3.0546,2.9345,2.8285,2.7717,2.693,2.6533,2.6533,2.6119,2.5465,2.448,2.3514,2.2548,2.1613,2.0621,2.0088,2.0088,2.0234,2.0322,2.0322,2.0478,2.0566,2.0566,2.0566,2.0566,1.4966,1.5874,1.6605,0.0,0.0,0.0,0.0,0.0,0.0,0.0,0.0,0.0,0.0,0.0,0.0,0.0,2.5113,2.5945,2.6611,2.7013,2.7231,2.7394,2.7719,2.7973,2.8042,2.8657,2.9057,2.8885,2.8911,2.8775,2.8423,2.8409,2.846,2.842,2.9169,2.9998,3.0745,3.1515,3.2207,3.2737,3.3157,3.3326,3.3326,3.3326,3.3326,3.3312,3.3115,3.3143,3.3297,3.3028,3.3397,3.4191,3.5225,3.58,3.6087,3.5834,3.577,3.5706,3.524,3.5204,3.5234,3.5037,3.4854,3.4735,3.4735,3.4601,3.4414,3.4414,3.4414,3.4481,3.4802,3.5249,3.5494,3.4854,3.4668,3.452,3.4264,3.4142,3.4005,3.3716,3.3368,3.3157,3.3255,3.2489,3.1882,3.2345,3.1387,3.0487,2.9904,2.8833,2.7902,2.7125,2.6747,2.6465,2.6327,2.5968,2.5312,2.4276,2.3327,2.2456,2.1502,2.0954,2.0566,2.0566,2.0566,2.0566,2.0566,2.0566,2.0566,2.0566,2.0566,2.0566,1.4885,1.5549,0.0,0.0,0.0,0.0,0.0,0.0,0.0,0.0,0.0,0.0,0.0,0.0,0.0,2.4696,2.5401,2.6071,2.7082,2.7219,2.7394,2.78,2.7893,2.803,2.8419,2.8895,2.8897,2.8356,2.8687,2.8436,2.7344,2.7281,2.7284,2.7175,2.7229,2.7785,2.8945,3.0133,3.0993,3.1597,3.2723,3.3312,3.3326,3.3326,3.3326,3.3283,3.2665,3.275,3.3213,3.2364,3.2616,3.3529,3.4153,3.4399,3.4385,3.4399,3.4399,3.4452,3.4912,3.4743,3.4452,3.4912,3.4743,3.4399,3.4385,3.4399,3.4385,3.4332,3.4332,3.4249,3.3659,3.3948,3.4332,3.4414,3.4059,3.377,3.377,3.3507,3.3255,3.3255,3.3255,3.3255,3.3255,3.2789,3.2417,3.2417,3.1355,3.04,2.987,2.8804,2.7682,2.6647,2.6533,2.6327,2.591,2.5535,2.4874,2.3925,2.2979,2.2111,2.1502,2.0954,2.0566,2.0566,2.0566,2.0566,2.0566,2.0566,2.0566,2.0566,2.0566,2.0566,1.4923,1.5546,0.0,0.0,0.0,0.0,0.0,0.0,0.0,0.0,0.0,0.0,0.0,0.0,0.0,2.4325,2.5113,2.6011,2.6974,2.7474,2.7752,2.777,2.8361,2.8524,2.7846,2.8484,2.8724,2.8176,2.7923,2.7632,2.7306,2.6917,2.6766,2.6726,2.704,2.7582,2.8454,2.9173,2.9821,3.0387,3.157,3.2528,3.3326,3.3326,3.3087,3.2665,3.2483,3.2258,3.2005,3.2008,3.2162,3.2522,3.3434,3.3456,3.3108,3.3293,3.3044,3.2672,3.2591,3.2591,3.2723,3.2905,3.2854,3.2657,3.2231,3.1963,3.179,3.1777,3.183,3.1842,3.2037,3.2232,3.2533,3.3269,3.3339,3.3129,3.2917,3.2403,3.2042,3.2042,3.1663,3.1516,3.1955,3.1246,3.0735,3.1071,3.0134,2.9176,2.8705,2.7713,2.712,2.708,2.6482,2.605,2.591,2.5535,2.4874,2.3925,2.3361,2.2553,2.1502,2.0954,2.0566,2.0566,2.0566,2.0566,2.0566,2.0566,2.0566,2.0566,2.0566,2.0566,1.4767,0.0,0.0,0.0,0.0,0.0,0.0,0.0,0.0,0.0,0.0,0.0,2.3239,2.3575,0.0,2.4113,2.4842,2.5643,2.6461,2.6823,2.7073,2.7133,2.7746,2.8056,2.757,2.8176,2.8386,2.7798,2.746,2.7231,2.6967,2.671,2.6533,2.6533,2.6782,2.7152,2.7498,2.8281,2.8831,2.9231,3.0373,3.128,3.1929,3.2626,3.275,3.2398,3.2145,3.1541,3.0783,3.1523,3.1645,3.1474,3.2493,3.2587,3.2155,3.2397,3.2245,3.1801,3.1551,3.1603,3.1801,3.1801,3.1655,3.1429,3.1082,3.0746,3.0405,3.0408,3.0361,3.0423,3.0731,3.0851,3.1146,3.2136,3.239,3.2318,3.2114,3.1736,3.1516,3.1516,3.1206,3.1057,3.1442,3.0709,3.0203,3.0532,2.9834,2.9063,2.8499,2.774,2.7244,2.7306,2.6441,2.5828,2.5688,2.5336,2.4826,2.4093,2.3593,2.3001,2.2252,2.1415,2.0954,2.0954,2.0722,2.0566,2.0566,2.0566,2.0566,2.0566,2.0566,2.0489,0.0,0.0,0.0,0.0,0.0,0.0,0.0,0.0,0.0,0.0,0.0,0.0,2.3738,2.3531,2.3474,2.374,2.4318,2.4922,2.5489,2.5604,2.5681,2.6083,2.6562,2.6902,2.7189,2.7617,2.7673,2.7114,2.7076,2.6851,2.6452,2.6427,2.644,2.6533,2.6533,2.6533,2.6533,2.7498,2.7963,2.7976,2.9082,2.9555,2.9704,3.1392,3.215,3.2066,3.145,3.0527,2.9561,3.0709,3.0834,3.0437,3.1446,3.1608,3.1382,3.1752,3.1608,3.125,3.125,3.1208,3.11,3.11,3.0779,3.0309,3.0296,2.9956,2.9613,2.9664,2.9621,2.9614,2.9572,2.9601,2.9812,3.0797,3.1048,3.1122,3.1196,3.1122,3.1048,3.1048,3.1122,3.1061,3.1127,3.068,3.0392,3.0443,3.005,2.9501,2.8925,2.83,2.7738,2.726,2.6371,2.5618,2.5312,2.4992,2.4574,2.4127,2.3593,2.3298,2.3224,2.2101,2.1502,2.1502,2.0876,2.0566,2.0566,2.0566,2.0566,2.0566,2.0566,2.0255,0.0,0.0,0.0,0.0,0.0,0.0,0.0,0.0,0.0,0.0,0.0,0.0,2.1907,2.2539,2.2983,2.2453,2.2972,2.3634,2.4193,2.4548,2.4726,2.4706,2.5634,2.5938,2.4991,2.5773,2.6074,2.5406,2.5344,2.5438,2.5809,2.5753,2.599,2.6452,2.6533,2.6533,2.6533,2.6439,2.642,2.642,2.6842,2.7246,2.769,2.9608,3.0146,2.97,2.9026,2.8608,2.8392,2.8648,2.8937,2.9242,2.9914,3.0146,3.0066,3.0608,3.021,2.9394,2.9394,2.8835,2.812,2.812,2.7746,2.7323,2.7314,2.7249,2.7246,2.7754,2.7657,2.7485,2.7877,2.7471,2.6986,2.7215,2.7829,2.8482,2.8959,2.8089,2.7427,2.7903,2.799,2.8113,2.8445,2.8442,2.8602,2.9279,2.9052,2.8712,2.8546,2.7463,2.662,2.6384,2.5589,2.5004,2.4921,2.4861,2.4418,2.3519,2.3372,2.3075,2.2628,2.1883,2.1502,2.1502,2.0876,2.0566,2.0566,2.0566,2.0411,2.002,2.002,1.9529,0.0,0.0,0.0,0.0,0.0,0.0,0.0,0.0,0.0,0.0,0.0,2.1621,2.0839,2.1525,2.1903,2.1218,2.168,2.221,2.2494,2.2917,2.3037,2.2831,2.3649,2.3936,2.3121,2.4032,2.4603,2.4221,2.4561,2.4941,2.5165,2.5224,2.5448,2.6038,2.5799,2.5799,2.605,2.545,2.5111,2.5111,2.5087,2.5222,2.5529,2.7829,2.8589,2.797,2.7602,2.7301,2.7118,2.7118,2.7379,2.782,2.8115,2.8319,2.8538,2.9063,2.8593,2.7669,2.7954,2.748,2.681,2.6608,2.6209,2.5762,2.5614,2.5517,2.559,2.5914,2.5825,2.5684,2.6272,2.562,2.4894,2.521,2.5809,2.6502,2.6815,2.6235,2.5889,2.6446,2.6598,2.6681,2.6866,2.6913,2.7085,2.7603,2.7945,2.7999,2.7773,2.7067,2.647,2.6154,2.5301,2.4706,2.4394,2.4189,2.3751,2.2927,2.2852,2.2703,2.2402,2.1807,2.1502,2.1502,2.0876,2.0489,2.0255,2.0255,1.9854,1.9125,1.9125,1.855,0.0,0.0,0.0,0.0,0.0,0.0,0.0,0.0,0.0,0.0,0.0,2.0498,2.0012,2.0429,2.0571,1.992,2.0377,2.0723,2.0649,2.105,2.1135,2.0807,2.1439,2.1849,2.152,2.2557,2.3275,2.338,2.4053,2.4545,2.4595,2.4582,2.4803,2.5303,2.4903,2.4891,2.5315,2.4538,2.4186,2.412,2.3791,2.3544,2.3562,2.5884,2.6696,2.6333,2.6333,2.6133,2.5701,2.5701,2.5922,2.6349,2.6349,2.6542,2.6927,2.7417,2.6993,2.6237,2.6714,2.644,2.5964,2.5566,2.5113,2.4621,2.4389,2.4291,2.429,2.4306,2.4201,2.4198,2.4561,2.3852,2.3147,2.3718,2.415,2.4448,2.4758,2.4681,2.4769,2.5318,2.5539,2.5597,2.5597,2.5666,2.5724,2.5812,2.6546,2.6884,2.6526,2.6292,2.6005,2.5498,2.4795,2.4189,2.3706,2.3361,2.2852,2.2252,2.209,2.1928,2.1852,2.1165,2.0779,2.0779,2.0479,2.0089,1.9618,1.9539,1.8957,1.806,1.806,1.7423,0.0,0.0,0.0,0.0,0.0,0.0,0.0,0.0,0.0,0.0,1.8288,1.8923,1.8862,1.9239,1.9258,1.8429,1.9011,1.9367,1.8982,1.9308,1.9565,1.9578,2.0114,2.0589,2.0812,2.1686,2.2432,2.2775,2.3142,2.3428,2.3667,2.3663,2.3814,2.4008,2.4222,2.4288,2.402,2.3893,2.3592,2.3337,2.3012,2.2578,2.2174,2.3012,2.3665,2.4183,2.4183,2.4147,2.4086,2.4086,2.4402,2.4845,2.4845,2.5167,2.5625,2.5702,2.5574,2.5268,2.5358,2.4912,2.4292,2.3903,2.3455,2.3034,2.3162,2.3216,2.3232,2.3199,2.2981,2.2753,2.2722,2.1932,2.128,2.1776,2.1537,2.1568,2.2993,2.2638,2.2203,2.281,2.3199,2.3468,2.3468,2.3881,2.4309,2.4635,2.4522,2.439,2.4204,2.3842,2.3438,2.2982,2.281,2.2703,2.2628,2.2553,2.2252,2.1655,2.075,2.0032,1.9511,1.8461,1.79,1.79,1.8709,1.8957,1.8541,1.7908,1.7423,1.6935,1.6935,1.6378,0.0,0.0,0.0,0.0,0.0,0.0,0.0,0.0,0.0,1.7407,1.785,1.825,1.8232,1.8437,1.8447,1.8076,1.832,1.8506,1.8311,1.8652,1.8838,1.8603,1.9264,1.9782,1.9913,2.098,2.1851,2.2212,2.2798,2.314,2.3255,2.3294,2.3413,2.3615,2.3218,2.291,2.2898,2.2145,2.1549,2.1249,2.0796,2.0619,2.0687,2.0903,2.1781,2.3203,2.3203,2.3038,2.2768,2.2768,2.3019,2.3397,2.3397,2.3643,2.4064,2.4375,2.405,2.3529,2.3813,2.3515,2.291,2.2585,2.2354,2.2085,2.1655,2.1728,2.1861,2.1587,2.1377,2.1231,2.115,2.0555,2.0102,2.0476,2.0246,2.0127,2.1022,2.0943,2.0803,2.1393,2.1842,2.2164,2.2164,2.2408,2.2621,2.2766,2.3211,2.3367,2.3048,2.3067,2.2892,2.2445,2.2402,2.2166,2.1548,2.1461,2.1155,2.0323,1.9492,1.885,1.863,1.7738,1.7172,1.6935,1.7666,1.7827,1.7415,1.7098,1.6535,1.5816,1.5816,1.5235,0.0,0.0,0.0,0.0,0.0,0.0,0.0,0.0,0.0,0.0,1.7392,1.7666,1.7684,1.7861,1.8008,1.8008,1.8008,1.7969,1.7871,1.8115,1.8154,1.7858,1.859,1.9184,1.9479,2.0662,2.1518,2.1749,2.2615,2.2942,2.266,2.2738,2.28,2.2832,2.2018,2.1546,2.1547,2.0559,1.9924,1.9688,1.9369,1.9369,1.9711,1.9794,2.0692,2.2111,2.2237,2.2076,2.1732,2.1732,2.1916,2.2163,2.2163,2.2291,2.2595,2.2977,2.2707,2.2109,2.2543,2.2435,2.2123,2.1663,2.1526,2.1336,2.0431,2.0435,2.0586,2.0037,1.9879,1.9818,1.9788,1.9471,1.9228,1.9658,1.9512,1.9375,1.9687,1.9756,1.9934,2.0471,2.0858,2.1141,2.1252,2.1272,2.1272,2.1272,2.1922,2.2314,2.198,2.223,2.2303,2.1818,2.1787,2.1395,2.0537,2.0459,2.007,1.9381,1.839,1.79,1.79,1.7009,1.637,1.6049,1.637,1.6453,1.6296,1.6131,1.5643,1.4838,1.4748,1.4237,0.0,0.0,0.0,0.0,0.0,0.0,0.0,0.0,0.0,1.6182,1.6513,1.6768,1.6797,1.7461,1.8008,1.8008,1.8008,1.7871,1.7471,1.7432,1.7471,1.7448,1.794,1.8764,1.9969,2.0848,2.1428,2.1451,2.2454,2.2635,2.1569,2.1736,2.1584,2.1028,2.0807,2.0404,1.9866,1.9784,1.97,1.9688,1.9688,1.9688,1.9711,2.0194,2.0446,2.0561,2.1032,2.129,2.1267,2.1267,2.1267,2.1267,2.1267,2.1267,2.1331,2.129,2.1521,2.1726,2.1749,2.1949,2.2061,2.1221,2.0967,2.0764,1.9933,1.9692,1.9581,1.9039,1.8859,1.8836,1.8705,1.8672,1.8779,1.9219,1.9307,1.9297,1.9316,1.9316,1.9434,1.9834,2.0007,2.0154,2.0566,2.0644,2.0644,2.0644,2.0664,2.0741,2.0722,2.0731,2.0586,2.0098,2.002,1.9854,1.946,1.9381,1.9381,1.9301,1.7755,1.678,1.678,1.5151,1.425,1.425,1.425,1.4587,1.5166,1.4587,1.4166,1.4173,1.3737,1.3483,0.0,0.0,0.0,0.0,0.0,0.0,0.0,0.0,1.6019,1.6137,1.6475,1.6717,1.6684,1.7217,1.7519,1.7236,1.7656,1.7764,1.7061,1.7207,1.7402,1.7377,1.7843,1.8435,1.9149,2.0224,2.0807,2.0535,2.1506,2.1818,2.1231,2.1475,2.1334,2.0712,2.0459,1.9977,1.9254,1.9057,1.8969,1.8969,1.8238,1.801,1.8306,1.8438,1.8718,1.907,2.0198,2.0859,2.1221,2.1221,2.1221,2.1221,2.1221,2.1221,2.1221,2.1221,2.1285,2.1348,2.1348,2.1474,2.1486,2.0764,2.056,2.0366,1.9396,1.9075,1.8942,1.8414,1.8279,1.8309,1.8262,1.8232,1.8271,1.8437,1.8672,1.8789,1.8525,1.8896,1.9248,1.9121,1.9541,1.9873,1.9766,1.9746,1.9834,2.0107,2.0146,2.0177,2.0138,2.0177,2.002,1.9539,1.9539,1.939,1.8922,1.8922,1.8603,1.7942,1.687,1.6139,1.565,1.4664,1.4088,1.4088,1.4088,1.4257,1.4426,1.3906,1.3652,1.3652,1.3137,1.279,1.6144,0.0,0.0,0.0,0.0,0.0,0.0,0.0,1.5464,1.5776,1.5945,1.6063,1.6087,1.656,1.6918,1.6908,1.7521,1.778,1.7039,1.7189,1.7346,1.7207,1.7765,1.824,1.8478,1.9657,2.026,1.9772,2.0746,2.1194,2.0846,2.1083,2.0932,2.0213,1.9934,1.9534,1.9023,1.8732,1.8614,1.8614,1.7689,1.7423,1.7711,1.7737,1.7908,1.8253,1.9242,2.0188,2.0917,2.0962,2.0853,2.0705,2.0504,2.0441,2.0441,2.0642,2.0819,2.0955,2.1158,2.1094,2.0828,2.0313,1.9977,1.9715,1.8808,1.8539,1.8472,1.8076,1.8008,1.8008,1.8008,1.8008,1.8008,1.8008,1.8223,1.835,1.8076,1.8457,1.8818,1.8592,1.9209,1.9619,1.9336,1.9521,1.9756,1.9893,1.9887,1.9928,1.9904,1.9863,1.9784,1.9301,1.9381,1.9311,1.878,1.87,1.8201,1.7139,1.6468,1.5816,1.509,1.4426,1.4088,1.4088,1.4088,1.4088,1.4088,1.3652,1.3398,1.3392,1.279,1.2192,0.0,0.0,0.0,0.0,0.0,0.0,1.4785,0.0,1.4195,1.4914,1.4942,1.4802,1.4821,1.5449,1.6252,1.7165,1.778,1.7888,1.7402,1.736,1.7205,1.6741,1.7578,1.808,1.7975,1.9295,1.9841,1.9121,2.0314,2.0791,2.0198,2.0476,2.0295,1.9429,1.916,1.8983,1.9024,1.8715,1.859,1.859,1.8224,1.8073,1.8107,1.8136,1.8176,1.8129,1.8257,1.9028,2.0316,2.0314,2.0098,1.9603,1.9102,1.8913,1.8987,1.9511,2.0009,2.0431,2.0955,2.0828,2.0302,1.9726,1.9208,1.8674,1.8144,1.8008,1.8008,1.8008,1.8008,1.8008,1.8008,1.8008,1.8008,1.8008,1.8008,1.8008,1.8008,1.8008,1.8135,1.8545,1.8965,1.9268,1.9248,1.9951,2.0371,1.9961,1.988,1.9854,1.9863,1.9863,1.9706,1.9301,1.9618,1.9557,1.878,1.87,1.821,1.7131,1.6468,1.5733,1.509,1.4419,1.4088,1.4088,1.4088,1.4088,1.4088,1.3652,1.3392,1.3392,1.2443,1.1763,1.6552,0.0,0.0,0.0,0.0,0.0,0.0,0.0,1.5126,1.4924,1.5089,1.5139,1.4783,1.5213,1.555,1.5526,1.6675,1.7275,1.6472,1.6948,1.7077,1.6269,1.6718,1.7092,1.7055,1.7894,1.8309,0.0,1.9119,1.9711,1.9361,1.9611,1.9731,1.9668,1.9416,1.9219,1.8983,1.8731,1.8473,1.8319,1.7693,1.745,1.7645,1.7342,1.6976,1.672,1.7434,1.7798,1.7912,1.8599,1.8787,1.87,1.8848,1.8913,1.9019,1.9885,2.0062,1.9922,2.0431,2.0237,1.9726,1.9208,1.8942,1.8674,1.8144,1.8008,1.8008,1.8008,1.8008,1.8008,1.8008,1.8008,1.8008,1.8008,1.8008,1.8008,1.8008,1.8008,1.8047,1.8154,1.8525,1.8721,1.8418,1.8809,1.9093,1.9075,1.9317,1.9378,1.9054,1.9311,1.9143,1.8434,1.8763,1.8772,1.8201,1.7781,1.7123,1.6386,1.5741,1.5082,1.4419,1.4173,1.4088,1.4088,1.4088,1.4088,1.4088,1.3652,1.3222,1.2875,1.194,1.1435,1.6863,1.6565,0.0,0.0,0.0,0.0,1.5513,1.5468,1.5279,0.0,1.5026,1.5159,1.4573,1.5084,1.5463,1.5164,1.5914,1.6407,1.6115,1.6656,1.6785,1.6053,1.6356,1.6517,1.61,1.6831,1.7318,1.733,1.8043,1.86,1.8858,1.888,1.9057,1.9472,1.9095,1.8843,1.8664,1.8387,1.8239,1.8205,1.7474,1.7314,1.7744,1.6716,1.63,1.6382,1.615,1.6162,1.6306,1.6694,1.7176,1.7754,1.7905,1.7955,1.807,1.9116,1.9359,1.9341,1.9857,1.9726,1.9208,1.8875,1.8674,1.8414,1.8076,1.8008,1.8008,1.8008,1.8008,1.8008,1.8008,1.8008,1.8008,1.8008,1.8008,1.8008,1.8008,1.8008,1.8008,1.8008,1.8496,1.8721,1.8115,1.8289,1.854,1.8464,1.8117,1.7982,1.839,1.818,1.8082,1.8264,1.8193,1.8023,1.787,1.7286,1.6542,1.5733,1.5333,1.4838,1.4173,1.4088,1.4088,1.4088,1.4088,1.4088,1.4088,1.3652,1.3052,1.2357,1.1688,1.1262,1.7031,1.6778,1.6479,0.0,1.5957,0.0,1.5901,1.5546,1.5096,0.0,1.4951,1.5119,1.4437,1.5033,1.5623,1.5535,1.5438,1.5523,1.5936,1.6289,1.6318,1.5877,1.6196,1.6162,1.537,1.6022,1.6688,1.7001,1.7078,1.7541,1.8486,1.829,1.8376,1.8833,1.8427,1.8168,1.8103,1.7867,1.7861,1.8025,1.73,1.7338,1.7981,1.6243,1.588,1.6549,1.4844,1.4486,1.5186,1.4902,1.5541,1.6746,1.6671,1.666,1.6772,1.7782,1.8359,1.8736,1.9267,1.91,1.8674,1.8674,1.8414,1.8008,1.8008,1.8008,1.8008,1.8008,1.8008,1.8008,1.8008,1.8008,1.8008,1.8008,1.8008,1.8008,1.8008,1.8008,1.8008,1.8008,1.8623,1.8835,1.8076,1.818,1.8302,1.8037,1.6893,1.6528,1.7735,1.7091,1.6932,1.8247,1.7683,1.735,1.7529,1.687,1.6139,1.5173,1.5006,1.4755,1.4088,1.4088,1.4088,1.4088,1.4088,1.4088,1.4088,1.3652,1.296,1.21,1.1602,1.1365,1.7516,0.0,0.0,0.0,0.0,0.0,1.5412,1.5546,1.568,0.0,1.5437,1.5688,1.5177,1.5268,1.5257,1.4942,1.4689,1.4763,1.5355,1.5603,1.5626,1.5279,1.5409,1.562,1.5722,1.5932,1.6196,1.6676,1.6942,1.7288,1.7703,1.7804,1.7941,1.8031,1.8158,1.7994,1.7539,1.7493,1.7313,1.6931,1.6442,1.6673,1.7455,1.5743,1.5216,1.57,1.4573,1.398,1.3926,1.4531,1.5135,1.5752,1.6086,1.6191,1.6302,1.7286,1.7624,1.7764,1.8287,1.8314,1.8144,1.8144,1.8076,1.8008,1.8008,1.8008,1.8008,1.8008,1.8008,1.8008,1.8008,1.8008,1.8008,1.8008,1.8008,1.8008,1.8008,1.8008,1.8008,1.8008,1.7938,1.7798,1.7636,1.7651,1.7597,1.7153,1.7437,1.7458,1.6909,1.7166,1.7212,1.6706,1.6698,1.6698,1.646,1.5816,1.5333,1.509,1.4587,1.4257,1.4088,1.4088,1.4088,1.4088,1.4088,1.4088,1.4088,1.3652,1.3137,1.2528,1.2106,1.1788,0.0,0.0,0.0,1.6947,0.0,0.0,0.0,1.5932,1.5932,1.5244,1.5647,1.5957,1.54,1.5579,1.5668,1.5164,1.4937,1.4937,1.5243,1.5171,1.5052,1.5074,1.5002,1.5112,1.5487,1.5358,1.5425,1.5806,1.6359,1.674,1.6908,1.6836,1.6979,1.7408,1.7264,1.7109,1.6948,1.6948,1.6819,1.6572,1.5926,1.6049,1.6683,1.4956,1.4511,1.5112,1.4168,1.3945,1.418,1.4609,1.5029,1.5459,1.5889,1.6125,1.6174,1.6854,1.711,1.709,1.7631,1.7784,1.7734,1.7939,1.8008,1.8008,1.8008,1.8008,1.8008,1.8008,1.8008,1.8008,1.8008,1.8008,1.7949,1.7813,1.7872,1.794,1.7813,1.7872,1.8008,1.8008,1.7598,1.7254,1.747,1.7088,1.6775,1.659,1.6459,1.6283,1.6231,1.6158,1.6102,1.6116,1.5643,1.5484,1.5567,1.4999,1.4587,1.4587,1.4257,1.4088,1.4088,1.4088,1.4088,1.4088,1.4088,1.4088,1.4088,1.3828,1.3483,1.3052,1.2357,1.1911,0.0,0.0,0.0,0.0,0.0,1.6951,0.0,0.0,0.0,1.5501,1.5824,0.0,0.0,0.0,0.0,1.57,0.0,0.0,0.0,1.5062,0.0,1.5198,1.4891,1.48,1.5108,1.48,1.4708,1.4971,1.5545,1.5916,1.5951,1.5849,1.6041,1.6711,1.6365,1.6287,1.6436,1.6479,1.6485,1.6428,1.5588,1.5463,1.5875,1.4185,1.3919,1.4746,1.3898,1.3945,1.4668,1.4746,1.498,1.5332,1.5771,1.5998,1.5986,1.6348,1.6533,1.665,1.7012,1.7187,1.7314,1.7656,1.7822,1.7891,1.7891,1.7949,1.8008,1.8008,1.8008,1.8008,1.8008,1.8008,1.794,1.7608,1.7745,1.7803,1.7461,1.7598,1.7803,1.7803,1.7245,1.6908,1.7332,1.667,1.6058,1.6184,1.5518,1.5134,1.5626,1.5181,1.5035,1.5606,1.4748,1.4334,1.4838,1.4426,1.4088,1.4088,1.4088,1.4088,1.4088,1.4088,1.4088,1.4088,1.4088,1.4088,1.4088,1.4088,1.3828,1.3398,1.2619,1.2215,0.0,0.0,0.0,0.0,1.7516,0.0,0.0,0.0,1.6582,1.638,0.0,1.6436,0.0,0.0,0.0,0.0,0.0,0.0,1.6044,1.5623,1.5412,1.5626,1.5198,1.496,1.5267,1.4857,1.4627,1.4673,1.4751,1.4784,1.4797,1.5257,1.5586,1.5664,1.6029,1.6212,1.6244,1.6392,1.63,1.5876,1.512,1.5009,1.5344,1.3716,1.3641,1.4746,1.3898,1.3779,1.4184,1.4629,1.4814,1.4902,1.5322,1.5488,1.5498,1.5547,1.5801,1.6213,1.6253,1.6475,1.6816,1.6855,1.7139,1.7451,1.7451,1.7715,1.8008,1.8008,1.8008,1.8008,1.8008,1.8008,1.794,1.7608,1.7539,1.747,1.7047,1.6978,1.7047,1.7047,1.6691,1.6482,1.6908,1.6316,1.5848,1.5876,1.6041,1.5881,1.5158,1.5268,1.5124,1.4384,1.4173,1.4173,1.4173,1.4173,1.4088,1.4088,1.4088,1.4088,1.4088,1.4088,1.4088,1.4088,1.4088,1.4088,1.4088,1.4088,1.3828,1.3398,1.3307,1.3188,0.0,0.0,0.0,0.0,0.0,0.0,1.7319,0.0,1.706,0.0,0.0,0.0,0.0,0.0,0.0,0.0,1.6454,1.6324,0.0,0.0,1.5901,1.5715,0.0,0.0,1.4948,1.5404,1.5608,1.5337,1.5312,1.53,1.5291,1.5291,1.5358,1.5506,1.5459,1.5504,1.5674,1.5748,1.5534,1.4949,1.4617,1.4356,1.4169,1.329,1.3303,1.4019,1.3635,1.375,1.4116,1.4609,1.4785,1.4824,1.5244,1.541,1.541,1.541,1.5527,1.5723,1.6037,1.6182,1.6387,1.6379,1.6654,1.6986,1.7089,1.7358,1.7646,1.7646,1.7822,1.7881,1.7437,1.7484,1.7529,1.6978,1.6978,1.7047,1.6621,1.6769,1.6908,1.6908,1.6551,1.6342,1.6482,1.614,1.5805,1.5805,1.6114,1.6102,1.5265,1.552,1.5558,1.4931,1.4557,1.4469,1.4657,1.4334,1.4088,1.4088,1.4088,1.4088,1.4088,1.4088,1.4088,1.4088,1.4088,1.4088,1.4088,1.4088,1.4004,1.3828,1.3568,1.3376,1.6702,0.0,0.0,0.0,0.0,0.0,0.0,0.0,0.0,0.0,0.0,0.0,0.0,0.0,1.6778,1.6989,0.0,1.6808,1.6905,1.6735,0.0,0.0,0.0,0.0,0.0,1.5909,1.6205,1.584,1.5812,1.578,1.5655,1.5427,1.5325,1.5393,1.5176,1.5165,1.537,1.5402,1.513,1.4433,1.434,1.3967,1.3372,1.3065,1.3105,1.3506,1.3506,1.375,1.4116,1.4609,1.4785,1.4824,1.5244,1.541,1.541,1.541,1.541,1.5459,1.5771,1.5889,1.5827,1.589,1.6071,1.6296,1.64,1.6636,1.6946,1.6946,1.7235,1.7417,1.6845,1.6919,1.7045,1.6464,1.6471,1.6495,1.6254,1.6421,1.663,1.663,1.6351,1.614,1.614,1.5938,1.5805,1.5805,1.6028,1.6007,1.5503,1.5597,1.5705,1.5522,1.5079,1.4895,1.5061,1.4671,1.4341,1.4088,1.4088,1.4088,1.4088,1.4088,1.4088,1.4088,1.4088,1.4088,1.4088,1.4088,1.4088,1.4088,1.3743,1.3568,0.0,0.0,0.0,1.7397,0.0,0.0,0.0,0.0,1.8363,0.0,0.0,0.0,1.7096,1.7102,1.724,1.7352,1.7434,0.0,0.0,1.6993,0.0,0.0,0.0,0.0,0.0,1.6188,1.5905,1.5897,1.5903,1.5683,1.5241,1.5586,1.5588,1.5119,1.5334,1.5468,1.5468,1.5703,1.5468,1.4858,1.449,1.3967,1.3372,1.3065,1.3105,1.3506,1.3506,1.375,1.4116,1.4609,1.4785,1.4824,1.5244,1.541,1.541,1.541,1.541,1.541,1.543,1.5264,1.5058,1.5067,1.5102,1.512,1.5139,1.5477,1.5864,1.5864,1.6066,1.6361,1.6352,1.6352,1.6337,1.6323,1.6049,1.5813,1.579,1.5805,1.5876,1.5876,1.5805,1.5805,1.5805,1.5805,1.5805,1.5805,1.5814,1.5728,1.5471,1.538,1.5427,1.5492,1.5488,1.5382,1.5144,1.509,1.4755,1.4173,1.4088,1.4088,1.4088,1.4088,1.4088,1.4088,1.4088,1.4088,1.4088,1.4088,1.4088,1.4088,1.4088,1.4088,1.6596,1.7213,1.7751,1.7434,1.776,0.0,0.0,0.0,0.0,0.0,0.0,0.0,0.0,1.7269,1.7282,1.7557,1.7434,1.7352,0.0,1.7201,1.6921,0.0,0.0,0.0,0.0,1.7015,1.7067,1.6766,1.6786,1.6565,1.6095,1.5869,1.5599,1.5108,1.4982,1.4892,1.4891,1.4731,1.4387,1.3931,1.3789,1.3467,1.3065,1.2978,1.3105,1.3496,1.3213,1.333,1.373,1.3877,1.4102,1.4394,1.4824,1.5166,1.541,1.541,1.541,1.541,1.541,1.5245,1.497,1.4715,1.469,1.4735,1.4754,1.506,1.5366,1.5366,1.5661,1.5835,1.5295,1.5366,1.5605,1.5591,1.5514,1.5463,1.572,1.5805,1.5805,1.5805,1.5805,1.5805,1.5805,1.5805,1.5805,1.5805,1.5805,1.5769,1.5673,1.569,1.573,1.5979,1.5651,1.5488,1.5606,1.5043,1.4531,1.4159,1.4088,1.4088,1.4088,1.4088,1.4088,1.4088,1.4088,1.4088,1.4088,1.4088,1.4088,1.4088,1.4088,1.4088,1.6395,1.7191,1.7843,1.7449,1.78,1.8228,1.81,1.8236,1.8369,0.0,0.0,0.0,0.0,1.7538,1.7529,1.776,1.7639,1.7516,0.0,1.7269,1.6976,0.0,0.0,0.0,0.0,1.7529,1.7785,1.7462,1.7457,1.7169,1.6517,1.6231,1.5749,1.5119,1.4903,1.4767,1.4754,1.4419,1.4014,1.3616,1.3447,1.3238,1.2881,1.2881,1.3027,1.3271,1.2998,1.3037,1.3311,1.3603,1.3887,1.4136,1.4775,1.5176,1.541,1.541,1.541,1.541,1.541,1.5245,1.497,1.4597,1.4469,1.4465,1.4294,1.4444,1.4762,1.4926,1.5088,1.5113,1.4866,1.4792,1.485,1.5162,1.512,1.5172,1.5694,1.5805,1.5805,1.5805,1.5805,1.5805,1.5805,1.5805,1.5805,1.5805,1.5805,1.5805,1.5805,1.5805,1.5942,1.6302,1.5961,1.5715,1.5739,1.5145,1.4531,1.4159,1.4088,1.4088,1.4088,1.4088,1.4135,1.4242,1.4142,1.4135,1.4242,1.3965,1.3737,1.347,1.3307,1.313]},{"header":{"parameterUnit":"m.s-1","parameterCategory":1,"la1":30.6,"la2":29.2853,"lo1":-89.7004,"lo2":-87.6739,"dy":0.0162,"dx":0.0183,"nx":112,"ny":82,"refTime":"2023-06-08T12:00:00:Z","depth":0,"parameterNumber":3,"parameterNumberName":"V-component_of_WINDS"},"data":[0.0,0.0,0.0,0.0,0.0,0.0,0.0,0.0,0.0,0.0,0.0,0.0,0.0,0.0,0.0,0.0,0.0,0.0,0.0,0.0,0.0,0.0,0.0,0.0,0.0,0.0,0.0,0.0,0.0,0.0,0.0,0.0,0.0,0.0,0.0,0.0,0.0,0.0,0.0,0.0,0.0,0.0,0.0,0.0,0.0,0.0,0.0,0.0,0.0,0.0,0.0,0.0,0.0,0.0,0.0,0.0,0.0,0.0,0.0,0.0,0.0,0.0,0.0,0.0,0.0,0.0,0.0,0.0,0.0,0.0,0.0,0.0,0.0,0.0,0.0,0.0,0.0,0.0,0.0,0.0,0.0,0.0,0.0,0.0,0.0,0.0,0.0,0.0,0.0,0.0,-0.4459,-0.4527,-0.4959,-0.5127,-0.4871,-0.4626,-0.4387,-0.405,0.0,0.0,0.0,0.0,0.0,0.0,0.0,0.0,0.0,0.0,0.0,0.0,0.0,0.0,0.0,0.0,0.0,0.0,0.0,0.0,0.0,0.0,0.0,0.0,0.0,0.0,0.0,0.0,0.0,0.0,0.0,0.0,0.0,0.0,0.0,0.0,0.0,0.0,0.0,0.0,0.0,0.0,0.0,0.0,0.0,0.0,0.0,0.0,0.0,0.0,0.0,0.0,0.0,0.0,0.0,0.0,0.0,0.0,0.0,0.0,0.0,0.0,0.0,0.0,0.0,0.0,0.0,0.0,0.0,0.0,0.0,0.0,0.0,0.0,0.0,0.0,0.0,0.0,0.0,0.0,0.0,0.0,0.0,0.0,0.0,0.0,0.0,0.0,0.0,0.0,0.0,0.0,0.0,0.0,0.0,0.0,0.0,0.0,0.0,0.0,0.0,0.0,0.0,0.0,-0.4931,-0.558,-0.514,-0.4951,-0.534,-0.4395,-0.375,-0.3755,0.0,0.0,0.0,0.0,0.0,0.0,0.0,0.0,0.0,0.0,0.0,0.0,0.0,0.0,0.0,0.0,0.0,0.0,0.0,0.0,0.0,0.0,0.0,0.0,0.0,0.0,0.0,0.0,0.0,0.0,0.0,0.0,0.0,0.0,0.0,0.0,0.0,0.0,0.0,0.0,0.0,0.0,0.0,0.0,0.0,0.0,0.0,0.0,0.0,0.0,0.0,0.0,0.0,0.0,0.0,0.0,0.0,0.0,0.0,0.0,0.0,0.0,0.0,0.0,0.0,0.0,0.0,0.0,0.0,0.0,0.0,0.0,0.0,0.0,0.0,0.0,0.0,0.0,0.0,0.0,0.0,0.0,0.0,0.0,0.0,0.0,0.0,0.0,0.0,0.0,0.0,0.0,0.0,0.0,0.0,0.0,0.0,0.0,0.0,0.0,0.0,0.0,0.0,-0.5295,-0.562,-0.6093,-0.6015,-0.5822,-0.5713,-0.4877,-0.4327,-0.4206,-0.3509,0.0,0.0,0.0,0.0,0.0,0.0,0.0,0.0,0.0,0.0,0.0,0.0,0.0,0.0,0.0,0.0,0.0,0.0,0.0,0.0,0.0,0.0,0.0,0.0,0.0,0.0,0.0,0.0,0.0,0.0,0.0,0.0,0.0,0.0,0.0,0.0,0.0,0.0,0.0,0.0,0.0,0.0,0.0,0.0,0.0,0.0,0.0,0.0,0.0,0.0,0.0,0.0,0.0,0.0,0.0,0.0,0.0,0.0,0.0,0.0,0.0,0.0,0.0,0.0,0.0,0.0,0.0,0.0,0.0,0.0,0.0,0.0,0.0,0.0,0.0,0.0,0.0,0.0,0.0,0.0,0.0,0.0,0.0,0.0,0.0,0.0,0.0,0.0,0.0,0.0,0.0,0.0,0.0,0.0,0.0,0.0,0.0,0.0,0.0,0.0,0.0,0.0,-0.5936,-0.597,-0.6314,-0.6406,-0.6251,-0.5774,-0.5097,-0.4629,-0.4419,-0.3569,0.0,0.0,0.0,0.0,0.0,0.0,0.0,0.0,0.0,0.0,0.0,0.0,0.0,0.0,0.0,0.0,0.0,0.0,0.0,0.0,0.0,0.0,0.0,0.0,0.0,0.0,0.0,0.0,0.0,0.0,0.0,0.0,0.0,0.0,0.0,0.0,0.0,0.0,0.0,0.0,0.0,0.0,0.0,0.0,0.0,0.0,0.0,0.0,0.0,0.0,0.0,0.0,0.0,0.0,0.0,0.0,0.0,0.0,0.0,0.0,0.0,0.0,0.0,0.0,0.0,0.0,0.0,0.0,0.0,0.0,0.0,0.0,0.0,0.0,0.0,0.0,0.0,0.0,0.0,0.0,0.0,0.0,0.0,0.0,0.0,0.0,0.0,0.0,0.0,0.0,0.0,0.0,0.0,0.0,0.0,0.0,0.0,0.0,0.0,0.0,0.0,0.0,-0.5672,-0.5604,-0.6085,-0.5457,-0.5114,-0.5335,-0.4386,-0.3792,-0.386,-0.3345,0.0,0.0,0.0,0.0,0.0,0.0,0.0,0.0,0.0,0.0,0.0,0.0,0.0,0.0,0.0,0.0,0.0,0.0,0.0,0.0,0.0,0.0,0.0,0.0,0.0,0.0,0.0,0.0,0.0,0.0,0.0,0.0,0.0,0.0,0.0,0.0,0.0,0.0,0.0,0.0,0.0,0.0,0.0,0.0,0.0,0.0,0.0,0.0,0.0,0.0,0.0,0.0,0.0,0.0,0.0,0.0,0.0,0.0,0.0,0.0,0.0,0.0,0.0,0.0,0.0,0.0,0.0,0.0,0.0,0.0,0.0,0.0,0.0,0.0,0.0,0.0,0.0,0.0,0.0,0.0,0.0,0.0,0.0,0.0,0.0,0.0,0.0,0.0,0.0,0.0,0.0,0.0,0.0,0.0,0.0,0.0,0.0,0.0,0.0,0.0,0.0,0.0,-0.6154,-0.6251,0.0,-0.6437,-0.622,-0.5692,-0.532,-0.4772,-0.39,0.0,0.0,0.0,0.0,0.0,0.0,0.0,0.0,0.0,0.0,0.0,0.0,0.0,0.0,0.0,0.0,0.0,0.0,0.0,0.0,0.0,0.0,0.0,0.0,0.0,0.0,0.0,0.0,0.0,0.0,0.0,0.0,0.0,0.0,0.0,0.0,0.0,0.0,0.0,0.0,0.0,0.0,0.0,0.0,0.0,0.0,0.0,0.0,0.0,0.0,0.0,0.0,0.0,0.0,0.0,0.0,0.0,0.0,0.0,0.0,0.0,0.0,0.0,0.0,0.0,0.0,0.0,0.0,0.0,0.0,0.0,0.0,0.0,0.0,0.0,0.0,0.0,0.0,0.0,0.0,0.0,0.0,0.0,0.0,0.0,0.0,0.0,0.0,0.0,0.0,0.0,0.0,0.0,0.0,0.0,0.0,0.0,0.0,0.0,0.0,0.0,0.0,-0.6143,-0.6231,-0.6385,0.0,-0.6756,-0.6493,-0.5879,-0.5749,-0.5179,-0.3954,0.0,0.0,0.0,0.0,0.0,0.0,0.0,0.0,0.0,0.0,0.0,0.0,0.0,0.0,0.0,0.0,0.0,0.0,0.0,0.0,0.0,0.0,0.0,0.0,0.0,0.0,0.0,0.0,0.0,0.0,0.0,0.0,0.0,0.0,0.0,0.0,0.0,0.0,0.0,0.0,0.0,0.0,0.0,0.0,0.0,0.0,0.0,0.0,0.0,0.0,0.0,0.0,0.0,0.0,0.0,0.0,0.0,0.0,0.0,0.0,0.0,0.0,0.0,0.0,0.0,0.0,0.0,0.0,0.0,0.0,0.0,0.0,0.0,0.0,0.0,0.0,0.0,0.0,0.0,0.0,0.0,0.0,0.0,0.0,0.0,0.0,0.0,0.0,0.0,0.0,0.0,0.0,0.0,0.0,0.0,0.0,0.0,0.0,0.0,0.0,0.0,0.0,-0.6102,-0.587,-0.5841,-0.6422,-0.5985,-0.5625,-0.5625,-0.525,-0.4719,0.0,0.0,0.0,0.0,0.0,0.0,0.0,0.0,0.0,0.0,0.0,0.0,0.0,0.0,0.0,0.0,0.0,0.0,0.0,0.0,0.0,0.0,0.0,0.0,0.0,0.0,0.0,0.0,0.0,0.0,0.0,0.0,0.0,0.0,0.0,0.0,0.0,0.0,0.0,0.0,0.0,0.0,0.0,0.0,0.0,0.0,0.0,0.0,0.0,0.0,0.0,0.0,0.0,0.0,0.0,0.0,0.0,0.0,0.0,0.0,0.0,0.0,0.0,0.0,0.0,0.0,0.0,0.0,0.0,0.0,0.0,0.0,0.0,0.0,0.0,0.0,0.0,0.0,0.0,0.0,0.0,0.0,0.0,0.0,0.0,0.0,0.0,0.0,0.0,0.0,0.0,0.0,0.0,0.0,0.0,0.0,0.0,0.0,0.0,0.0,0.0,0.0,0.0,-0.6102,-0.6079,-0.6226,-0.6793,-0.669,-0.6521,-0.6322,-0.6387,-0.5957,-0.4826,0.0,0.0,0.0,0.0,0.0,0.0,0.0,0.0,0.0,0.0,0.0,0.0,0.0,0.0,0.0,0.0,0.0,0.0,0.0,0.0,0.0,0.0,0.0,0.0,0.0,0.0,0.0,0.0,0.0,0.0,0.0,0.0,0.0,0.0,0.0,0.0,0.0,0.0,0.0,0.0,0.0,0.0,0.0,0.0,0.0,0.0,0.0,0.0,0.0,0.0,0.0,0.0,0.0,0.0,0.0,0.0,0.0,0.0,0.0,0.0,0.0,0.0,0.0,0.0,0.0,0.0,0.0,0.0,0.0,0.0,0.0,0.0,0.0,0.0,0.0,0.0,0.0,0.0,0.0,0.0,0.0,0.0,0.0,0.0,0.0,0.0,0.0,0.0,0.0,0.0,0.0,0.0,0.0,0.0,0.0,0.0,0.0,0.0,0.0,0.0,0.0,0.0,-0.6102,-0.6204,-0.6418,-0.6961,-0.6921,-0.678,-0.6607,-0.6828,-0.6493,-0.543,0.0,0.0,0.0,0.0,0.0,0.0,0.0,0.0,0.0,0.0,0.0,0.0,0.0,0.0,0.0,0.0,0.0,0.0,0.0,0.0,0.0,0.0,0.0,0.0,0.0,0.0,0.0,0.0,0.0,0.0,0.0,0.0,0.0,0.0,0.0,0.0,0.0,0.0,0.0,0.0,0.0,0.0,0.0,0.0,0.0,0.0,0.0,0.0,0.0,0.0,0.0,0.0,0.0,0.0,0.0,0.0,0.0,0.0,0.0,0.0,0.0,0.0,0.0,0.0,0.0,0.0,0.0,0.0,0.0,0.0,0.0,0.0,0.0,0.0,0.0,0.0,0.0,0.0,0.0,0.0,0.0,0.0,0.0,0.0,0.0,0.0,0.0,0.0,0.0,0.0,0.0,0.0,0.0,0.0,0.0,0.0,0.0,0.0,0.0,0.0,0.0,0.0,-0.615,-0.627,-0.649,-0.6961,-0.6828,-0.6713,-0.6673,-0.6871,-0.6659,-0.5996,0.0,0.0,0.0,0.0,0.0,0.0,0.0,0.0,0.0,0.0,0.0,0.0,0.0,0.0,0.0,0.0,0.0,0.0,0.0,0.0,0.0,0.0,0.0,0.0,0.0,0.0,0.0,0.0,0.0,0.0,0.0,0.0,0.0,0.0,0.0,0.0,0.0,0.0,0.0,0.0,0.0,0.0,0.0,0.0,0.0,0.0,0.0,0.0,0.0,0.0,0.0,0.0,0.0,0.0,0.0,0.0,0.0,0.0,0.0,0.0,-0.6828,-0.6711,0.0,0.0,0.0,0.0,0.0,0.0,0.0,0.0,0.0,0.0,0.0,0.0,0.0,0.0,0.0,0.0,0.0,0.0,0.0,0.0,0.0,0.0,0.0,0.0,0.0,0.0,0.0,0.0,0.0,0.0,0.0,0.0,0.0,0.0,0.0,0.0,0.0,0.0,0.0,0.0,-0.6219,-0.6691,-0.7043,-0.7022,-0.7266,-0.7403,-0.7231,-0.7396,-0.7356,-0.702,-0.7058,0.0,0.0,0.0,0.0,0.0,0.0,0.0,0.0,0.0,0.0,0.0,0.0,0.0,0.0,0.0,0.0,0.0,0.0,0.0,0.0,0.0,0.0,0.0,0.0,0.0,0.0,0.0,0.0,0.0,0.0,0.0,0.0,0.0,0.0,0.0,0.0,0.0,0.0,0.0,0.0,0.0,0.0,0.0,0.0,0.0,0.0,0.0,0.0,0.0,0.0,0.0,0.0,0.0,0.0,0.0,0.0,0.0,0.0,0.0,-0.7266,-0.7127,0.0,0.0,0.0,0.0,0.0,0.0,0.0,0.0,0.0,0.0,0.0,0.0,0.0,0.0,0.0,0.0,0.0,0.0,0.0,0.0,0.0,0.0,0.0,0.0,0.0,0.0,0.0,0.0,0.0,0.0,0.0,0.0,0.0,0.0,0.0,0.0,0.0,0.0,0.0,0.0,-0.6961,-0.7042,-0.7154,-0.7335,-0.7454,-0.7545,-0.7545,-0.7746,-0.7763,-0.7659,-0.7681,0.0,0.0,0.0,0.0,0.0,0.0,0.0,0.0,0.0,0.0,0.0,0.0,0.0,0.0,0.0,0.0,0.0,0.0,0.0,0.0,0.0,0.0,0.0,0.0,0.0,0.0,0.0,0.0,0.0,0.0,0.0,0.0,0.0,0.0,0.0,0.0,0.0,0.0,0.0,0.0,0.0,0.0,0.0,0.0,0.0,0.0,0.0,0.0,0.0,0.0,0.0,0.0,0.0,-0.8689,-0.8531,-0.8734,-0.9099,-0.8915,-0.8313,-0.7872,-0.7847,-0.8092,-0.7585,0.0,0.0,0.0,0.0,0.0,0.0,0.0,0.0,0.0,0.0,0.0,0.0,0.0,0.0,0.0,0.0,0.0,0.0,0.0,0.0,0.0,0.0,-0.9613,-1.0049,-1.049,-1.0395,-0.8985,0.0,0.0,0.0,0.0,0.0,0.0,0.0,0.0,0.0,0.0,0.0,-0.7722,-0.744,-0.7372,-0.7682,-0.7628,-0.765,-0.7834,-0.8036,-0.8177,-0.8238,-0.8348,-0.8475,0.0,0.0,0.0,0.0,0.0,0.0,0.0,0.0,0.0,0.0,0.0,0.0,0.0,0.0,0.0,0.0,0.0,0.0,0.0,0.0,0.0,0.0,0.0,0.0,0.0,0.0,0.0,0.0,0.0,0.0,0.0,0.0,-1.0177,-1.1234,0.0,0.0,0.0,0.0,0.0,0.0,0.0,0.0,0.0,0.0,0.0,0.0,0.0,-0.9634,-1.0358,-0.9939,-0.9963,-1.0319,-1.0221,-0.9867,-0.9306,-0.9478,-0.9335,-0.8971,-0.8598,0.0,-0.8672,-0.8629,0.0,0.0,0.0,0.0,0.0,0.0,0.0,0.0,0.0,0.0,0.0,0.0,0.0,0.0,0.0,0.0,0.0,0.0,0.0,0.0,0.0,0.0,-1.1391,-1.1645,-1.2043,-1.2317,-1.1877,-1.0839,-0.9992,-0.9941,-0.9941,-0.9858,0.0,0.0,0.0,0.0,0.0,0.0,-0.7574,-0.8042,-0.8317,-0.7753,-0.8044,-0.8333,-0.8448,-0.8653,-0.8909,-0.9194,-0.9562,-0.9758,-0.9698,-0.9532,0.0,0.0,0.0,0.0,0.0,0.0,0.0,0.0,0.0,0.0,0.0,0.0,0.0,0.0,0.0,0.0,0.0,0.0,0.0,0.0,0.0,0.0,0.0,0.0,0.0,0.0,0.0,0.0,0.0,-1.0682,-1.154,-1.2575,-1.2307,-1.1906,0.0,0.0,0.0,0.0,0.0,0.0,0.0,0.0,0.0,-1.1348,-1.0865,-1.0853,-1.1328,-1.0867,-1.0731,-1.0813,-1.0603,-1.0334,-1.0002,-1.0069,-0.9903,-0.9616,-0.946,-0.9442,-0.9445,-0.9076,-0.9285,-0.9784,0.0,0.0,0.0,0.0,-0.8995,-0.9047,-0.9047,-0.9256,-0.9458,-0.919,0.0,0.0,0.0,0.0,0.0,0.0,0.0,-0.9577,-1.0279,-1.1129,-1.2053,-1.2898,-1.3292,-1.3629,-1.3983,-1.3303,-1.2329,-1.1446,-1.1256,-1.1226,-1.104,0.0,0.0,0.0,0.0,-1.0527,-0.9747,-0.9464,-0.9215,-0.9033,-0.8865,-0.8847,-0.9032,-0.9355,-0.96,-0.9748,-1.0409,-1.074,-1.0581,-1.0589,-1.0322,0.0,0.0,0.0,0.0,0.0,0.0,0.0,0.0,0.0,0.0,0.0,0.0,0.0,0.0,0.0,0.0,0.0,0.0,0.0,0.0,0.0,0.0,0.0,0.0,0.0,0.0,0.0,0.0,-1.1735,-1.2625,-1.3806,-1.3408,-1.301,0.0,0.0,0.0,0.0,0.0,0.0,-1.1999,-1.2024,-1.2397,-1.3224,-1.2622,-1.2376,-1.2575,-1.1985,-1.1601,-1.1501,-1.1123,-1.0895,-1.082,-1.082,-1.0616,-1.0308,-1.035,-1.0337,-1.0202,-0.9511,-0.957,-1.0083,-0.9746,-0.9797,-0.9909,-0.9624,-0.9588,-0.9678,-0.965,-0.9725,-0.988,-1.0051,-0.9991,-0.9821,-0.9917,0.0,0.0,0.0,0.0,-1.0605,-1.1559,-1.2192,-1.2841,-1.4,-1.4417,-1.4779,-1.5391,-1.5109,-1.4355,-1.3037,-1.2676,-1.2577,-1.2371,0.0,0.0,0.0,0.0,-1.1757,-1.1528,-1.0713,-1.0129,-1.012,-0.9628,-0.9445,-0.9657,-0.9943,-1.0216,-1.0403,-1.1284,-1.1638,-1.1352,-1.1581,-1.1384,-1.0618,0.0,0.0,0.0,0.0,0.0,0.0,0.0,0.0,0.0,0.0,0.0,0.0,0.0,0.0,0.0,0.0,0.0,0.0,0.0,0.0,0.0,0.0,0.0,0.0,0.0,0.0,0.0,0.0,0.0,-1.4081,-1.4999,0.0,0.0,0.0,0.0,-1.273,-1.2696,-1.302,-1.3627,-1.3864,-1.4287,-1.4946,-1.4439,-1.4163,-1.4163,-1.3458,-1.2899,-1.2521,-1.2286,-1.2008,-1.1628,-1.1628,-1.1427,-1.104,-1.1391,-1.1284,-1.0893,-1.0217,-1.0331,-1.0917,-1.0524,-1.0549,-1.079,-1.0474,-1.0354,-1.0363,-1.0426,-1.047,-1.0462,-1.047,-1.0718,-1.0964,-1.0779,-1.0712,0.0,0.0,-1.099,-1.1629,-1.2427,-1.3525,-1.4525,-1.4869,-1.551,-1.5978,-1.5821,-1.5742,-1.5578,-1.5061,-1.4584,-1.4068,-1.3431,0.0,-1.3752,-1.2169,-1.2696,-1.2837,-1.1553,-1.1407,-1.1167,-1.0436,-1.012,-1.0082,-1.0435,-1.0468,-1.0814,-1.1589,-1.2199,-1.2385,-1.1984,-1.2355,-1.2463,-1.2267,-1.144,0.0,0.0,0.0,0.0,0.0,0.0,0.0,0.0,0.0,0.0,0.0,0.0,0.0,0.0,0.0,0.0,0.0,0.0,0.0,0.0,0.0,0.0,0.0,0.0,0.0,0.0,0.0,0.0,-1.5645,-1.6015,0.0,-1.6361,-1.6199,-1.5706,-1.4925,-1.5487,-1.5787,-1.5462,-1.5856,-1.602,-1.6019,-1.564,-1.5289,-1.4995,-1.4624,-1.4216,-1.3848,-1.3287,-1.2808,-1.2383,-1.1935,-1.1628,-1.1495,-1.1878,-1.178,-1.1379,-1.1415,-1.1366,-1.1312,-1.1138,-1.116,-1.131,-1.1724,-1.1738,-1.1619,-1.2182,-1.2079,-1.1636,-1.1353,-1.1377,-1.1563,-1.2004,-1.2169,-1.225,-1.2733,-1.3171,-1.3603,-1.3976,-1.4869,-1.5636,-1.578,-1.6081,-1.6407,-1.6732,-1.6273,-1.5818,-1.5989,-1.5389,-1.4692,-1.4137,-1.4236,-1.4176,-1.3579,-1.3653,-1.3609,-1.3109,-1.2709,-1.2279,-1.1884,-1.1274,-1.1005,-1.1251,-1.1381,-1.1679,-1.2227,-1.3025,-1.3362,-1.3064,-1.3064,-1.3016,-1.2812,-1.2648,-1.1944,0.0,0.0,0.0,0.0,0.0,0.0,0.0,0.0,0.0,0.0,0.0,0.0,0.0,0.0,0.0,0.0,0.0,0.0,0.0,0.0,0.0,0.0,0.0,0.0,0.0,0.0,-1.5504,-1.7111,-1.7466,-1.7804,-1.8399,-1.8053,-1.7681,-1.746,-1.7739,-1.7739,-1.7363,-1.7704,-1.7714,-1.7191,-1.6911,-1.651,-1.5992,-1.5467,-1.5081,-1.4799,-1.4254,-1.3846,-1.3578,-1.3042,-1.2767,-1.2693,-1.3041,-1.2896,-1.2399,-1.2884,-1.2863,-1.2454,-1.2118,-1.1922,-1.1953,-1.2507,-1.2465,-1.2222,-1.2802,-1.2806,-1.2502,-1.2346,-1.2317,-1.2413,-1.3105,-1.3294,-1.3432,-1.4121,-1.4518,-1.4725,-1.4939,-1.5619,-1.6269,-1.628,-1.6563,-1.6863,-1.7202,-1.6776,-1.6361,-1.6492,-1.5749,-1.4942,-1.437,-1.4163,-1.4003,-1.3807,-1.3591,-1.3502,-1.3502,-1.3214,-1.287,-1.2572,-1.2162,-1.199,-1.2157,-1.205,-1.2258,-1.2774,-1.3349,-1.3621,-1.3621,-1.3407,-1.3224,-1.3165,-1.3114,-1.2559,-1.1498,0.0,0.0,0.0,0.0,0.0,0.0,0.0,0.0,0.0,0.0,0.0,0.0,0.0,0.0,0.0,0.0,0.0,0.0,0.0,0.0,0.0,0.0,0.0,-1.5552,-1.638,-1.7262,-1.8444,-1.943,-2.0022,-2.0022,-1.9768,-1.9842,-2.0334,-1.9283,-1.8814,-1.9263,-1.9449,-1.9278,-1.8672,-1.8259,-1.779,-1.7247,-1.6088,-1.5435,-1.5435,-1.5216,-1.5112,-1.5112,-1.5091,-1.4872,-1.4556,-1.4899,-1.4654,-1.4005,-1.4713,-1.4784,-1.441,-1.331,-1.2804,-1.2704,-1.2831,-1.2572,-1.2155,-1.2254,-1.2619,-1.305,-1.3422,-1.353,-1.3584,-1.399,-1.417,-1.4268,-1.4697,-1.4834,-1.4941,-1.5342,-1.5914,-1.6316,-1.6316,-1.6828,-1.7278,-1.7334,-1.7334,-1.7136,-1.6634,-1.5793,-1.496,-1.4228,-1.3723,-1.3208,-1.2671,-1.2578,0.0,-1.2569,-1.2837,-1.2917,-1.2443,-1.2769,-1.3035,-1.2987,-1.2499,-1.2452,-1.319,-1.3093,-1.3242,-1.3631,-1.3253,-1.3144,-1.3429,-1.285,-1.305,-1.4057,0.0,0.0,0.0,0.0,0.0,0.0,0.0,0.0,0.0,0.0,0.0,0.0,0.0,0.0,0.0,0.0,0.0,0.0,0.0,0.0,0.0,0.0,-1.6999,-1.7375,-1.8371,-1.9567,-2.1082,-2.1864,-2.2291,-2.2291,-2.2072,-2.1865,-2.1824,-2.1322,-2.0986,-2.0852,-2.0946,-2.0736,-2.0241,-1.9412,-1.8765,-1.8293,-1.7269,-1.6765,-1.6754,-1.6202,-1.5881,-1.5871,-1.5353,-1.5029,-1.4965,-1.5694,-1.5739,-1.5273,-1.6146,-1.609,-1.5401,-1.4621,-1.4291,-1.4364,-1.4955,-1.532,-1.5385,-1.4893,-1.468,-1.4576,-1.4646,-1.4334,-1.4082,-1.4711,-1.4982,-1.5156,-1.5586,-1.6128,-1.6526,-1.64,-1.6728,-1.7074,-1.685,-1.7062,-1.7379,-1.77,-1.749,-1.7346,-1.751,-1.7025,-1.6243,-1.5017,-1.4429,-1.4058,-1.3882,-1.4192,0.0,-1.3895,-1.4247,-1.4113,-1.2968,-1.3431,-1.3521,-1.2818,-1.3268,-1.3621,-1.3794,-1.3915,-1.4058,-1.4197,-1.4058,-1.4063,-1.4111,-1.3547,-1.3381,0.0,0.0,0.0,0.0,0.0,0.0,0.0,0.0,0.0,0.0,0.0,0.0,0.0,0.0,0.0,0.0,0.0,0.0,0.0,0.0,0.0,0.0,-1.8202,-1.964,-2.0435,-2.0751,-2.1368,-2.2539,-2.3189,-2.3554,-2.3554,-2.3313,-2.3135,-2.3109,-2.2648,-2.2184,-2.1832,-2.2058,-2.1843,-2.1144,-2.0592,-1.9991,-1.931,-1.8588,-1.8109,-1.7868,-1.747,-1.7226,-1.7216,-1.6813,-1.6629,-1.6661,-1.7148,-1.7137,-1.6814,-1.7481,-1.7378,-1.6756,0.0,0.0,0.0,0.0,-1.6214,-1.6265,-1.6001,-1.5877,-1.579,-1.5929,-1.569,-1.5551,-1.6148,-1.6226,-1.6247,-1.6505,-1.6773,-1.6918,-1.6728,-1.6951,-1.7214,-1.7036,-1.7158,-1.7434,-1.7799,-1.7689,-1.77,-1.8127,-1.7767,0.0,-1.635,-1.562,-1.507,-1.4777,-1.4842,-1.4767,-1.4501,-1.478,-1.4604,-1.3555,-1.4114,-1.4239,-1.3491,-1.3631,0.0,0.0,0.0,-1.4052,-1.4233,-1.4052,0.0,0.0,0.0,-1.3601,-1.4202,-1.3916,0.0,0.0,-1.3941,-1.3096,0.0,0.0,0.0,0.0,0.0,0.0,0.0,0.0,0.0,0.0,0.0,0.0,0.0,0.0,0.0,0.0,-2.0362,-2.2355,-2.3989,-2.3417,-2.3008,-2.339,-2.396,-2.4313,-2.4313,-2.4146,-2.4106,-2.4288,-2.358,-2.2961,-2.2598,0.0,0.0,0.0,0.0,-2.1198,-2.0205,-1.9748,-1.925,-1.8687,-1.8687,-1.8687,-1.8687,-1.8687,-1.8687,-1.8687,-1.8753,-1.8581,-1.8337,-1.8761,-1.8743,-1.8413,-1.7574,-1.6815,-1.6173,-1.6461,-1.6255,-1.5926,-1.6427,0.0,0.0,-1.7147,-1.7317,-1.7409,-1.7781,-1.7626,-1.7417,-1.7417,-1.7206,-1.7002,-1.7002,-1.7102,-1.7191,-1.7191,-1.7318,-1.7578,-1.7944,-1.8089,-1.8221,-1.8654,-1.8431,-1.8147,-1.8147,-1.7138,-1.6106,-1.5517,-1.5137,-1.4946,-1.484,-1.5005,-1.4899,-1.4277,0.0,0.0,-1.4428,-1.3928,-1.38,-1.4089,-1.3795,-1.382,-1.4156,-1.382,-1.368,-1.3694,-1.3461,-1.3994,-1.5297,-1.5387,-1.593,-1.682,-1.4366,-1.3304,0.0,0.0,0.0,0.0,0.0,0.0,0.0,0.0,0.0,0.0,0.0,0.0,0.0,0.0,0.0,-2.2394,-2.4433,-2.5835,-2.6077,-2.63,-2.6061,-2.4817,-2.5181,-2.5548,-2.5548,-2.595,-2.5975,-2.5533,-2.5318,-2.4957,-2.433,-2.4017,-2.374,-2.3514,-2.232,-2.1379,-2.0734,-1.992,-1.925,-1.8687,-1.8687,0.0,-1.8687,-1.8687,-1.8687,-1.8709,-1.9102,-1.9214,-1.9206,-2.0118,-2.0435,-2.026,-1.8887,-1.8312,-1.8118,-1.824,-1.7959,-1.7621,-1.8072,-1.7807,-1.7434,-1.8175,-1.8065,-1.7781,-1.8017,-1.8145,0.0,-1.8194,-1.8387,-1.8609,-1.8609,-1.8593,-1.8501,-1.8501,-1.8459,-1.8541,-1.894,-1.9126,-1.9298,-1.9641,-1.9987,-2.0205,-2.0205,-1.8401,-1.69,-1.6768,-1.6979,-1.6946,-1.6203,-1.6516,-1.6224,-1.4875,-1.5626,-1.5658,-1.4264,-1.4862,-1.5142,-1.4741,-1.4937,-1.512,-1.5223,-1.512,-1.5108,-1.5095,-1.5326,-1.5555,-1.5851,-1.6122,-1.6223,-1.617,-1.5473,-1.5196,0.0,0.0,0.0,0.0,0.0,0.0,0.0,0.0,0.0,0.0,0.0,-1.8551,0.0,0.0,-2.3638,-2.4591,-2.6315,-2.7396,-2.7027,-2.7331,-2.7097,-2.5646,-2.5982,-2.6362,-2.6362,-2.6633,-2.6566,-2.606,-2.5887,-2.5573,-2.5065,-2.462,-2.4406,-2.4406,-2.3679,-2.2996,-2.2471,-2.1729,-2.1094,-2.056,-2.0259,-2.014,-2.014,-2.014,-2.014,-2.0151,-2.0402,-2.05,-2.0544,-2.1024,-2.1152,-2.0881,-2.0159,-1.95,-1.9091,-1.9321,-1.896,-1.8414,-1.8895,-1.87,-1.8294,-1.8848,-1.8899,-1.8776,-1.903,-1.9062,-1.9036,-1.9278,-1.9375,-1.9484,-1.9484,-1.9341,-1.919,-1.8956,-1.879,-1.8802,-1.9182,-1.9576,-1.9925,-2.027,-2.0778,-2.1131,-2.1131,-2.0121,-1.9218,-1.8937,-1.9141,-1.9018,-1.8336,-1.8074,-1.7566,-1.6579,-1.6483,-1.6105,-1.5029,-1.5423,-1.5478,-1.4903,-1.5277,-1.5603,-1.5736,-1.5603,-1.5647,-1.5988,-1.5988,-1.6076,-1.625,-1.625,-1.6163,-1.6001,-1.5715,-1.5614,0.0,0.0,0.0,0.0,0.0,0.0,0.0,0.0,-1.7407,-1.8577,-2.0343,-2.1977,-2.2824,-2.481,-2.6408,-2.6649,-2.7797,-2.842,-2.7694,-2.7748,-2.7421,-2.6199,-2.6619,-2.6986,-2.6986,-2.7094,-2.7039,-2.664,-2.634,-2.596,-2.5627,-2.5216,-2.4971,-2.4971,-2.487,-2.4536,-2.403,-2.3459,-2.2922,-2.2423,-2.1849,-2.1592,-2.1592,-2.1592,-2.1592,-2.1592,-2.1592,-2.1647,-2.1723,-2.1625,-2.1436,-2.1229,-2.1073,-2.0533,-1.9888,-2.015,-1.9738,-1.9054,-1.9606,-1.9576,-1.9319,-1.9684,-1.9901,-2.0015,-2.0291,-2.0225,-2.01,-2.0418,-2.0387,-2.017,-2.017,-2.0027,-1.9779,-1.9394,-1.9133,-1.9061,-1.9373,-1.9968,-2.0488,-2.0788,-2.1378,-2.1807,-2.1807,-2.1807,-2.1581,-2.097,-2.0903,-2.0734,-2.0251,-1.9465,-1.8771,-1.8201,-1.7301,-1.6579,-1.6115,-1.5917,-1.567,-1.5303,-1.556,-1.5824,-1.6076,-1.5824,-1.5944,-1.6479,-1.6207,-1.6219,-1.6522,-1.6374,-1.623,-1.6088,-1.6029,-1.5897,-1.5286,-1.4494,-1.4225,-1.4806,-1.5782,-1.7214,0.0,0.0,-2.2024,-2.3481,-2.5379,-2.7,-2.7683,-2.906,-3.0134,-3.0207,-3.0485,-3.014,-2.8507,-2.8288,-2.7911,-2.6856,-2.7244,-2.761,-2.761,-2.8085,-2.8268,-2.7944,-2.7538,-2.7128,-2.6848,-2.5975,-2.5511,-2.5511,-2.5059,-2.4536,-2.403,-2.3459,-2.2922,-2.2423,-2.1849,-2.1592,-2.1592,-2.1592,-2.1592,-2.1592,-2.1592,-2.1832,-2.2204,-2.1767,-2.1843,-2.2049,-2.1332,-2.1134,-2.1352,-2.0989,-2.052,-2.0126,-2.1029,-2.1068,-2.0762,-2.121,-2.1385,-2.1359,-2.1428,-2.1428,-2.137,-2.1424,-2.1435,-2.1366,-2.1366,-2.1076,-2.0762,-2.0708,-2.0325,-1.9995,-1.998,-2.0765,-2.1445,-2.1499,-2.2256,-2.289,-2.289,-2.289,-2.2598,-2.1556,-2.1443,-2.1232,-2.075,-2.0248,-1.9587,-1.8726,-1.8134,-1.7622,-1.7096,-1.6785,-1.6628,-1.6602,-1.6478,-1.6392,-1.6436,-1.6423,-1.6423,-1.6522,-1.6479,-1.6479,-1.6522,-1.6992,-1.6979,-1.6448,-1.746,-1.7274,-1.6956,-1.6866,-1.7256,0.0,-1.9607,-2.0799,-2.2602,-2.3558,-2.4361,-2.5271,-2.6765,-2.8097,-2.8751,-2.9696,-3.0237,0.0,-2.9959,-2.9659,-2.8656,-2.8208,-2.7721,-2.6891,-2.704,-2.7325,-2.7678,-2.8248,-2.8522,-2.8406,-2.7868,-2.7456,-2.7323,-2.6871,-2.6578,-2.6578,-2.6364,-2.617,-2.5952,-2.5329,-2.4601,-2.3711,-2.3474,-2.3205,-2.2837,-2.2837,-2.2837,-2.2837,-2.2837,-2.2947,-2.3121,-2.2914,-2.2809,-2.2714,-2.2093,-2.1755,-2.1691,-2.1161,-2.1043,-2.1101,-2.1446,-2.1461,-2.1319,-2.1527,-2.1592,-2.1592,-2.1592,-2.1592,-2.1647,-2.1931,-2.2018,-2.2018,-2.2018,-2.1865,-2.1636,-2.1352,-2.0915,-2.0577,-2.0565,-2.1129,-2.162,-2.1604,-2.269,-2.3527,-2.3128,-2.3414,-2.3364,-2.2573,-2.2447,-2.2264,-2.1766,-2.1323,-2.0652,-1.9657,-1.9114,-1.8598,-1.813,-1.7852,-1.7581,-1.7277,-1.7384,-1.7501,-1.7501,-1.7501,-1.7501,-1.7501,-1.7501,-1.7501,-1.7501,-1.7739,-1.7739,-1.7513,-1.799,-1.8147,-1.8343,-1.9125,0.0,-2.2342,-2.3721,-2.4826,-2.5662,-2.6451,-2.7118,-2.727,-2.831,-2.9303,-2.9748,-3.0168,-3.0213,-2.9652,-2.9434,-2.9146,-2.8447,-2.7691,-2.704,-2.6619,-2.6416,-2.6633,-2.7393,-2.8003,-2.841,-2.8587,-2.8146,-2.7826,-2.7704,-2.7697,-2.7586,-2.7281,-2.7281,-2.7281,-2.7281,-2.6697,-2.5985,-2.5154,-2.482,-2.4411,-2.394,-2.394,-2.394,-2.394,-2.394,-2.394,-2.394,-2.394,-2.3785,-2.3442,-2.3001,-2.2709,-2.2492,-2.1967,-2.1771,-2.1832,-2.1974,-2.1985,-2.1985,-2.1985,-2.1985,-2.1985,-2.1985,-2.2073,-2.2226,-2.2444,-2.2608,-2.2673,-2.2542,-2.2411,-2.2226,-2.1876,-2.1417,-2.1057,-2.1057,-2.1615,-2.2051,-2.2051,-2.3225,-2.4042,-2.3477,-2.3715,-2.3803,-2.3165,-2.3078,-2.2987,-2.2585,-2.2058,-2.1342,-2.0476,-2.0025,-1.9602,-1.9078,-1.8906,-1.8585,-1.7995,-1.8136,-1.8204,-1.8204,-1.8204,-1.8204,-1.8204,-1.8204,-1.8251,-1.8286,-1.845,-1.8437,-1.8298,-1.8697,-1.906,-1.9179,0.0,-2.2048,-2.5019,-2.7584,-2.9376,-2.946,-3.0406,-3.1138,-3.0496,-3.1073,-3.1699,-3.1714,-3.1404,-3.0978,-3.035,-2.9824,-2.9048,-2.7895,-2.6701,-2.5941,-2.5914,-2.5412,-2.5534,0.0,-2.7379,-2.7976,-2.8546,-2.8772,-2.8688,-2.8291,-2.8499,-2.8278,-2.7306,-2.7281,-2.7281,-2.7281,-2.6697,-2.6358,-2.6247,-2.5164,-2.4601,-2.4465,-2.4465,-2.4465,-2.4465,-2.4465,-2.4465,-2.4465,-2.4465,-2.4465,-2.4385,-2.3924,-2.4003,-2.4353,-2.3881,-2.3126,-2.2435,-2.2809,-2.2957,-2.2957,-2.2957,-2.2957,-2.2957,-2.2957,-2.3296,-2.3569,-2.311,-2.3318,-2.358,-2.311,-2.2652,-2.2313,-2.2302,-2.192,-2.157,-2.157,-2.2434,-2.3156,-2.3156,-2.4042,-2.4619,-2.4067,-2.3991,-2.3803,-2.3165,-2.3078,-2.3065,-2.3053,-2.2281,-2.1487,-2.0924,-2.0792,-2.0536,-2.0001,-1.9837,-1.9509,-1.8983,-1.8493,-1.8204,-1.8204,-1.8204,-1.8204,-1.8204,-1.8204,-1.8333,-1.8601,-1.9092,-1.9092,-1.8626,-1.9902,-2.0135,-2.1857,-2.3886,-2.5954,-2.8334,-2.9941,-3.0872,-3.1013,-3.1043,-3.0661,-2.9344,-2.824,-2.7308,-2.6837,-2.5458,-2.4934,-2.6577,-2.6684,-2.6984,-2.817,-2.7949,-2.7244,-2.6036,-2.643,0.0,0.0,0.0,0.0,-2.861,-2.9116,-2.9094,-2.8317,-2.8931,-2.8992,-2.8373,-2.8373,-2.8373,-2.8373,-2.8151,-2.7668,-2.6875,-2.6062,-2.5633,-2.5564,-2.5176,-2.4934,-2.4934,-2.4934,-2.4934,-2.4934,-2.4934,-2.4934,-2.4912,-2.4426,-2.4396,-2.4486,-2.4317,-2.4021,-2.3829,-2.3984,-2.3995,-2.3995,-2.3995,-2.3995,-2.3995,-2.3995,-2.4104,-2.4203,-2.4039,-2.4104,-2.4115,-2.3613,-2.3372,-2.3176,-2.2848,-2.2411,-2.2133,-2.2548,-2.2972,-2.3337,-2.3646,-2.4612,-2.5059,-2.4155,-2.4305,-2.4217,-2.3215,-2.3078,-2.3078,-2.3078,-2.2795,-2.2551,-2.237,-2.1675,-2.1182,-2.0996,-2.0232,-1.9723,-1.9547,-1.9371,-1.9258,-1.9258,-1.9421,-1.9533,-1.9533,-1.9718,-1.9853,-1.995,-2.0096,-2.0083,-1.995,-2.066,-2.0801,-2.4681,-2.6997,-2.9042,-3.1336,-3.2496,-3.3036,-3.2614,-3.2124,-3.0999,-2.8495,-2.663,-2.5016,-2.3777,-2.2184,-2.1824,-2.4236,-2.4515,-2.5221,-2.735,-2.7447,-2.7121,-2.6592,-2.704,-2.7387,0.0,0.0,0.0,-2.8624,-2.9656,-2.9862,-2.8921,-2.9626,-2.9789,-2.9138,-2.9001,-2.8925,-2.8925,-2.8925,-2.8437,-2.7541,-2.6991,-2.6508,-2.6109,-2.5909,-2.5672,-2.5426,-2.5426,-2.5426,-2.5426,-2.5426,-2.5426,-2.5404,-2.5109,-2.4989,-2.4989,-2.4989,-2.4989,-2.4945,-2.4607,-2.4486,-2.4486,-2.4486,-2.4486,-2.4486,-2.4486,-2.4607,-2.4705,-2.4541,-2.4607,-2.4618,-2.4126,-2.4006,-2.3919,-2.3613,-2.3176,-2.2889,-2.3318,-2.3557,-2.3812,-2.4198,-2.5167,-2.5624,-2.472,-2.4544,-2.428,-2.3552,-2.3439,-2.3439,-2.3439,-2.3203,-2.3153,-2.3427,-2.2623,-2.1995,-2.1794,-2.0941,-2.0326,-2.0125,-1.9911,-1.985,-1.9965,-2.0131,-2.0233,-2.0321,-2.066,-2.0858,-2.0957,-2.1091,-2.1126,-2.1126,-2.1513,-2.1575,-2.7602,-2.9856,-3.1258,-3.3961,-3.5269,-3.5581,-3.4182,-3.3462,-3.1992,-2.8017,-2.6193,-2.4682,0.0,0.0,-2.1651,-2.3339,-2.3492,-2.4059,-2.5837,-2.5643,-2.5941,0.0,0.0,0.0,0.0,0.0,0.0,-2.8811,0.0,-3.0861,-2.9891,-3.0592,-3.0563,-2.9622,-2.9176,-2.8976,-2.8976,-2.8976,-2.8661,-2.8191,-2.7973,-2.7312,-2.6234,-2.6746,-2.6561,-2.5979,-2.5979,-2.5895,-2.5895,-2.5895,-2.5895,-2.5895,-2.5895,-2.5895,-2.5895,-2.5895,-2.5895,-2.5775,-2.4869,-2.4563,-2.4563,-2.4563,-2.4563,-2.4563,-2.4563,-2.4858,-2.512,-2.4683,-2.488,-2.5109,-2.465,-2.453,-2.4519,-2.4497,-2.4126,-2.3766,-2.3733,-2.4237,-2.4743,-2.4719,-2.5697,-2.6239,-2.5686,-2.4732,-2.4042,-2.4042,-2.4042,-2.4029,-2.4004,-2.354,-2.3427,-2.3941,-2.3477,-2.2852,-2.2359,-2.1807,-2.1267,-2.0794,-2.024,-2.0041,-2.031,-2.0361,-2.05,-2.0788,-2.1184,-2.1477,-2.1746,-2.201,-2.217,-2.217,-2.2434,-2.2374,-3.141,-3.3193,-3.418,-3.566,-3.5385,-3.4588,-3.3729,-3.1369,-2.8591,-2.6088,-2.2882,-2.0176,0.0,0.0,0.0,-2.2031,-2.3959,0.0,-2.8265,-2.9211,0.0,-2.9075,0.0,-3.0599,-3.0322,-3.111,0.0,0.0,-3.1254,-3.1308,-3.0521,-3.1096,-3.1193,-3.0615,-3.0226,-2.9999,-2.9999,-2.9719,-2.9489,-2.9334,-2.8809,-2.839,-2.8112,-2.7763,-2.7267,-2.6644,-2.6644,-2.6396,-2.5895,-2.5895,-2.5895,-2.5895,-2.5895,-2.5895,-2.5895,-2.5895,-2.5895,-2.5874,-2.5622,-2.5535,-2.5535,-2.5535,-2.5535,-2.5535,-2.5535,-2.5622,-2.5688,-2.5579,-2.5622,-2.56,-2.512,-2.5,-2.4912,-2.4574,-2.4388,-2.4337,-2.4399,-2.4883,-2.5274,-2.5384,-2.561,-2.5774,-2.5624,-2.5046,-2.4619,-2.4619,-2.4619,-2.4456,-2.4054,-2.423,-2.4293,-2.4029,-2.3477,-2.2852,-2.2359,-2.1807,-2.143,-2.1292,-2.1648,-2.193,-2.1983,-2.2685,-2.3142,-2.3192,-2.3519,-2.3681,-2.3745,-2.3345,-2.315,-2.315,-2.3016,-2.2754,-3.384,-3.5091,-3.5628,-3.6337,-3.566,-3.437,-3.2403,-3.0018,-2.7085,-2.3045,-2.036,0.0,-1.7433,0.0,0.0,0.0,0.0,0.0,-2.8927,-3.0011,-3.0526,0.0,-3.1718,0.0,-3.1857,-3.2425,-3.2652,0.0,-3.2094,-3.1654,-3.0976,-3.1395,-3.1482,-3.1272,-3.0898,-3.0596,-3.0368,-3.0011,-2.9792,-2.9792,-2.9378,-2.904,-2.8803,-2.8383,-2.7903,-2.7267,-2.7267,-2.6951,-2.6313,-2.6313,-2.6146,-2.5895,-2.5895,-2.5895,-2.5895,-2.5895,-2.5895,-2.5895,-2.5895,-2.5895,-2.5895,-2.5895,-2.5895,-2.5895,-2.5895,-2.5895,-2.5895,-2.5895,-2.5895,-2.5841,-2.5568,-2.5491,-2.5426,-2.5175,-2.4945,-2.4785,-2.4882,-2.5006,-2.5207,-2.5574,-2.5778,-2.5975,-2.5975,-2.5523,-2.5159,-2.5159,-2.5159,-2.5046,-2.4732,-2.477,-2.4707,-2.4393,-2.3965,-2.3397,-2.2723,-2.2603,-2.2493,-2.2326,-2.2817,-2.3133,-2.3237,-2.3803,-2.417,-2.4284,-2.4624,-2.4785,-2.4785,-2.4261,-2.3987,-2.3973,-2.351,-2.3201,-3.5422,-3.6199,-3.6318,-3.6461,-3.5874,-3.4296,-3.0799,-2.8838,-2.6061,-1.9966,0.0,-1.7982,-1.7118,-1.7221,-1.8794,-2.2787,0.0,-2.4805,-2.9052,-2.978,-3.0493,-3.2136,-3.2794,-3.3331,-3.3876,-3.3862,-3.3827,-3.3891,-3.2988,-3.2154,-3.1436,-3.1581,-3.1629,-3.1629,-3.1198,-3.0836,-3.0368,-3.0011,-2.9792,-2.9792,-2.9792,-2.9468,-2.8961,-2.8961,-2.8554,-2.7971,-2.7971,-2.7592,-2.7044,-2.7044,-2.6715,-2.6135,-2.6063,-2.6063,-2.5979,-2.5895,-2.5895,-2.5895,-2.5895,-2.5895,-2.5895,-2.5895,-2.5895,-2.5895,-2.5895,-2.5895,-2.5895,-2.5895,-2.5895,-2.5895,-2.5895,-2.5895,-2.5895,-2.5895,-2.5579,-2.5251,-2.5185,-2.4915,-2.4855,-2.5587,-2.6136,-2.6471,-2.6477,-2.605,-2.5711,-2.5711,-2.5711,-2.5711,-2.5766,-2.531,-2.4983,-2.4897,-2.4633,-2.4185,-2.3308,-2.3704,-2.3848,-2.3612,-2.3875,-2.417,-2.4425,-2.4511,-2.4676,-2.4933,-2.5243,-2.5438,-2.5438,-2.4982,-2.4761,-2.4821,-2.3999,-2.3655,-3.7018,-3.7418,-3.7468,-3.6585,-3.5274,-3.3206,-2.9697,-2.6134,0.0,0.0,-1.7476,-1.6593,-1.7544,-1.8132,-1.9805,-2.4,0.0,0.0,0.0,0.0,-3.2549,0.0,0.0,0.0,0.0,0.0,0.0,0.0,-3.3851,-3.3073,-3.2105,-3.2042,-3.1936,-3.1629,-3.1198,-3.0836,-3.0368,-3.0011,-2.9792,-2.9792,-2.9792,-2.9714,-2.9624,-2.9624,-2.9287,-2.8633,-2.8633,0.0,-2.7649,-2.7649,-2.7568,-2.7406,-2.6962,-2.6727,-2.6644,-2.6063,-2.5895,-2.5895,-2.5895,-2.5895,-2.5895,-2.5895,-2.5895,-2.5895,-2.5895,-2.5895,-2.5895,-2.5895,-2.5895,-2.5895,-2.5895,-2.5895,-2.5895,-2.5895,-2.5841,-2.5666,-2.5262,-2.5182,-2.5383,-2.6045,-2.6238,-2.639,-2.6458,-2.6445,-2.6314,-2.6314,-2.6314,-2.6438,-2.6684,-2.6418,-2.5958,-2.5282,-2.5154,-2.4792,-2.3988,-2.4302,-2.4533,-2.4463,-2.5462,-2.606,-2.606,-2.6696,-2.7015,-2.7065,-2.713,-2.7181,-2.7181,-2.5986,-2.5719,-2.6213,-2.4433,-2.3909,-3.596,-3.6737,-3.781,-3.7152,-3.508,-3.2121,-2.8121,0.0,0.0,0.0,-1.6405,-1.6396,-1.7876,0.0,0.0,0.0,0.0,0.0,0.0,0.0,0.0,0.0,0.0,0.0,0.0,0.0,0.0,-3.4595,-3.4394,-3.3851,-3.3058,-3.2789,-3.2372,-3.1936,-3.136,-3.0911,-3.0672,-3.0088,-2.9792,-2.9792,-2.9792,-2.9792,-2.9792,-2.9792,-2.9624,-2.93,-2.93,-2.8961,-2.8303,-2.8303,-2.8131,-2.781,-2.7499,-2.7196,-2.6891,-2.6561,-2.6229,-2.5895,-2.5895,-2.5895,-2.5895,-2.5895,-2.5895,-2.5895,-2.5895,-2.5895,-2.5895,-2.5895,-2.5895,-2.5895,-2.5895,-2.5895,-2.5895,-2.5895,-2.5895,-2.5764,-2.5273,-2.5689,-2.6209,-2.63,-2.6797,-2.7247,-2.7356,-2.7318,-2.7318,-2.7318,-2.7278,-2.7214,-2.7408,-2.7165,-2.6745,-2.6091,-2.5918,-2.5458,-2.4668,-2.5141,-2.5453,-2.5259,-2.6414,-2.7086,-2.7086,-2.7408,-2.7625,-2.7625,-2.7625,-2.7625,-2.7625,-2.6587,-2.6288,-2.6557,-2.5255,-2.4822,-3.5351,-3.6445,-3.8184,-3.7626,-3.4873,-3.1134,-2.6876,-2.3523,0.0,0.0,-1.587,-1.657,-1.8246,0.0,0.0,0.0,0.0,0.0,0.0,0.0,0.0,0.0,0.0,0.0,0.0,0.0,0.0,-3.4824,-3.481,-3.4476,-3.3865,-3.3325,-3.2789,-3.2372,-3.1569,-3.1061,-3.0986,-3.0318,-2.9869,-2.9792,-2.9792,-2.9792,-2.9792,-2.9792,-2.9792,-2.9792,-2.9792,-2.9468,-2.904,-2.904,-2.8712,-2.8211,-2.8051,-2.7742,-2.729,-2.6974,-2.6561,-2.6063,-2.599,-2.5895,-2.5895,-2.5895,-2.5895,-2.5895,-2.5895,-2.5895,-2.5895,-2.5895,-2.5895,-2.5895,-2.5895,-2.5895,-2.5895,-2.5895,-2.5895,-2.5797,-2.5415,-2.6199,-2.6901,-2.6553,-2.7294,-2.8088,-2.8122,-2.8109,-2.8109,-2.8109,-2.8007,-2.7947,-2.7901,-2.7845,-2.7617,-2.7182,-2.6728,-2.6201,-2.5435,-2.6064,-2.6372,-2.6079,-2.7019,-2.7625,-2.7625,-2.7625,-2.7625,-2.7625,-2.7625,-2.7625,-2.7625,-2.6916,-2.6711,-2.6894,-2.6068,-2.5768,-3.777,-3.8668,-3.903,-3.7796,-3.4538,-3.0594,-2.6722,0.0,0.0,-1.7231,-1.6421,-1.6746,-1.8678,-1.7548,-1.7662,0.0,0.0,-2.2253,0.0,0.0,0.0,0.0,0.0,0.0,0.0,0.0,0.0,-3.5424,-3.5424,-3.4935,-3.3865,-3.3325,-3.2988,-3.2917,-3.2069,-3.1347,-3.0986,-3.0596,-3.0152,-2.9792,-2.9792,-2.9792,-2.9792,-2.9792,-2.9792,-2.9792,-2.9792,-2.9792,-2.9702,-2.9702,-2.9702,-2.9546,-2.8961,-2.8633,-2.8486,-2.729,-2.6891,-2.6727,-2.6146,-2.5895,-2.5895,-2.5895,-2.5895,-2.5895,-2.5895,-2.5895,-2.5895,-2.5895,-2.5895,-2.5895,-2.5895,-2.5895,-2.5895,-2.5895,-2.5895,-2.5884,-2.5841,-2.6412,-2.6897,-2.6913,-2.7519,-2.801,-2.8111,-2.8109,-2.8109,-2.8109,-2.8422,-2.8563,-2.8313,-2.8526,-2.8679,-2.8444,-2.7659,-2.6916,-2.6505,-2.6863,-2.7021,-2.6826,-2.7291,-2.7625,-2.7625,-2.7625,-2.7625,-2.7625,-2.7625,-2.7625,-2.7625,-2.6916,-2.7063,-2.7834,-2.6578,-2.6428,-3.3285,-3.5828,-3.8681,-3.7717,-3.4305,-3.0345,-2.718,0.0,-2.0012,-1.7245,-1.6734,-1.6993,-1.7861,-1.7324,-1.7299,-1.8963,-1.8863,-2.0246,0.0,0.0,0.0,0.0,0.0,0.0,0.0,0.0,-3.5504,-3.5504,-3.5504,-3.5294,-3.4854,-3.4288,-3.3796,-3.352,-3.2547,-3.1982,-3.185,-3.111,-3.052,-3.0152,-3.0152,-3.0011,-2.9792,-2.9792,-2.9792,-2.9792,-2.9792,-2.9792,-2.9792,-2.9792,-2.9792,-2.9792,-2.9546,-2.9131,-2.8712,-2.7753,-2.7196,-2.6809,-2.6146,-2.5895,-2.5895,-2.5895,-2.5895,-2.5895,-2.5895,-2.5895,-2.5895,-2.5895,-2.5895,-2.5895,-2.5895,-2.5895,-2.5895,-2.5895,-2.5895,-2.5979,-2.6396,-2.7033,-2.7602,-2.8028,-2.8643,-2.9071,-2.9151,-2.9114,-2.9114,-2.9114,-2.9346,-2.9359,-2.8904,-2.9076,-2.9106,-2.8655,-2.7931,-2.7304,-2.6749,-2.7045,-2.7038,-2.6592,-2.7188,-2.7625,-2.7625,-2.7625,-2.7625,-2.7625,-2.7625,-2.7625,-2.7625,-2.7686,-2.7929,-2.8286,-2.8139,-2.8243,-3.0508,-3.3665,-3.7228,-3.7436,-3.3803,-2.9541,0.0,0.0,-1.9588,-1.7178,-1.6982,-1.7199,-1.7315,-1.7294,-1.7219,-1.7049,-1.7348,-1.8851,-2.2483,0.0,0.0,0.0,0.0,0.0,0.0,-3.483,-3.5504,-3.5504,-3.5504,-3.5504,-3.5504,-3.5118,-3.461,-3.4056,-3.3241,-3.269,-3.2417,-3.1776,-3.1035,-3.0368,-3.0368,-3.0228,-2.9792,-2.9792,-2.9792,-2.9792,-2.9792,-2.9792,-2.9792,-2.9792,-2.9792,-2.9792,-2.9792,-2.9534,-2.8961,-2.8131,-2.7499,-2.7033,-2.6229,-2.5895,-2.5895,-2.5895,-2.5895,-2.5895,-2.5895,-2.5895,-2.5895,-2.5895,-2.5895,-2.5895,-2.5895,-2.5895,-2.5895,-2.5895,-2.5895,-2.6063,-2.6727,-2.7348,-2.7971,-2.8633,-2.9378,-2.9792,-2.9792,-2.9792,-2.9792,-2.9792,-3.0123,-3.0111,-2.934,-2.952,-2.9455,-2.8682,-2.822,-2.7795,-2.7305,-2.7381,-2.7269,-2.6773,-2.7307,-2.7625,-2.7625,-2.7625,-2.7625,-2.7625,-2.7625,-2.7625,-2.774,-2.8238,-2.8559,-2.8764,-2.9287,-2.9585,-3.1509,-3.3493,-3.4691,-3.6924,-3.2925,-2.798,0.0,0.0,-1.8756,-1.7227,-1.7144,-1.7363,-1.729,-1.7228,-1.717,-1.7092,-1.731,-1.8295,-2.0534,0.0,0.0,0.0,0.0,0.0,0.0,-3.4074,-3.5504,-3.5504,-3.5504,0.0,-3.5504,-3.5504,-3.5198,-3.4595,-3.4056,-3.3311,-3.2417,-3.2417,-3.169,-3.0368,-3.0368,-3.0228,-2.9792,-2.9792,-2.9792,-2.9792,-2.9792,-2.9792,-2.9792,-2.9792,-2.9792,-2.9792,-2.9792,-2.9792,-2.9624,-2.8303,-2.7799,-2.7649,-2.6373,-2.5895,-2.5895,-2.5895,-2.5895,-2.5895,-2.5895,-2.5895,-2.5895,-2.5895,-2.5895,-2.5895,-2.5895,-2.5895,-2.5895,-2.5895,-2.5895,-2.6063,-2.6727,-2.7348,-2.7971,-2.8633,-2.9378,-2.9792,-2.9792,-2.9792,-2.9792,-2.9792,-3.0457,-3.0555,-2.9379,-2.9894,-2.993,-2.8722,-2.8587,-2.852,-2.8324,-2.8189,-2.8025,-2.7817,-2.7661,-2.7625,-2.7625,-2.7625,-2.7625,-2.7625,-2.7625,-2.774,-2.802,-2.835,-2.8764,-2.9305,-2.9633,-3.0113,-2.5189,-2.7548,-2.9507,-2.9922,-2.7703,-2.5029,-2.3585,0.0,-1.9253,-1.7286,-1.7385,-1.7627,-1.7095,-1.7243,-1.742,-1.7381,-1.7676,-1.8478,0.0,0.0,0.0,0.0,0.0,0.0,0.0,0.0,-3.5504,-3.5504,-3.5504,-3.5504,-3.5504,-3.5008,-3.4927,-3.5198,-3.4624,-3.4192,-3.3919,-3.2889,-3.2042,-3.1368,-3.0722,-3.0228,-2.9792,-2.9792,-2.9792,-2.9792,-2.9792,-2.9792,-2.9792,-2.9792,-2.9792,-2.9792,-2.9792,-2.9546,-2.904,-2.8131,-2.758,-2.7033,-2.6229,-2.5895,-2.5895,-2.5895,-2.5895,-2.5895,-2.5895,-2.5895,-2.5895,-2.5895,-2.5895,-2.5895,-2.5895,-2.5895,-2.5895,-2.5895,-2.5895,-2.6063,-2.6727,-2.7348,-2.7971,-2.8633,-2.9378,-2.9792,-2.9792,-2.9792,-2.9792,-2.9792,-3.0228,-3.0258,-2.9308,-2.9671,-2.9658,-2.8722,-2.8894,-2.8886,-2.8385,-2.8644,-2.8498,-2.7929,-2.8106,-2.8068,-2.764,-2.7625,-2.7625,-2.7625,-2.7625,-2.786,-2.835,-2.8873,-2.9645,-3.0593,-3.0716,-3.0855,0.0,-2.3879,-2.5848,-2.6373,-2.4796,0.0,0.0,0.0,-1.8564,-1.7053,-1.7339,-1.7689,-1.7035,-1.7409,-1.7739,-1.7532,-1.7909,-1.8581,0.0,0.0,0.0,0.0,0.0,0.0,0.0,-3.4109,-3.509,-3.5133,-3.5141,-3.509,-3.5133,-3.4499,-3.4365,-3.4854,-3.4476,-3.4192,-3.3988,-3.296,-3.2114,-3.1455,-3.0722,-3.0228,-2.9792,-2.9792,-2.9792,-2.9792,-2.9792,-2.9792,0.0,-2.9792,-2.9792,-2.9792,-2.9792,-2.9546,-2.9052,-2.8131,-2.758,-2.7115,-2.6229,-2.5895,-2.5895,-2.5895,-2.5895,-2.5895,-2.5895,-2.5895,-2.5895,-2.5895,-2.5895,-2.5895,-2.5895,-2.5895,-2.5895,-2.5895,-2.5895,-2.6146,-2.7033,-2.7499,-2.8051,-2.8961,-2.9534,-2.9792,-2.9792,-2.9792,-2.9792,-2.9792,-3.0152,-3.011,-2.9404,-2.9592,-2.9669,-2.9386,-2.9334,-2.9366,-2.9657,-2.9516,-2.9132,-2.863,-2.8595,-2.8412,-2.7979,-2.7709,-2.7625,-2.7625,-2.781,-2.8189,-2.8654,-2.9467,-3.0351,-3.119,-3.119,-3.119,0.0,-2.2099,0.0,0.0,0.0,0.0,0.0,0.0,0.0,-1.6635,-1.7149,-1.7555,-1.7157,-1.7631,-1.8037,-1.769,-1.8199,0.0,0.0,0.0,0.0,0.0,0.0,0.0,-2.9734,-3.2554,-3.4477,-3.4624,-3.4448,-3.4408,-3.461,-3.4056,-3.3713,-3.3713,-3.3728,-3.3451,-3.3058,-3.2632,-3.1982,-3.1061,-3.0596,-3.0228,-2.9869,-2.9792,-2.9792,-2.9792,-2.9792,-2.9792,-2.9792,-2.9792,-2.9792,-2.9792,-2.9792,-2.9714,-2.9546,-2.8303,-2.773,-2.7487,-2.6302,-2.5895,-2.5895,-2.5895,-2.5895,-2.5895,-2.5895,-2.5895,-2.5895,-2.5895,-2.5895,-2.5895,-2.5895,-2.5895,-2.5895,-2.5895,-2.5895,-2.6218,-2.7487,-2.781,-2.8211,-2.9468,-2.9792,-2.9792,-2.9792,-2.9792,-2.9792,-2.9792,-3.0152,-3.015,-2.9548,-2.966,-2.9979,-3.0473,-2.985,-2.9973,-3.1594,-3.0587,-2.987,-2.9884,-2.9124,-2.8652,-2.8607,-2.7985,-2.7625,-2.7625,-2.8286,-2.8764,-2.906,-3.0238,-3.1012,-3.136,-3.1292,-3.1275,-1.8493,0.0,-1.8854,-1.9081,-1.8782,-1.8361,0.0,0.0,0.0,0.0,0.0,-1.7683,-1.7674,-1.8093,-1.8579,-1.8877,-1.9321,0.0,0.0,0.0,0.0,0.0,0.0,-3.3849,-3.2786,-3.3839,-3.4735,-3.5279,-3.4467,-3.4113,-3.4595,-3.3728,-3.3185,-3.3185,-3.2789,-3.2917,-3.3589,-3.2832,-3.2273,-3.2055,-3.096,-3.0368,-3.0216,-2.9934,-2.9792,-2.9792,-2.9792,-2.9792,-2.9792,-2.9792,-2.9792,-2.9792,-2.9792,-2.9209,-2.8223,-2.7891,-2.7174,-2.6302,-2.5979,-2.5895,-2.5895,-2.5895,-2.5895,-2.5895,-2.5895,-2.5895,-2.5895,-2.5895,-2.5895,-2.5895,-2.5895,-2.5895,-2.5895,-2.5895,-2.5895,-2.6146,-2.6962,-2.7499,-2.8051,-2.8882,-2.9456,-2.9792,-2.9792,-2.9792,-2.9792,-2.9792,-3.0152,-3.0147,-2.9359,-2.961,-2.9739,-2.9633,-2.9791,-3.0248,-3.0997,-3.0733,-3.0514,-3.0369,-2.9719,-2.9131,-2.8622,-2.8152,-2.7905,-2.7905,-2.8935,-2.9903,-3.0794,-3.1575,-3.2242,-3.2882,-3.229,-3.2019,-1.8135,-1.7882,-1.7598,-1.7282,-1.7447,-1.757,0.0,0.0,0.0,0.0,0.0,0.0,-1.7682,0.0,0.0,-1.9201,-2.0283,0.0,0.0,0.0,0.0,0.0,0.0,-3.4434,0.0,-3.422,-3.4691,-3.5052,-3.4128,-3.377,-3.4192,-3.3185,-3.2646,-3.2646,-3.2386,-3.2444,-3.3058,-3.2417,-3.2055,-3.1982,-3.111,-3.0596,-3.0368,-3.0152,-2.9934,-2.9792,-2.9792,-2.9792,-2.9792,-2.9792,-2.9792,-2.9792,-2.9456,-2.8882,-2.8223,-2.7592,-2.6951,-2.6313,-2.599,-2.5895,-2.5895,-2.5895,-2.5895,-2.5895,-2.5895,-2.5895,-2.5895,-2.5895,-2.5895,-2.5895,-2.5895,-2.5895,-2.5895,-2.5895,-2.6146,-2.655,-2.7185,-2.7822,-2.8462,-2.9131,-2.9546,-2.9792,-2.9792,-2.9792,-2.9869,-3.0088,-3.0292,-3.0289,-3.0038,-2.986,-2.9996,-3.0578,-3.0304,-3.0488,-3.1516,-3.1323,-3.1056,-3.0944,-3.0357,-2.9903,-2.972,-2.9063,-2.8804,-2.9028,-2.9689,-3.0613,-3.1809,-3.2133,-3.2662,-3.3389,-3.2983,-3.2797,-1.862,-1.8442,-1.8152,-1.7625,-1.7693,-1.7868,-1.7598,0.0,0.0,0.0,0.0,0.0,0.0,0.0,0.0,0.0,0.0,0.0,0.0,0.0,0.0,0.0,0.0,0.0,-3.4071,-3.4351,-3.461,-3.481,-3.3951,-3.348,-3.3796,-3.2846,-3.2314,-3.2182,-3.2182,-3.2182,-3.2182,-3.1863,-3.1703,-3.1716,-3.1272,-3.0898,-3.0583,-3.052,-3.0305,-3.0011,-2.9946,-2.9869,-2.9869,-2.9869,-2.9792,-2.9714,-2.9052,-2.8712,-2.8474,-2.729,-2.682,-2.6644,-2.6063,-2.5895,-2.5895,-2.5895,-2.5895,-2.5895,-2.5895,-2.5979,-2.6063,-2.6063,-2.5979,-2.5895,-2.5895,-2.599,-2.6063,-2.6063,-2.6561,-2.7196,-2.781,-2.8383,-2.8961,-2.9702,-2.9792,-2.9792,-2.9792,-2.9869,-3.0011,-3.0368,-3.0508,-3.0633,-3.093,-3.0419,-3.05,-3.1881,-3.0913,-3.0771,-3.2258,-3.1854,-3.1482,-3.1482,-3.0896,-3.0654,-3.0892,-3.001,-2.9783,-3.0351,-3.045,-3.1175,-3.2459,-3.256,-3.3,-3.3744,-3.3626,-3.3575,-1.9026,-1.9276,-1.919,-1.7841,-1.776,-1.7922,-1.772,0.0,0.0,0.0,0.0,0.0,0.0,0.0,0.0,0.0,0.0,0.0,0.0,0.0,0.0,0.0,0.0,-3.5875,-3.5278,-3.507,-3.519,-3.5767,-3.4491,-3.3742,-3.3796,-3.3185,-3.2646,-3.2241,-3.2182,-3.2182,-3.2182,-3.2169,-3.2096,-3.2096,-3.1716,-3.1482,-3.1408,-3.1048,-3.0911,-3.0836,-3.0457,-3.0292,-3.0292,-2.9934,-2.9792,-2.9714,-2.9052,-2.8462,-2.7891,-2.7126,-2.6561,-2.6063,-2.5906,-2.5895,-2.5895,-2.5895,-2.5895,-2.5895,-2.5895,-2.6313,-2.6727,-2.6727,-2.6313,-2.5895,-2.5895,-2.6313,-2.6727,-2.6727,-2.7196,-2.781,-2.8462,-2.8712,-2.8961,-2.9702,-2.9792,-2.9792,-2.9792,-3.0075,-3.0292,-3.0368,-3.096,-3.1235,-3.0817,-3.0854,-3.101,-3.1162,-3.0863,-3.094,-3.1616,-3.1541,-3.1482,-3.1482,-3.1136,-3.0768,-3.0432,-2.9984,-3.0038,-3.0651,-3.1233,-3.2127,-3.3237,-3.3846,-3.4539,-3.5267,-3.4624,-3.432,-1.8491,-1.87,-1.8874,-1.9084,-1.8911,-1.8575,-1.8084,0.0,0.0,0.0,0.0,0.0,0.0,0.0,0.0,0.0,0.0,0.0,0.0,0.0,0.0,0.0,0.0,-3.6333,-3.6091,-3.5965,-3.5879,-3.5973,-3.4876,-3.4259,-3.4259,-3.3465,-3.2917,-3.2646,-3.2386,-3.2182,-3.2182,-3.2182,-3.2182,-3.2182,-3.2023,-3.179,-3.1556,-3.1421,-3.1198,-3.0986,-3.0823,-3.0748,-3.0672,-3.0533,-3.0305,-2.9998,-2.9015,-2.8279,-2.7649,-2.6715,-2.6146,-2.5979,-2.6313,-2.6479,-2.6467,-2.6857,-2.694,-2.694,-2.694,-2.7185,-2.7348,-2.7348,-2.6951,-2.6561,-2.6857,-2.6869,-2.6974,-2.7278,-2.7903,-2.8383,-2.8712,-2.904,-2.9534,-2.9998,-3.0152,-3.0152,-3.0394,-3.0609,-3.0823,-3.1035,-3.1334,-3.1669,-3.1891,-3.1474,-3.1316,-3.1887,-3.127,-3.097,-3.1467,-3.1482,-3.1597,-3.1769,-3.194,-3.1987,-3.1742,-3.1903,-3.205,-3.2144,-3.2505,-3.3111,-3.3998,-3.432,-3.4878,-3.5605,-3.5267,-3.5098,-1.8153,-1.8375,-1.8767,-1.9946,-1.9803,-1.9444,-1.9738,0.0,0.0,0.0,0.0,0.0,0.0,0.0,0.0,0.0,0.0,0.0,0.0,-3.4715,-3.518,-3.5446,-3.6169,-3.6704,-3.6754,-3.6616,-3.6367,-3.6178,-3.5299,-3.4684,-3.439,-3.3582,-3.2988,-3.257,-3.2162,-3.1959,-3.1965,-3.1965,-3.2046,-3.2182,-3.2182,-3.2023,-3.1703,-3.1703,-3.1569,-3.1286,-3.1211,-3.1123,-3.1123,-3.0911,-3.0672,-3.0279,-2.8991,-2.8199,-2.7718,-2.6775,-2.6456,-2.6385,-2.6809,-2.6974,-2.7115,-2.7499,-2.7649,-2.7799,-2.7799,-2.7891,-2.8051,-2.8051,-2.7672,-2.7441,-2.773,-2.758,-2.7441,-2.7891,-2.8621,-2.9184,-2.9184,-2.9677,-3.0164,-3.0444,-3.052,-3.0672,-3.0986,-3.1061,-3.1272,-3.1556,-3.1776,-3.2146,-3.2722,-3.2036,-3.1701,-3.2392,-3.154,-3.1087,-3.1467,-3.1582,-3.1811,-3.2191,-3.2647,-3.2914,-3.3032,-3.3512,-3.3644,-3.3423,-3.3575,-3.3931,-3.4489,-3.4675,-3.5064,-3.5622,-3.5622,-3.5622,-1.8653,-1.9288,-1.9866,-1.9567,-1.9515,0.0,-2.383,-2.3707,0.0,0.0,0.0,0.0,0.0,0.0,0.0,0.0,0.0,0.0,-3.688,0.0,-3.7275,-3.7322,-3.737,-3.7417,-3.7405,-3.6862,-3.6492,-3.6492,-3.5812,-3.4961,-3.3791,-3.3696,-3.2881,-3.1316,-3.1235,-3.124,-3.1355,-3.1355,-3.1639,-3.2182,-3.2182,-3.2169,-3.2182,-3.2182,-3.2169,-3.2096,-3.1716,-3.1556,-3.1482,-3.0735,-3.0444,-3.0292,-2.9184,-2.8383,-2.7799,-2.8108,-2.7947,-2.7568,-2.7044,-2.7278,-2.7649,-2.7115,-2.7348,-2.7799,-2.7799,-2.8223,-2.8712,-2.8712,-2.8712,-2.8554,-2.7971,-2.8223,-2.8633,-2.8712,-2.9509,-3.0279,-3.0279,-3.0596,-3.0911,-3.0986,-3.0986,-3.0986,-3.0986,-3.1347,-3.1556,-3.1629,-3.2345,-3.2708,-3.2139,-3.2368,-3.2378,-3.1842,-3.159,-3.1467,-3.1482,-3.1769,-3.2247,-3.2895,-3.2701,-3.2771,-3.3352,-3.3395,-3.3415,-3.3406,-3.4066,-3.4438,-3.4489,-3.5199,-3.5571,-3.5622,-3.5622,-3.5622,-1.8052,-1.9304,-2.073,-2.105,0.0,0.0,0.0,0.0,0.0,0.0,0.0,0.0,0.0,0.0,0.0,0.0,0.0,-3.541,-3.6643,-3.7196,-3.748,-3.748,-3.7301,-3.7181,-3.7181,-3.6554,-3.6163,-3.6163,-3.5341,-3.4692,-3.4233,-3.3515,-3.2794,-3.2098,-3.1429,-3.1334,-3.1736,-3.1428,-3.1585,-3.2182,-3.2182,-3.2182,-3.2182,-3.2182,-3.2182,-3.2182,-3.2023,-3.195,-3.195,-3.1643,-3.1198,-3.0672,-2.9341,-2.8383,-2.7879,-2.8267,-2.8267,-2.8267,-2.8676,-2.8834,-2.8858,-2.9028,-2.925,-2.9406,-2.9406,-2.9806,-3.0203,-3.0203,-3.0203,-2.9973,-2.9275,-2.8961,-2.8949,-2.9664,-3.0126,-3.0444,-3.0748,-3.0911,-3.1061,-3.1347,-3.1629,-3.185,-3.173,-3.2417,-3.2818,-3.2547,-3.2709,-3.2936,-3.3044,-3.2449,-3.2112,-3.2167,-3.1811,-3.1482,-3.1482,-3.1826,-3.2302,-3.2933,-3.3272,-3.3746,-3.4421,-3.4662,-3.4793,-3.4793,-3.5047,-3.5199,-3.5199,-3.547,-3.5622,-3.5622,-3.5622,-3.5622,-1.7757,-1.9086,-2.0782,0.0,0.0,0.0,0.0,0.0,0.0,0.0,0.0,0.0,0.0,0.0,0.0,0.0,-3.4407,-3.571,-3.6627,-3.718,-3.748,-3.7361,-3.7121,-3.6954,-3.6877,-3.6352,-3.5882,-3.567,-3.4916,-3.4292,-3.3873,-3.3117,-3.2452,-3.2123,-3.1418,-3.1199,-3.1699,-3.1378,-3.1512,-3.2171,-3.216,-3.2182,-3.2182,-3.2182,-3.2182,-3.2169,-3.1979,-3.2006,-3.2155,-3.1618,-3.1143,-3.0651,-2.982,-2.925,-2.8834,-2.9147,-2.9225,-2.9303,-2.9833,-2.9935,-2.996,-3.019,-3.0432,-3.0596,-3.0596,-3.0748,-3.0986,-3.0986,-3.0986,-3.0911,-3.052,-2.9973,-2.9651,-3.0432,-3.0672,-3.081,-3.1123,-3.1286,-3.1434,-3.1716,-3.2082,-3.23,-3.2255,-3.2917,-3.3451,-3.3058,-3.322,-3.3417,-3.3652,-3.2878,-3.2239,-3.2184,-3.1735,-3.1539,-3.1655,-3.1925,-3.2398,-3.3108,-3.3783,-3.4415,-3.5088,-3.5396,-3.5622,-3.5622,-3.5622,-3.5622,-3.5622,-3.5622,-3.5622,-3.5622,-3.5622,-3.5622,-1.7977,-1.8695,0.0,0.0,0.0,0.0,0.0,0.0,0.0,0.0,0.0,0.0,0.0,0.0,0.0,-3.233,-3.4171,-3.5884,-3.7275,-3.7464,-3.7361,-3.706,-3.7015,-3.6862,-3.6538,-3.6163,-3.5685,-3.5017,-3.4645,-3.3888,-3.2587,-3.2512,-3.1946,-3.0851,-3.0777,-3.0858,-3.104,-3.1068,-3.1402,-3.2013,-3.2157,-3.2169,-3.2182,-3.2182,-3.2182,-3.2141,-3.1544,-3.1626,-3.2074,-3.0445,-2.9887,-3.0189,-3.0751,-3.0973,-3.096,-3.0973,-3.0973,-3.0885,-3.0215,-3.0469,-3.0885,-3.0215,-3.0469,-3.0973,-3.096,-3.0973,-3.096,-3.1048,-3.1048,-3.111,-3.1663,-3.1381,-3.1048,-3.0986,-3.1347,-3.1629,-3.1629,-3.1936,-3.2255,-3.2255,-3.2255,-3.2255,-3.2255,-3.2646,-3.2988,-3.2988,-3.3919,-3.4361,-3.3761,-3.3576,-3.2991,-3.1616,-3.1482,-3.1655,-3.1996,-3.2247,-3.2711,-3.3387,-3.4068,-3.4707,-3.5088,-3.5396,-3.5622,-3.5622,-3.5622,-3.5622,-3.5622,-3.5622,-3.5622,-3.5622,-3.5622,-3.5622,-1.91,-2.0444,0.0,0.0,0.0,0.0,0.0,0.0,0.0,0.0,0.0,0.0,0.0,0.0,0.0,-3.3024,-3.4407,-3.5638,-3.6287,-3.6792,-3.6828,-3.6028,-3.6137,-3.5859,-3.4851,-3.4863,-3.4691,-3.4029,-3.3426,-3.2931,-3.2542,-3.2078,-3.1617,-3.1292,-3.097,-3.1039,-3.1464,-3.1147,-3.1288,-3.1881,-3.1986,-3.2105,-3.2182,-3.2182,-3.1951,-3.1544,-3.1368,-3.1151,-3.0907,-3.0111,-2.9861,-2.9932,-3.0236,-3.0124,-2.981,-3.0507,-3.0546,-3.0201,-3.0259,-3.0259,-3.0117,-2.9889,-2.9974,-3.0188,-3.0586,-3.0866,-3.124,-3.2055,-3.225,-3.2403,-3.3031,-3.3087,-3.2818,-3.2128,-3.2055,-3.2273,-3.2489,-3.2974,-3.3325,-3.3325,-3.3659,-3.3796,-3.3381,-3.4099,-3.4587,-3.4206,-3.4361,-3.4312,-3.3609,-3.3321,-3.2899,-3.2273,-3.1983,-3.1883,-3.1996,-3.2247,-3.2711,-3.3387,-3.3832,-3.4399,-3.5088,-3.5396,-3.5622,-3.5622,-3.5622,-3.5622,-3.5622,-3.5622,-3.5622,-3.5622,-3.5622,-3.5622,-1.9686,0.0,0.0,0.0,0.0,0.0,0.0,0.0,0.0,0.0,0.0,0.0,-3.258,-3.2748,0.0,-3.3805,-3.4508,-3.5133,-3.5598,-3.6084,-3.6091,-3.536,-3.5354,-3.4958,-3.4046,-3.4029,-3.3829,-3.3276,-3.2871,-3.2452,-3.2138,-3.1691,-3.1482,-3.1482,-3.1219,-3.1235,-3.1633,-3.1409,-3.1464,-3.176,-3.1867,-3.1969,-3.2069,-3.1921,-3.1626,-3.1287,-3.1042,-3.0459,-2.9726,-2.9914,-2.9899,-2.9738,-2.9905,-2.986,-2.9724,-3.021,-3.0201,-3.0046,-3.0336,-3.0254,-3.0046,-3.0046,-3.0171,-3.0351,-3.0678,-3.1015,-3.1485,-3.2184,-3.2416,-3.2625,-3.3537,-3.3374,-3.2965,-3.2989,-3.296,-3.303,-3.3255,-3.3589,-3.3796,-3.3796,-3.4056,-3.4192,-3.3865,-3.4558,-3.5052,-3.4662,-3.4777,-3.4637,-3.3963,-3.3502,-3.305,-3.2542,-3.2219,-3.2038,-3.215,-3.2428,-3.2796,-3.3314,-3.3694,-3.4101,-3.4594,-3.5118,-3.5396,-3.5396,-3.5532,-3.5622,-3.5622,-3.5622,-3.5622,-3.5622,-3.5622,-3.5667,0.0,0.0,0.0,0.0,0.0,0.0,0.0,0.0,0.0,0.0,0.0,0.0,-3.4378,-3.3451,-3.3061,-3.4542,-3.4569,-3.4619,-3.5245,-3.5403,-3.5347,-3.493,-3.4616,-3.4278,-3.3726,-3.3502,-3.3126,-3.2601,-3.2556,-3.2285,-3.1524,-3.1495,-3.1509,-3.1482,-3.1482,-3.1482,-3.1482,-3.1633,-3.1745,-3.176,-3.1737,-3.1833,-3.1854,-3.1529,-3.1319,-3.1237,-3.0637,-2.9738,-2.8797,-2.9915,-3.0038,-2.9522,-2.9711,-2.9994,-3.0174,-2.987,-2.9994,-3.031,-3.031,-3.0269,-3.0297,-3.0297,-3.0512,-3.0842,-3.0964,-3.1293,-3.1618,-3.1811,-3.1904,-3.2177,-3.3425,-3.2875,-3.2392,-3.3609,-3.3883,-3.3815,-3.3747,-3.3815,-3.3883,-3.3883,-3.3815,-3.3897,-3.3969,-3.4374,-3.4655,-3.4714,-3.5184,-3.5314,-3.4625,-3.4027,-3.3351,-3.2631,-3.2276,-3.2206,-3.2398,-3.2718,-3.3058,-3.3361,-3.3694,-3.3899,-3.3949,-3.4691,-3.5088,-3.5088,-3.5441,-3.5622,-3.5622,-3.5622,-3.5622,-3.5622,-3.5622,-3.58,0.0,0.0,0.0,0.0,0.0,0.0,0.0,0.0,0.0,0.0,0.0,0.0,-3.1726,-3.3258,-3.4559,-3.3762,-3.4543,-3.5205,-3.5037,-3.5551,-3.5642,-3.4797,-3.4801,-3.411,-3.2276,-3.2257,-3.1913,-3.082,-3.0744,-3.0996,-3.1449,-3.152,-3.1528,-3.1524,-3.1482,-3.1482,-3.1482,-3.179,-3.1908,-3.1908,-3.1707,-3.1901,-3.2421,-3.189,-3.149,-3.1025,-3.0453,-3.0015,-2.9789,-3.0058,-2.9834,-2.937,-2.9914,-2.9624,-2.9034,-2.9429,-2.9558,-2.9522,-2.9522,-2.9471,-2.9374,-2.9374,-2.911,-2.8919,-2.9808,-3.0131,-3.0527,-3.1928,-3.2526,-3.2901,-3.3668,-3.4075,-3.4386,-3.4678,-3.4213,-3.3645,-3.3313,-3.4075,-3.4635,-3.4304,-3.4258,-3.4409,-3.497,-3.5123,-3.5321,-3.5676,-3.6037,-3.5934,-3.4938,-3.4681,-3.4226,-3.3318,-3.29,-3.2734,-3.2773,-3.2843,-3.315,-3.3745,-3.3848,-3.405,-3.4349,-3.4851,-3.5088,-3.5088,-3.5441,-3.5622,-3.5622,-3.5622,-3.5711,-3.5932,-3.5932,-3.6156,0.0,0.0,0.0,0.0,0.0,0.0,0.0,0.0,0.0,0.0,0.0,-3.2978,-3.1785,-3.2831,-3.3727,-3.3146,-3.3545,-3.3876,-3.3665,-3.4298,-3.4477,-3.3532,-3.3774,-3.3403,-3.1823,-3.1461,-3.0792,-2.9645,-2.9795,-2.9988,-3.0258,-3.0463,-3.0734,-3.1031,-3.0746,-3.0746,-3.1046,-3.1011,-3.101,-3.101,-3.098,-3.1146,-3.1526,-3.1733,-3.1474,-3.0928,-3.0655,-3.0321,-2.9986,-2.9986,-2.9748,-2.9444,-2.9756,-2.9454,-2.8914,-2.9575,-2.9352,-2.8778,-2.9073,-2.8958,-2.8624,-2.8785,-2.8727,-2.8737,-2.9466,-3.0142,-3.0769,-3.1717,-3.2466,-3.3172,-3.3779,-3.4154,-3.4422,-3.4699,-3.472,-3.4539,-3.4321,-3.4815,-3.5147,-3.4778,-3.4663,-3.4771,-3.5171,-3.5233,-3.5298,-3.549,-3.5768,-3.5676,-3.4759,-3.4645,-3.4342,-3.3475,-3.3122,-3.2935,-3.3118,-3.3293,-3.3607,-3.4151,-3.4201,-3.43,-3.4497,-3.4899,-3.5088,-3.5088,-3.5441,-3.5667,-3.58,-3.58,-3.6002,-3.635,-3.635,-3.6603,0.0,0.0,0.0,0.0,0.0,0.0,0.0,0.0,0.0,0.0,0.0,-3.2331,-3.2657,-3.2536,-3.2446,-3.2507,-3.2453,-3.2373,-3.2258,-3.2883,-3.3176,-3.2504,-3.27,-3.2545,-3.1754,-3.0905,-2.9924,-2.8743,-2.9049,-2.9122,-2.8797,-2.9295,-2.9823,-3.0423,-2.9943,-2.9928,-3.0438,-3.0167,-3.0,-3.0053,-3.0314,-3.0408,-3.0294,-3.1261,-3.1395,-3.0832,-3.0832,-3.0463,-2.9959,-2.9959,-2.982,-2.9522,-2.9522,-2.9349,-2.9129,-2.966,-2.9201,-2.8383,-2.89,-2.8728,-2.821,-2.8519,-2.8763,-2.9083,-2.9455,-3.0266,-3.1089,-3.125,-3.1971,-3.2851,-3.365,-3.375,-3.3836,-3.451,-3.5138,-3.5573,-3.5358,-3.5412,-3.5374,-3.5007,-3.4991,-3.507,-3.507,-3.5165,-3.5244,-3.5203,-3.5388,-3.5354,-3.457,-3.4576,-3.4353,-3.3684,-3.3356,-3.3293,-3.3543,-3.3832,-3.4201,-3.4594,-3.4675,-3.4754,-3.4802,-3.5224,-3.5453,-3.5453,-3.565,-3.5871,-3.6131,-3.6174,-3.6416,-3.6825,-3.6825,-3.7152,0.0,0.0,0.0,0.0,0.0,0.0,0.0,0.0,0.0,0.0,-3.1998,-3.2285,-3.2343,-3.2824,-3.2858,-3.1601,-3.2437,-3.3043,-3.2386,-3.2942,-3.338,-3.3237,-3.2984,-3.2319,-3.1148,-3.0402,-2.9366,-2.7875,-2.7825,-2.8045,-2.8456,-2.9091,-2.9672,-3.0317,-3.0046,-2.9993,-3.0333,-3.0308,-3.0469,-3.069,-3.0958,-3.0793,-3.0242,-3.0958,-3.098,-3.0402,-3.0402,-3.0357,-3.028,-3.028,-3.0,-2.9609,-2.9609,-2.9337,-2.8963,-2.9051,-2.9034,-2.9068,-2.9171,-2.8912,-2.8568,-2.8869,-2.858,-2.8319,-2.9118,-2.9449,-2.9735,-3.0647,-3.12,-3.1752,-3.2753,-3.3451,-3.4054,-3.4849,-3.5318,-3.5368,-3.4412,-3.4693,-3.502,-3.4627,-3.5049,-3.5456,-3.5456,-3.5909,-3.621,-3.6013,-3.6185,-3.599,-3.5053,-3.5182,-3.5078,-3.4395,-3.4299,-3.43,-3.4349,-3.4399,-3.4594,-3.4994,-3.5402,-3.5769,-3.6122,-3.6626,-3.6904,-3.6904,-3.6522,-3.6416,-3.6586,-3.6921,-3.7152,-3.7377,-3.7377,-3.7667,0.0,0.0,0.0,0.0,0.0,0.0,0.0,0.0,0.0,-3.0611,-3.0762,-3.0982,-3.1579,-3.1935,-3.1952,-3.1309,-3.1732,-3.2053,-3.1715,-3.2307,-3.2628,-3.2222,-3.2219,-3.1812,-3.0664,-2.9824,-2.8997,-2.8176,-2.778,-2.77,-2.7961,-2.851,-2.9042,-2.9556,-2.8672,-2.8545,-2.9177,-2.8601,-2.8467,-2.8716,-2.9021,-2.8907,-2.8474,-2.9305,-3.0117,-3.0791,-3.0791,-3.0573,-3.0214,-3.0214,-2.9999,-2.9679,-2.9679,-2.9459,-2.9192,-2.9569,-2.9305,-2.8798,-2.9146,-2.891,-2.8545,-2.8778,-2.8611,-2.8523,-2.9265,-2.9769,-3.0228,-3.083,-3.1544,-3.2229,-3.2725,-3.3217,-3.3789,-3.4589,-3.4543,-3.4341,-3.4305,-3.4514,-3.4621,-3.4237,-3.4785,-3.5298,-3.5298,-3.5514,-3.5679,-3.5564,-3.5742,-3.564,-3.4821,-3.5183,-3.525,-3.4562,-3.4497,-3.4626,-3.4991,-3.5021,-3.5207,-3.5739,-3.6088,-3.6405,-3.6563,-3.6981,-3.7248,-3.7377,-3.7038,-3.696,-3.7135,-3.7303,-3.7578,-3.7949,-3.7949,-3.8186,0.0,0.0,0.0,0.0,0.0,0.0,0.0,0.0,0.0,0.0,-2.9673,-2.9693,-3.0475,-3.0937,-3.119,-3.119,-3.119,-3.1123,-3.0954,-3.1376,-3.1444,-3.0622,-3.0938,-3.085,-2.9852,-2.9236,-2.8686,-2.8216,-2.7803,-2.7585,-2.7489,-2.783,-2.8282,-2.8832,-2.7557,-2.7209,-2.7829,-2.7159,-2.6926,-2.7099,-2.728,-2.728,-2.713,-2.8008,-2.9143,-3.0433,-3.0607,-3.0385,-2.9911,-2.9911,-2.9753,-2.9545,-2.9545,-2.9448,-2.9314,-2.9809,-2.9326,-2.8554,-2.8984,-2.8845,-2.8444,-2.8748,-2.8826,-2.8967,-2.9589,-3.0154,-3.0664,-3.1002,-3.1659,-3.234,-3.261,-3.2891,-3.3305,-3.4049,-3.3795,-3.3558,-3.41,-3.4218,-3.4182,-3.4069,-3.4543,-3.5011,-3.5195,-3.5228,-3.5228,-3.5228,-3.5426,-3.5365,-3.4837,-3.5233,-3.5349,-3.4916,-3.4866,-3.5085,-3.5571,-3.5616,-3.5837,-3.6259,-3.6684,-3.6904,-3.6904,-3.7323,-3.765,-3.7809,-3.765,-3.7614,-3.7703,-3.7774,-3.8,-3.8405,-3.8419,-3.859,0.0,0.0,0.0,0.0,0.0,0.0,0.0,0.0,0.0,-2.9194,-2.9187,-2.9042,-2.9093,-3.0243,-3.119,-3.119,-3.119,-3.0954,-3.026,-3.0192,-2.9808,-2.8753,-2.9276,-2.9313,-2.8387,-2.8695,-2.8436,-2.7333,-2.7482,-2.7459,-2.7116,-2.7083,-2.7503,-2.8418,-2.7363,-2.6712,-2.6483,-2.6859,-2.7115,-2.7099,-2.7099,-2.7099,-2.713,-2.7794,-2.8142,-2.83,-2.8948,-2.917,-2.9138,-2.9138,-2.9138,-2.9138,-2.9138,-2.9138,-2.9092,-2.917,-2.8952,-2.87,-2.8732,-2.8604,-2.8493,-2.9075,-2.9259,-2.938,-2.9973,-3.0179,-3.0297,-3.0618,-3.0775,-3.1041,-3.2073,-3.2341,-3.2527,-3.3288,-3.344,-3.3423,-3.3457,-3.3457,-3.366,-3.4353,-3.4479,-3.4732,-3.5442,-3.5577,-3.5577,-3.5577,-3.5611,-3.5566,-3.5532,-3.5549,-3.5656,-3.5888,-3.5932,-3.6002,-3.6216,-3.6259,-3.6259,-3.6301,-3.7017,-3.7469,-3.7469,-3.8219,-3.8627,-3.8627,-3.8627,-3.8501,-3.8256,-3.8501,-3.8658,-3.8676,-3.8792,-3.8881,0.0,0.0,0.0,0.0,0.0,0.0,0.0,0.0,-2.5388,-2.6989,-2.715,-2.7414,-2.8752,-2.982,-3.0345,-2.9854,-3.0581,-3.0768,-2.955,-2.9803,-2.969,-2.8636,-2.8555,-2.8387,-2.7862,-2.7457,-2.7117,-2.6882,-2.644,-2.6234,-2.6336,-2.5935,-2.6228,-2.7361,-2.6423,-2.5685,-2.5206,-2.5404,-2.5519,-2.5519,-2.6046,-2.6205,-2.6023,-2.6953,-2.7235,-2.7109,-2.8056,-2.8711,-2.9075,-2.9075,-2.9075,-2.9075,-2.9075,-2.9075,-2.9075,-2.9075,-2.9029,-2.8982,-2.8982,-2.8889,-2.8905,-2.938,-2.9499,-2.9633,-3.03,-3.0526,-3.0609,-3.0952,-3.1032,-3.1083,-3.1472,-3.1579,-3.1647,-3.1935,-3.2341,-3.2544,-3.2087,-3.273,-3.3339,-3.3119,-3.3846,-3.4421,-3.4235,-3.4201,-3.4353,-3.4827,-3.4895,-3.5125,-3.5776,-3.5844,-3.5932,-3.6174,-3.6174,-3.6276,-3.6544,-3.6544,-3.6708,-3.6992,-3.745,-3.7792,-3.8018,-3.8451,-3.8707,-3.8707,-3.8707,-3.8645,-3.8583,-3.8732,-3.8822,-3.8822,-3.8979,-3.9073,-2.0025,0.0,0.0,0.0,0.0,0.0,0.0,0.0,-2.3586,-2.5125,-2.5642,-2.6212,-2.7585,-2.8395,-2.8864,-2.8848,-2.9597,-2.9738,-2.8498,-2.8749,-2.8586,-2.7271,-2.7355,-2.7299,-2.676,-2.6565,-2.6404,-2.6358,-2.5849,-2.5483,-2.5289,-2.5015,-2.5167,-2.5872,-2.5173,-2.4667,-2.4348,-2.4523,-2.4589,-2.4589,-2.5262,-2.547,-2.5294,-2.6296,-2.6675,-2.6559,-2.7608,-2.8303,-2.879,-2.9118,-2.91,-2.8894,-2.9013,-2.9058,-2.9058,-2.8939,-2.9053,-2.9243,-2.9121,-2.9167,-2.9335,-2.9694,-2.9897,-3.007,-3.0692,-3.0855,-3.0895,-3.1151,-3.119,-3.119,-3.119,-3.119,-3.119,-3.119,-3.1562,-3.1782,-3.1309,-3.1968,-3.2594,-3.2364,-3.3271,-3.3981,-3.3491,-3.3812,-3.4218,-3.4455,-3.4796,-3.5222,-3.5907,-3.6019,-3.6062,-3.6301,-3.6259,-3.6318,-3.6661,-3.6702,-3.6908,-3.7392,-3.765,-3.7949,-3.8307,-3.8583,-3.8707,-3.8707,-3.8707,-3.8707,-3.8707,-3.8822,-3.891,-3.8892,-3.9073,-3.9264,0.0,0.0,0.0,0.0,0.0,0.0,-2.2232,0.0,-2.3164,-2.3753,-2.4745,-2.5509,-2.5542,-2.5967,-2.6783,-2.8148,-2.818,-2.781,-2.7054,-2.6989,-2.6367,-2.4588,-2.5577,-2.6062,-2.5084,-2.5958,-2.633,-2.5723,-2.5768,-2.5334,-2.4177,-2.4403,-2.4402,-2.4101,-2.3766,-2.3758,-2.4024,-2.4389,-2.4558,-2.4558,-2.4855,-2.4989,-2.5037,-2.6022,-2.6446,-2.6502,-2.7452,-2.7946,-2.8091,-2.9147,-2.9106,-2.8522,-2.886,-2.8985,-2.896,-2.8656,-2.8978,-2.9589,-2.9243,-2.9335,-2.9677,-3.0087,-3.0443,-3.0773,-3.1112,-3.119,-3.119,-3.119,-3.119,-3.119,-3.119,-3.119,-3.119,-3.119,-3.119,-3.119,-3.119,-3.119,-3.141,-3.2121,-3.2848,-3.3372,-3.3339,-3.4556,-3.5284,-3.4573,-3.5317,-3.6002,-3.6019,-3.6019,-3.6105,-3.6301,-3.6131,-3.6208,-3.6661,-3.6702,-3.6926,-3.7374,-3.765,-3.7984,-3.8307,-3.8564,-3.8707,-3.8707,-3.8707,-3.8707,-3.8707,-3.8822,-3.8892,-3.8892,-3.9165,-3.9395,-1.9639,0.0,0.0,0.0,0.0,0.0,0.0,0.0,-2.1502,-2.2655,-2.3014,-2.3424,-2.4362,-2.4464,-2.4645,-2.5212,-2.6429,-2.6857,-2.5609,-2.6348,-2.6171,-2.3894,-2.4438,-2.4869,-2.4585,-2.4516,-2.4744,0.0,-2.4916,-2.445,-2.4231,-2.4003,-2.3829,-2.3754,-2.3658,-2.3314,-2.2825,-2.3234,-2.3538,-2.3659,-2.413,-2.4691,-2.5317,-2.5832,-2.577,-2.5261,-2.6591,-2.6889,-2.6555,-2.7835,-2.8249,-2.8119,-2.8747,-2.8985,-2.9009,-2.9205,-2.9604,-2.9957,-2.9589,-2.9722,-3.0087,-3.0443,-3.0609,-3.0773,-3.1112,-3.119,-3.119,-3.119,-3.119,-3.119,-3.119,-3.119,-3.119,-3.119,-3.119,-3.119,-3.119,-3.119,-3.1258,-3.1444,-3.2087,-3.2425,-3.1901,-3.2577,-3.3405,-3.3887,-3.4669,-3.5505,-3.6409,-3.6318,-3.6385,-3.6771,-3.6626,-3.6643,-3.6908,-3.7069,-3.7356,-3.7685,-3.8002,-3.8289,-3.8564,-3.8676,-3.8707,-3.8707,-3.8707,-3.8707,-3.8707,-3.8822,-3.895,-3.9045,-3.9362,-3.9552,-1.9398,-1.9654,0.0,0.0,0.0,0.0,-2.0494,-2.0527,-2.0838,0.0,-2.2069,-2.2475,-2.3436,-2.3227,-2.3141,-2.3803,-2.4505,-2.4789,-2.4232,-2.481,-2.4652,-2.2927,-2.3359,-2.3699,-2.3536,-2.338,-2.3727,-2.475,-2.3943,-2.3488,-2.3707,-2.3314,-2.3119,-2.3206,-2.2757,-2.2357,-2.2047,-2.2405,-2.2827,-2.3302,-2.3831,-2.4499,-2.5224,-2.5497,-2.5464,-2.5226,-2.5721,-2.599,-2.6222,-2.6717,-2.7222,-2.7734,-2.8655,-2.9015,-2.9059,-2.9435,-2.9953,-3.0359,-3.0,-3.0087,-3.0443,-3.0651,-3.0773,-3.0952,-3.1151,-3.119,-3.119,-3.119,-3.119,-3.119,-3.119,-3.119,-3.119,-3.119,-3.119,-3.119,-3.119,-3.119,-3.119,-3.119,-3.2036,-3.2425,-3.1376,-3.2491,-3.3447,-3.3311,-3.4254,-3.5292,-3.6093,-3.6265,-3.6466,-3.6834,-3.6891,-3.6952,-3.7048,-3.7281,-3.7596,-3.7984,-3.8189,-3.8405,-3.8676,-3.8707,-3.8707,-3.8707,-3.8707,-3.8707,-3.8707,-3.8822,-3.9007,-3.9192,-3.9458,-3.9602,-1.925,-1.9472,-1.9726,0.0,-2.015,0.0,-2.017,-2.0444,-2.0778,0.0,-2.1552,-2.2101,-2.2552,-2.2183,-2.2107,-2.314,-2.2568,-2.2273,-2.3079,-2.3048,-2.2667,-2.1853,-2.2394,-2.2658,-2.226,-2.2566,-2.3074,-2.3835,-2.3079,-2.2655,-2.2829,-2.2586,-2.2491,-2.2645,-2.148,-2.1085,-2.1575,-2.1771,-2.2254,-2.3071,-2.3595,-2.4195,-2.4863,-2.5013,-2.5291,-2.5606,-2.4827,-2.5217,-2.6302,-2.5812,-2.6253,-2.7328,-2.8443,-2.8856,-2.8904,-2.9304,-2.9959,-3.0575,-3.0243,-3.0418,-3.0773,-3.0773,-3.0952,-3.119,-3.119,-3.119,-3.119,-3.119,-3.119,-3.119,-3.119,-3.119,-3.119,-3.119,-3.119,-3.119,-3.119,-3.119,-3.119,-3.119,-3.2256,-3.2788,-3.1467,-3.3311,-3.4421,-3.2877,-3.4069,-3.5243,-3.557,-3.6035,-3.6519,-3.6799,-3.7073,-3.7208,-3.7167,-3.745,-3.7792,-3.8274,-3.834,-3.8437,-3.8707,-3.8707,-3.8707,-3.8707,-3.8707,-3.8707,-3.8707,-3.8822,-3.9017,-3.9272,-3.9483,-3.9633,-1.8784,0.0,0.0,0.0,0.0,0.0,-2.0545,-2.0444,-2.0342,0.0,-2.0673,-2.0631,-2.0985,-2.0919,-2.1,-2.1439,-2.1472,-2.1682,-2.2341,-2.3024,-2.2842,-2.1225,-2.1804,-2.2205,-2.194,-2.203,-2.2394,-2.3059,-2.2791,-2.253,-2.2355,-2.2995,-2.2963,-2.2167,-2.0705,-2.025,-2.0902,-2.094,-2.119,-2.167,-2.2019,-2.2844,-2.4135,-2.4243,-2.4232,-2.4061,-2.4374,-2.4337,-2.412,-2.5169,-2.6083,-2.6876,-2.7722,-2.8044,-2.8093,-2.8486,-2.9331,-3.0157,-2.9842,-3.0329,-3.1112,-3.1112,-3.1151,-3.119,-3.119,-3.119,-3.119,-3.119,-3.119,-3.119,-3.119,-3.119,-3.119,-3.119,-3.119,-3.119,-3.119,-3.119,-3.119,-3.119,-3.1545,-3.1781,-3.1492,-3.2509,-3.327,-3.3127,-3.4408,-3.5598,-3.6056,-3.6604,-3.7122,-3.7523,-3.7505,-3.7505,-3.7632,-3.7949,-3.8189,-3.8307,-3.8501,-3.8645,-3.8707,-3.8707,-3.8707,-3.8707,-3.8707,-3.8707,-3.8707,-3.8822,-3.8979,-3.9137,-3.929,-3.9795,0.0,0.0,0.0,-1.9325,0.0,0.0,0.0,-2.012,-2.012,-2.0695,-2.0392,-2.015,-2.053,-2.0395,-2.0326,-2.0681,-2.0845,-2.1037,-2.137,-2.197,-2.2004,-2.0939,-2.1326,-2.1583,-2.1316,-2.1432,-2.1625,-2.1856,-2.2008,-2.2014,-2.1837,-2.1842,-2.183,-2.169,-2.0393,-1.9856,-2.0198,-2.0198,-2.0585,-2.1306,-2.172,-2.2499,-2.3606,-2.3703,-2.3796,-2.3836,-2.3933,-2.4154,-2.456,-2.5304,-2.6031,-2.6776,-2.752,-2.7789,-2.7874,-2.8471,-2.9046,-2.96,-2.9782,-3.0191,-3.0717,-3.1072,-3.119,-3.119,-3.119,-3.119,-3.119,-3.119,-3.119,-3.119,-3.119,-3.119,-3.1247,-3.1325,-3.1269,-3.123,-3.1325,-3.1269,-3.119,-3.119,-3.1423,-3.1614,-3.1517,-3.2478,-3.3101,-3.2735,-3.3934,-3.512,-3.5616,-3.6506,-3.7255,-3.7738,-3.8,-3.8086,-3.8052,-3.8322,-3.8501,-3.8501,-3.8645,-3.8707,-3.8707,-3.8707,-3.8707,-3.8707,-3.8707,-3.8707,-3.8707,-3.878,-3.8881,-3.9007,-3.9192,-3.9575,0.0,0.0,0.0,0.0,0.0,-1.9244,0.0,0.0,0.0,-2.0478,-2.0254,0.0,0.0,0.0,0.0,-2.0277,0.0,0.0,0.0,-2.0827,0.0,-2.0728,-2.0974,-2.1038,-2.0794,-2.1038,-2.1103,-2.0893,-2.1298,-2.1509,-2.1459,-2.0655,-2.0531,-2.1197,-2.0299,-1.9758,-1.9762,-1.9726,-2.0177,-2.1121,-2.1652,-2.229,-2.3098,-2.3148,-2.3513,-2.4064,-2.3594,-2.4154,-2.5406,-2.5541,-2.5947,-2.6556,-2.7317,-2.757,-2.7689,-2.8315,-2.8636,-2.8839,-2.9465,-2.977,-2.9989,-3.0581,-3.0869,-3.0987,-3.0987,-3.1089,-3.119,-3.119,-3.119,-3.119,-3.119,-3.119,-3.123,-3.144,-3.1363,-3.1308,-3.15,-3.1423,-3.1308,-3.1308,-3.1596,-3.18,-3.1593,-3.2541,-3.3108,-3.2284,-3.3278,-3.4396,-3.5096,-3.6204,-3.7214,-3.791,-3.8419,-3.8596,-3.8405,-3.8583,-3.8707,-3.8707,-3.8707,-3.8707,-3.8707,-3.8707,-3.8707,-3.8707,-3.8707,-3.8707,-3.8707,-3.8707,-3.878,-3.891,-3.9129,-3.9339,0.0,0.0,0.0,0.0,-1.8784,0.0,0.0,0.0,-1.9588,-1.9782,0.0,-1.9762,0.0,0.0,0.0,0.0,0.0,0.0,-2.008,-2.0361,-2.0545,-2.0457,-2.0728,-2.0877,-2.0726,-2.1022,-2.1183,-2.1151,-2.1263,-2.1311,-2.1231,-2.0903,-2.0683,-2.06,-2.0242,-2.0021,-1.997,-1.9797,-1.995,-2.0412,-2.0906,-2.1535,-2.2325,-2.2382,-2.3042,-2.4064,-2.3594,-2.3866,-2.4692,-2.5338,-2.5659,-2.5812,-2.6539,-2.6826,-2.6843,-2.6928,-2.7368,-2.7941,-2.8009,-2.8535,-2.9127,-2.9194,-2.9685,-3.0226,-3.0226,-3.0683,-3.119,-3.119,-3.119,-3.119,-3.119,-3.119,-3.123,-3.144,-3.1479,-3.1517,-3.1726,-3.1763,-3.1726,-3.1726,-3.1893,-3.2001,-3.18,-3.2195,-3.2493,-3.2371,-3.3073,-3.4057,-3.528,-3.6188,-3.7199,-3.8473,-3.8676,-3.8676,-3.8676,-3.8676,-3.8707,-3.8707,-3.8707,-3.8707,-3.8707,-3.8707,-3.8707,-3.8707,-3.8707,-3.8707,-3.8707,-3.8707,-3.878,-3.891,-3.8921,-3.9415,0.0,0.0,0.0,0.0,0.0,0.0,-1.915,0.0,-1.9199,0.0,0.0,0.0,0.0,0.0,0.0,0.0,-1.9696,-1.9803,0.0,0.0,-2.017,-2.0388,0.0,0.0,-2.1053,-2.0722,-2.0618,-2.0917,-2.0693,-2.0677,-2.0951,-2.0854,-2.0756,-2.067,-2.0608,-2.0574,-2.0519,-2.0339,-2.0429,-2.0861,-2.1071,-2.1485,-2.2028,-2.2228,-2.2811,-2.3681,-2.3498,-2.3816,-2.4574,-2.5304,-2.5609,-2.5676,-2.6404,-2.6691,-2.6691,-2.6691,-2.6894,-2.7232,-2.7637,-2.8027,-2.8383,-2.8949,-2.9287,-2.957,-3.0051,-3.037,-3.0565,-3.0565,-3.0869,-3.1128,-3.0819,-3.1062,-3.1462,-3.1763,-3.1763,-3.1726,-3.1929,-3.1873,-3.18,-3.18,-3.1965,-3.2073,-3.2001,-3.2196,-3.2406,-3.2406,-3.3038,-3.3759,-3.4488,-3.5272,-3.6213,-3.7424,-3.7676,-3.794,-3.8433,-3.8596,-3.8707,-3.8707,-3.8707,-3.8707,-3.8707,-3.8707,-3.8707,-3.8707,-3.8707,-3.8707,-3.8707,-3.8707,-3.8738,-3.878,-3.8851,-3.9124,-2.0352,0.0,0.0,0.0,0.0,0.0,0.0,0.0,0.0,0.0,0.0,0.0,0.0,0.0,-1.9472,-1.9288,0.0,-1.942,-1.9362,-1.9508,0.0,0.0,0.0,0.0,0.0,-2.0362,-2.0102,-2.0366,-2.0239,-2.0289,-2.068,-2.0754,-2.0805,-2.0803,-2.0793,-2.0777,-2.0771,-2.0626,-2.073,-2.1197,-2.126,-2.1507,-2.1928,-2.218,-2.2699,-2.3393,-2.3393,-2.3816,-2.4574,-2.5304,-2.5609,-2.5676,-2.6404,-2.6691,-2.6691,-2.6691,-2.6691,-2.6776,-2.7317,-2.752,-2.7691,-2.8373,-2.8697,-2.8951,-2.9587,-2.9858,-2.9952,-2.9952,-3.0462,-3.0942,-3.0546,-3.0839,-3.1394,-3.1966,-3.1809,-3.1686,-3.2073,-3.2054,-3.1946,-3.1946,-3.209,-3.2196,-3.2196,-3.2319,-3.2406,-3.2406,-3.2862,-3.3371,-3.3823,-3.4424,-3.5275,-3.6568,-3.6859,-3.7334,-3.8234,-3.8469,-3.8614,-3.8707,-3.8707,-3.8707,-3.8707,-3.8707,-3.8707,-3.8707,-3.8707,-3.8707,-3.8707,-3.8707,-3.8707,-3.8707,-3.881,-3.8851,0.0,0.0,0.0,-2.0459,0.0,0.0,0.0,0.0,-1.9435,0.0,0.0,0.0,-1.9324,-1.9161,-1.9064,-1.8936,-1.886,0.0,0.0,-1.9207,0.0,0.0,0.0,0.0,0.0,-1.999,-1.9817,-1.9371,-1.9993,-2.0438,-2.0503,-2.0683,-2.078,-2.081,-2.0628,-2.0527,-2.0527,-2.0373,-2.0527,-2.0926,-2.1182,-2.1507,-2.1928,-2.218,-2.2699,-2.3393,-2.3393,-2.3816,-2.4574,-2.5304,-2.5609,-2.5676,-2.6404,-2.6691,-2.6691,-2.6691,-2.6691,-2.6691,-2.6725,-2.6842,-2.7026,-2.7043,-2.767,-2.8437,-2.8472,-2.8955,-2.9524,-2.9524,-3.0058,-3.0609,-3.0592,-3.0592,-3.0887,-3.1863,-3.1498,-3.1202,-3.2196,-3.2406,-3.2371,-3.2371,-3.2406,-3.2406,-3.2406,-3.2406,-3.2406,-3.2406,-3.2423,-3.279,-3.3752,-3.3944,-3.465,-3.6496,-3.671,-3.7136,-3.8201,-3.8307,-3.8437,-3.8676,-3.8707,-3.8707,-3.8707,-3.8707,-3.8707,-3.8707,-3.8707,-3.8707,-3.8707,-3.8707,-3.8707,-3.8707,-3.8707,-3.8707,-2.2634,-2.2636,-2.2317,-2.182,-2.1072,0.0,0.0,0.0,0.0,0.0,0.0,0.0,0.0,-1.9011,-1.9026,-1.8745,-1.886,-1.8936,0.0,-1.902,-1.9295,0.0,0.0,0.0,0.0,-1.9317,-1.9376,-2.0249,-1.9568,-1.914,-1.9181,-2.022,-2.0795,-2.0794,-2.0716,-2.0782,-2.0974,-2.1039,-2.1229,-2.1554,-2.1645,-2.1869,-2.218,-2.2254,-2.2699,-2.3376,-2.2885,-2.3088,-2.3782,-2.4036,-2.4425,-2.4932,-2.5676,-2.6268,-2.6691,-2.6691,-2.6691,-2.6691,-2.6691,-2.6808,-2.7007,-2.7103,-2.7339,-2.7713,-2.8343,-2.8624,-2.8749,-2.8749,-2.93,-2.9782,-2.9382,-2.9676,-3.0299,-3.127,-3.1287,-3.1355,-3.223,-3.2406,-3.2406,-3.2406,-3.2406,-3.2406,-3.2406,-3.2406,-3.2406,-3.2406,-3.2406,-3.251,-3.286,-3.2895,-3.3352,-3.4464,-3.4743,-3.52,-3.6107,-3.7,-3.7854,-3.864,-3.8707,-3.8707,-3.8707,-3.8707,-3.8707,-3.8707,-3.8707,-3.8707,-3.8707,-3.8707,-3.8707,-3.8707,-3.8707,-3.8707,-2.3855,-2.3771,-2.3359,-2.2947,-2.2178,-2.1342,-2.073,-2.0164,-1.9698,0.0,0.0,0.0,0.0,-1.9056,-1.8798,-1.8553,-1.8669,-1.8784,0.0,-1.9011,-1.9273,0.0,0.0,0.0,0.0,-1.8798,-1.8906,-1.9912,-1.9051,-1.8493,-1.8506,-1.9955,-2.0805,-2.081,-2.0797,-2.0894,-2.1071,-2.1277,-2.1477,-2.1685,-2.1836,-2.2032,-2.231,-2.231,-2.2564,-2.2987,-2.2513,-2.2581,-2.3054,-2.3562,-2.4052,-2.4608,-2.5592,-2.6285,-2.6691,-2.6691,-2.6691,-2.6691,-2.6691,-2.6808,-2.7007,-2.7166,-2.7213,-2.7348,-2.8053,-2.8195,-2.8207,-2.8826,-2.9138,-2.9344,-2.9493,-2.9508,-2.9784,-3.0916,-3.1001,-3.1107,-3.2177,-3.2406,-3.2406,-3.2406,-3.2406,-3.2406,-3.2406,-3.2406,-3.2406,-3.2406,-3.2406,-3.2406,-3.2406,-3.2406,-3.2687,-3.3424,-3.3653,-3.4285,-3.5559,-3.679,-3.7854,-3.864,-3.8707,-3.8707,-3.8707,-3.8707,-3.8836,-3.9129,-3.8854,-3.8836,-3.9129,-3.8897,-3.8792,-3.8844,-3.8921,-3.896]}]]